<?xml version="1.0" encoding="UTF-8" standalone="no" ?>
<gpx xmlns="http://www.topografix.com/GPX/1/1" xmlns:xsi="http://www.w3.org/2001/XMLSchema-instance" xsi:schemaLocation="http://www.topografix.com/GPX/1/1 http://www.topografix.com/GPX/1/1/gpx.xsd" version="1.1" creator="VisuGPX - https://www.visugpx.com">
  <metadata>
    <name>Circuit des 25 bosses - 05.2015</name>
    <desc><![CDATA[On a dit OK Bosses!]]></desc>
  </metadata>
  <trk>
    <name><![CDATA[Circuit des 25 bosses - Mai 2015]]></name>
    <desc><![CDATA[24 mai 2015  8:43 am]]></desc>
    <trkseg>
      <trkpt lat="48.37339" lon="2.51133">
        <ele>74.087</ele>
        <time>2015-05-24T06:43:32.132Z</time>
      </trkpt>
      <trkpt lat="48.37348" lon="2.5114">
        <ele>74.075</ele>
        <time>2015-05-24T06:43:43.908Z</time>
      </trkpt>
      <trkpt lat="48.37357" lon="2.5114">
        <ele>74.429</ele>
        <time>2015-05-24T06:43:52.622Z</time>
      </trkpt>
      <trkpt lat="48.37366" lon="2.51147">
        <ele>75.829</ele>
        <time>2015-05-24T06:44:03.831Z</time>
      </trkpt>
      <trkpt lat="48.37376" lon="2.51147">
        <ele>78.441</ele>
        <time>2015-05-24T06:44:20.125Z</time>
      </trkpt>
      <trkpt lat="48.37386" lon="2.51146">
        <ele>82.855</ele>
        <time>2015-05-24T06:44:31.275Z</time>
      </trkpt>
      <trkpt lat="48.37395" lon="2.51147">
        <ele>88.795</ele>
        <time>2015-05-24T06:44:42.311Z</time>
      </trkpt>
      <trkpt lat="48.37406" lon="2.51148">
        <ele>93.262</ele>
        <time>2015-05-24T06:44:53.300Z</time>
      </trkpt>
      <trkpt lat="48.37417" lon="2.51153">
        <ele>94.161</ele>
        <time>2015-05-24T06:45:02.912Z</time>
      </trkpt>
      <trkpt lat="48.37426" lon="2.51159">
        <ele>93.004</ele>
        <time>2015-05-24T06:45:09.539Z</time>
      </trkpt>
      <trkpt lat="48.37435" lon="2.51164">
        <ele>91.842</ele>
        <time>2015-05-24T06:45:15.528Z</time>
      </trkpt>
      <trkpt lat="48.37444" lon="2.51169">
        <ele>91.365</ele>
        <time>2015-05-24T06:45:22.024Z</time>
      </trkpt>
      <trkpt lat="48.37453" lon="2.51173">
        <ele>91.026</ele>
        <time>2015-05-24T06:45:29.761Z</time>
      </trkpt>
      <trkpt lat="48.37462" lon="2.51178">
        <ele>90.329</ele>
        <time>2015-05-24T06:45:38.773Z</time>
      </trkpt>
      <trkpt lat="48.37471" lon="2.51185">
        <ele>89.59</ele>
        <time>2015-05-24T06:45:47.969Z</time>
      </trkpt>
      <trkpt lat="48.3748" lon="2.51191">
        <ele>88.992</ele>
        <time>2015-05-24T06:45:55.754Z</time>
      </trkpt>
      <trkpt lat="48.37489" lon="2.51197">
        <ele>88.173</ele>
        <time>2015-05-24T06:46:03.920Z</time>
      </trkpt>
      <trkpt lat="48.37497" lon="2.51203">
        <ele>87.237</ele>
        <time>2015-05-24T06:46:11.906Z</time>
      </trkpt>
      <trkpt lat="48.37507" lon="2.51208">
        <ele>86.775</ele>
        <time>2015-05-24T06:46:20.329Z</time>
      </trkpt>
      <trkpt lat="48.37515" lon="2.51217">
        <ele>87.279</ele>
        <time>2015-05-24T06:46:30.295Z</time>
      </trkpt>
      <trkpt lat="48.37523" lon="2.51224">
        <ele>88.699</ele>
        <time>2015-05-24T06:46:37.710Z</time>
      </trkpt>
      <trkpt lat="48.3753" lon="2.51234">
        <ele>90.311</ele>
        <time>2015-05-24T06:46:45.215Z</time>
      </trkpt>
      <trkpt lat="48.37538" lon="2.51243">
        <ele>91.433</ele>
        <time>2015-05-24T06:46:55.014Z</time>
      </trkpt>
      <trkpt lat="48.37546" lon="2.51252">
        <ele>91.968</ele>
        <time>2015-05-24T06:47:02.368Z</time>
      </trkpt>
      <trkpt lat="48.37553" lon="2.5126">
        <ele>91.699</ele>
        <time>2015-05-24T06:47:09.187Z</time>
      </trkpt>
      <trkpt lat="48.37558" lon="2.51273">
        <ele>90.202</ele>
        <time>2015-05-24T06:47:17.231Z</time>
      </trkpt>
      <trkpt lat="48.37565" lon="2.51283">
        <ele>88.047</ele>
        <time>2015-05-24T06:47:24.416Z</time>
      </trkpt>
      <trkpt lat="48.37572" lon="2.51292">
        <ele>86.49</ele>
        <time>2015-05-24T06:47:33.247Z</time>
      </trkpt>
      <trkpt lat="48.37581" lon="2.513">
        <ele>85.941</ele>
        <time>2015-05-24T06:47:43.218Z</time>
      </trkpt>
      <trkpt lat="48.37591" lon="2.51294">
        <ele>85.837</ele>
        <time>2015-05-24T06:47:54.657Z</time>
      </trkpt>
      <trkpt lat="48.37597" lon="2.51282">
        <ele>85.536</ele>
        <time>2015-05-24T06:48:03.138Z</time>
      </trkpt>
      <trkpt lat="48.37605" lon="2.51273">
        <ele>84.788</ele>
        <time>2015-05-24T06:48:11.505Z</time>
      </trkpt>
      <trkpt lat="48.37613" lon="2.51265">
        <ele>83.488</ele>
        <time>2015-05-24T06:48:20.008Z</time>
      </trkpt>
      <trkpt lat="48.37623" lon="2.51264">
        <ele>81.864</ele>
        <time>2015-05-24T06:48:29.875Z</time>
      </trkpt>
      <trkpt lat="48.37632" lon="2.51267">
        <ele>81.129</ele>
        <time>2015-05-24T06:48:39.513Z</time>
      </trkpt>
      <trkpt lat="48.37641" lon="2.51269">
        <ele>81.934</ele>
        <time>2015-05-24T06:48:48.606Z</time>
      </trkpt>
      <trkpt lat="48.37651" lon="2.5127">
        <ele>83.253</ele>
        <time>2015-05-24T06:48:55.490Z</time>
      </trkpt>
      <trkpt lat="48.37659" lon="2.51264">
        <ele>83.879</ele>
        <time>2015-05-24T06:49:01.869Z</time>
      </trkpt>
      <trkpt lat="48.37668" lon="2.51258">
        <ele>83.696</ele>
        <time>2015-05-24T06:49:09.095Z</time>
      </trkpt>
      <trkpt lat="48.37676" lon="2.5125">
        <ele>83.226</ele>
        <time>2015-05-24T06:49:16.858Z</time>
      </trkpt>
      <trkpt lat="48.37685" lon="2.51246">
        <ele>82.918</ele>
        <time>2015-05-24T06:49:25.819Z</time>
      </trkpt>
      <trkpt lat="48.37694" lon="2.5125">
        <ele>82.822</ele>
        <time>2015-05-24T06:49:34.566Z</time>
      </trkpt>
      <trkpt lat="48.37701" lon="2.51259">
        <ele>82.873</ele>
        <time>2015-05-24T06:49:44.095Z</time>
      </trkpt>
      <trkpt lat="48.37708" lon="2.5127">
        <ele>83.146</ele>
        <time>2015-05-24T06:49:53.876Z</time>
      </trkpt>
      <trkpt lat="48.37716" lon="2.51279">
        <ele>84.068</ele>
        <time>2015-05-24T06:50:04.933Z</time>
      </trkpt>
      <trkpt lat="48.37723" lon="2.51289">
        <ele>85.589</ele>
        <time>2015-05-24T06:50:16.240Z</time>
      </trkpt>
      <trkpt lat="48.3773" lon="2.51297">
        <ele>86.858</ele>
        <time>2015-05-24T06:50:26.230Z</time>
      </trkpt>
      <trkpt lat="48.3774" lon="2.513">
        <ele>86.878</ele>
        <time>2015-05-24T06:50:35.377Z</time>
      </trkpt>
      <trkpt lat="48.37749" lon="2.51299">
        <ele>85.618</ele>
        <time>2015-05-24T06:50:43.195Z</time>
      </trkpt>
      <trkpt lat="48.37757" lon="2.51291">
        <ele>84.325</ele>
        <time>2015-05-24T06:50:52.606Z</time>
      </trkpt>
      <trkpt lat="48.37764" lon="2.51281">
        <ele>83.995</ele>
        <time>2015-05-24T06:51:02.971Z</time>
      </trkpt>
      <trkpt lat="48.3777" lon="2.51271">
        <ele>83.894</ele>
        <time>2015-05-24T06:51:11.953Z</time>
      </trkpt>
      <trkpt lat="48.37777" lon="2.51262">
        <ele>83.218</ele>
        <time>2015-05-24T06:51:22.304Z</time>
      </trkpt>
      <trkpt lat="48.37782" lon="2.51248">
        <ele>82.567</ele>
        <time>2015-05-24T06:51:33.052Z</time>
      </trkpt>
      <trkpt lat="48.37787" lon="2.51235">
        <ele>82.645</ele>
        <time>2015-05-24T06:51:41.220Z</time>
      </trkpt>
      <trkpt lat="48.37794" lon="2.51226">
        <ele>83.092</ele>
        <time>2015-05-24T06:51:48.944Z</time>
      </trkpt>
      <trkpt lat="48.378" lon="2.51216">
        <ele>83.253</ele>
        <time>2015-05-24T06:51:57.310Z</time>
      </trkpt>
      <trkpt lat="48.37807" lon="2.51207">
        <ele>83.028</ele>
        <time>2015-05-24T06:52:05.582Z</time>
      </trkpt>
      <trkpt lat="48.37817" lon="2.51201">
        <ele>82.716</ele>
        <time>2015-05-24T06:52:14.304Z</time>
      </trkpt>
      <trkpt lat="48.37825" lon="2.51194">
        <ele>82.555</ele>
        <time>2015-05-24T06:52:22.753Z</time>
      </trkpt>
      <trkpt lat="48.37834" lon="2.51189">
        <ele>82.622</ele>
        <time>2015-05-24T06:52:32.670Z</time>
      </trkpt>
      <trkpt lat="48.37841" lon="2.5118">
        <ele>82.862</ele>
        <time>2015-05-24T06:52:41.792Z</time>
      </trkpt>
      <trkpt lat="48.3785" lon="2.51173">
        <ele>83.206</ele>
        <time>2015-05-24T06:52:50.624Z</time>
      </trkpt>
      <trkpt lat="48.37856" lon="2.51162">
        <ele>83.552</ele>
        <time>2015-05-24T06:52:59.513Z</time>
      </trkpt>
      <trkpt lat="48.37863" lon="2.51153">
        <ele>83.764</ele>
        <time>2015-05-24T06:53:09.004Z</time>
      </trkpt>
      <trkpt lat="48.37869" lon="2.5114">
        <ele>83.809</ele>
        <time>2015-05-24T06:53:19.209Z</time>
      </trkpt>
      <trkpt lat="48.37873" lon="2.51127">
        <ele>83.208</ele>
        <time>2015-05-24T06:53:27.346Z</time>
      </trkpt>
      <trkpt lat="48.37877" lon="2.51114">
        <ele>81.742</ele>
        <time>2015-05-24T06:53:34.678Z</time>
      </trkpt>
      <trkpt lat="48.37879" lon="2.51099">
        <ele>80.229</ele>
        <time>2015-05-24T06:53:42.366Z</time>
      </trkpt>
      <trkpt lat="48.37884" lon="2.51088">
        <ele>79.354</ele>
        <time>2015-05-24T06:53:50.204Z</time>
      </trkpt>
      <trkpt lat="48.37892" lon="2.51081">
        <ele>79.079</ele>
        <time>2015-05-24T06:53:59.391Z</time>
      </trkpt>
      <trkpt lat="48.37901" lon="2.51075">
        <ele>79.343</ele>
        <time>2015-05-24T06:54:11.138Z</time>
      </trkpt>
      <trkpt lat="48.37901" lon="2.51075">
        <ele>79.978</ele>
        <time>2015-05-24T06:54:25.149Z</time>
      </trkpt>
      <trkpt lat="48.37901" lon="2.51075">
        <ele>80.454</ele>
        <time>2015-05-24T06:54:25.249Z</time>
      </trkpt>
      <trkpt lat="48.37917" lon="2.51076">
        <ele>80.319</ele>
        <time>2015-05-24T06:54:51.894Z</time>
      </trkpt>
      <trkpt lat="48.37925" lon="2.51081">
        <ele>79.888</ele>
        <time>2015-05-24T06:55:03.081Z</time>
      </trkpt>
      <trkpt lat="48.37935" lon="2.51078">
        <ele>79.749</ele>
        <time>2015-05-24T06:55:15.781Z</time>
      </trkpt>
      <trkpt lat="48.37944" lon="2.51076">
        <ele>80.201</ele>
        <time>2015-05-24T06:55:29.327Z</time>
      </trkpt>
      <trkpt lat="48.37953" lon="2.51073">
        <ele>81.098</ele>
        <time>2015-05-24T06:55:46.146Z</time>
      </trkpt>
      <trkpt lat="48.37953" lon="2.51073">
        <ele>81.954</ele>
        <time>2015-05-24T06:55:47.147Z</time>
      </trkpt>
      <trkpt lat="48.37953" lon="2.51073">
        <ele>82.332</ele>
        <time>2015-05-24T06:55:47.247Z</time>
      </trkpt>
      <trkpt lat="48.37962" lon="2.51072">
        <ele>82.02</ele>
        <time>2015-05-24T06:56:09.147Z</time>
      </trkpt>
      <trkpt lat="48.37962" lon="2.51072">
        <ele>81.878</ele>
        <time>2015-05-24T06:56:10.149Z</time>
      </trkpt>
      <trkpt lat="48.37962" lon="2.51072">
        <ele>81.854</ele>
        <time>2015-05-24T06:56:10.249Z</time>
      </trkpt>
      <trkpt lat="48.37968" lon="2.51081">
        <ele>81.845</ele>
        <time>2015-05-24T06:56:27.139Z</time>
      </trkpt>
      <trkpt lat="48.37968" lon="2.51081">
        <ele>81.806</ele>
        <time>2015-05-24T06:56:36.147Z</time>
      </trkpt>
      <trkpt lat="48.37968" lon="2.51081">
        <ele>81.779</ele>
        <time>2015-05-24T06:56:36.247Z</time>
      </trkpt>
      <trkpt lat="48.37977" lon="2.51079">
        <ele>81.731</ele>
        <time>2015-05-24T06:56:55.694Z</time>
      </trkpt>
      <trkpt lat="48.37987" lon="2.51082">
        <ele>84.378</ele>
        <time>2015-05-24T06:57:09.140Z</time>
      </trkpt>
      <trkpt lat="48.37987" lon="2.51082">
        <ele>91.312</ele>
        <time>2015-05-24T06:57:34.148Z</time>
      </trkpt>
      <trkpt lat="48.37987" lon="2.51082">
        <ele>97.085</ele>
        <time>2015-05-24T06:57:34.248Z</time>
      </trkpt>
      <trkpt lat="48.38012" lon="2.51089">
        <ele>96.948</ele>
        <time>2015-05-24T06:58:23.961Z</time>
      </trkpt>
      <trkpt lat="48.38017" lon="2.51101">
        <ele>96.386</ele>
        <time>2015-05-24T06:58:35.150Z</time>
      </trkpt>
      <trkpt lat="48.38017" lon="2.51101">
        <ele>100.703</ele>
        <time>2015-05-24T06:58:54.146Z</time>
      </trkpt>
      <trkpt lat="48.38017" lon="2.51101">
        <ele>105.406</ele>
        <time>2015-05-24T07:02:51.929Z</time>
      </trkpt>
      <trkpt lat="48.38025" lon="2.51122">
        <ele>105.417</ele>
        <time>2015-05-24T07:03:25.959Z</time>
      </trkpt>
      <trkpt lat="48.38025" lon="2.51122">
        <ele>103.498</ele>
        <time>2015-05-24T07:03:34.967Z</time>
      </trkpt>
      <trkpt lat="48.38025" lon="2.51122">
        <ele>103.258</ele>
        <time>2015-05-24T07:03:35.067Z</time>
      </trkpt>
      <trkpt lat="48.38033" lon="2.51132">
        <ele>104.153</ele>
        <time>2015-05-24T07:04:07.920Z</time>
      </trkpt>
      <trkpt lat="48.38041" lon="2.51139">
        <ele>104.1</ele>
        <time>2015-05-24T07:04:25.437Z</time>
      </trkpt>
      <trkpt lat="48.38049" lon="2.51146">
        <ele>104.993</ele>
        <time>2015-05-24T07:04:35.367Z</time>
      </trkpt>
      <trkpt lat="48.38054" lon="2.51159">
        <ele>106.421</ele>
        <time>2015-05-24T07:04:44.004Z</time>
      </trkpt>
      <trkpt lat="48.38058" lon="2.51172">
        <ele>107.091</ele>
        <time>2015-05-24T07:04:53.074Z</time>
      </trkpt>
      <trkpt lat="48.38068" lon="2.51175">
        <ele>106.592</ele>
        <time>2015-05-24T07:05:03.112Z</time>
      </trkpt>
      <trkpt lat="48.38075" lon="2.51184">
        <ele>105.456</ele>
        <time>2015-05-24T07:05:14.062Z</time>
      </trkpt>
      <trkpt lat="48.38075" lon="2.51198">
        <ele>104.454</ele>
        <time>2015-05-24T07:05:26.963Z</time>
      </trkpt>
      <trkpt lat="48.38075" lon="2.51198">
        <ele>104.066</ele>
        <time>2015-05-24T07:05:26.963Z</time>
      </trkpt>
      <trkpt lat="48.38075" lon="2.51198">
        <ele>104.083</ele>
        <time>2015-05-24T07:05:27.294Z</time>
      </trkpt>
      <trkpt lat="48.38078" lon="2.51211">
        <ele>104.11</ele>
        <time>2015-05-24T07:05:55.961Z</time>
      </trkpt>
      <trkpt lat="48.38078" lon="2.51211">
        <ele>104.01</ele>
        <time>2015-05-24T07:06:15.969Z</time>
      </trkpt>
      <trkpt lat="48.38078" lon="2.51211">
        <ele>103.94</ele>
        <time>2015-05-24T07:06:16.069Z</time>
      </trkpt>
      <trkpt lat="48.38095" lon="2.51241">
        <ele>103.915</ele>
        <time>2015-05-24T07:06:53.970Z</time>
      </trkpt>
      <trkpt lat="48.38095" lon="2.51241">
        <ele>103.92</ele>
        <time>2015-05-24T07:07:12.968Z</time>
      </trkpt>
      <trkpt lat="48.38095" lon="2.51241">
        <ele>103.907</ele>
        <time>2015-05-24T07:07:13.068Z</time>
      </trkpt>
      <trkpt lat="48.38106" lon="2.51236">
        <ele>103.859</ele>
        <time>2015-05-24T07:07:38.832Z</time>
      </trkpt>
      <trkpt lat="48.38115" lon="2.5124">
        <ele>104.214</ele>
        <time>2015-05-24T07:07:49.968Z</time>
      </trkpt>
      <trkpt lat="48.38115" lon="2.5124">
        <ele>105.236</ele>
        <time>2015-05-24T07:07:58.969Z</time>
      </trkpt>
      <trkpt lat="48.38115" lon="2.5124">
        <ele>106.085</ele>
        <time>2015-05-24T07:08:25.542Z</time>
      </trkpt>
      <trkpt lat="48.38136" lon="2.51242">
        <ele>106.028</ele>
        <time>2015-05-24T07:09:30.960Z</time>
      </trkpt>
      <trkpt lat="48.38136" lon="2.51242">
        <ele>105.635</ele>
        <time>2015-05-24T07:09:39.968Z</time>
      </trkpt>
      <trkpt lat="48.38136" lon="2.51242">
        <ele>105.558</ele>
        <time>2015-05-24T07:10:55.965Z</time>
      </trkpt>
      <trkpt lat="48.38136" lon="2.51242">
        <ele>105.667</ele>
        <time>2015-05-24T07:10:59.756Z</time>
      </trkpt>
      <trkpt lat="48.38144" lon="2.51248">
        <ele>105.549</ele>
        <time>2015-05-24T07:12:14.237Z</time>
      </trkpt>
      <trkpt lat="48.38153" lon="2.51252">
        <ele>107.112</ele>
        <time>2015-05-24T07:12:37.881Z</time>
      </trkpt>
      <trkpt lat="48.38162" lon="2.51254">
        <ele>111.494</ele>
        <time>2015-05-24T07:12:58.965Z</time>
      </trkpt>
      <trkpt lat="48.38162" lon="2.51254">
        <ele>116.202</ele>
        <time>2015-05-24T07:13:22.971Z</time>
      </trkpt>
      <trkpt lat="48.38162" lon="2.51254">
        <ele>118.31</ele>
        <time>2015-05-24T07:14:01.968Z</time>
      </trkpt>
      <trkpt lat="48.38162" lon="2.51254">
        <ele>118.009</ele>
        <time>2015-05-24T07:14:02.068Z</time>
      </trkpt>
      <trkpt lat="48.3818" lon="2.51247">
        <ele>116.889</ele>
        <time>2015-05-24T07:14:41.975Z</time>
      </trkpt>
      <trkpt lat="48.3818" lon="2.51247">
        <ele>116.227</ele>
        <time>2015-05-24T07:14:48.971Z</time>
      </trkpt>
      <trkpt lat="48.3818" lon="2.51247">
        <ele>116.133</ele>
        <time>2015-05-24T07:14:49.071Z</time>
      </trkpt>
      <trkpt lat="48.38191" lon="2.51247">
        <ele>116.145</ele>
        <time>2015-05-24T07:15:08.177Z</time>
      </trkpt>
      <trkpt lat="48.382" lon="2.51245">
        <ele>115.622</ele>
        <time>2015-05-24T07:15:19.973Z</time>
      </trkpt>
      <trkpt lat="48.382" lon="2.51245">
        <ele>114.338</ele>
        <time>2015-05-24T07:15:32.969Z</time>
      </trkpt>
      <trkpt lat="48.382" lon="2.51245">
        <ele>113.259</ele>
        <time>2015-05-24T07:15:33.069Z</time>
      </trkpt>
      <trkpt lat="48.38211" lon="2.51244">
        <ele>113.231</ele>
        <time>2015-05-24T07:15:55.469Z</time>
      </trkpt>
      <trkpt lat="48.3822" lon="2.51245">
        <ele>112.535</ele>
        <time>2015-05-24T07:16:05.966Z</time>
      </trkpt>
      <trkpt lat="48.3822" lon="2.51245">
        <ele>109.782</ele>
        <time>2015-05-24T07:16:12.969Z</time>
      </trkpt>
      <trkpt lat="48.3822" lon="2.51245">
        <ele>107.281</ele>
        <time>2015-05-24T07:16:13.069Z</time>
      </trkpt>
      <trkpt lat="48.38229" lon="2.51252">
        <ele>108.528</ele>
        <time>2015-05-24T07:16:34.974Z</time>
      </trkpt>
      <trkpt lat="48.38229" lon="2.51252">
        <ele>109.318</ele>
        <time>2015-05-24T07:16:39.968Z</time>
      </trkpt>
      <trkpt lat="48.38229" lon="2.51252">
        <ele>109.229</ele>
        <time>2015-05-24T07:16:40.068Z</time>
      </trkpt>
      <trkpt lat="48.38239" lon="2.51259">
        <ele>108.832</ele>
        <time>2015-05-24T07:17:03.558Z</time>
      </trkpt>
      <trkpt lat="48.38247" lon="2.51266">
        <ele>106.54</ele>
        <time>2015-05-24T07:17:17.836Z</time>
      </trkpt>
      <trkpt lat="48.38255" lon="2.51273">
        <ele>100.247</ele>
        <time>2015-05-24T07:17:27.974Z</time>
      </trkpt>
      <trkpt lat="48.38255" lon="2.51273">
        <ele>93.823</ele>
        <time>2015-05-24T07:17:31.969Z</time>
      </trkpt>
      <trkpt lat="48.38255" lon="2.51273">
        <ele>91.227</ele>
        <time>2015-05-24T07:17:32.069Z</time>
      </trkpt>
      <trkpt lat="48.38263" lon="2.51286">
        <ele>91.61</ele>
        <time>2015-05-24T07:18:36.293Z</time>
      </trkpt>
      <trkpt lat="48.38271" lon="2.51294">
        <ele>92.338</ele>
        <time>2015-05-24T07:18:52.844Z</time>
      </trkpt>
      <trkpt lat="48.38276" lon="2.51306">
        <ele>91.713</ele>
        <time>2015-05-24T07:19:06.199Z</time>
      </trkpt>
      <trkpt lat="48.38283" lon="2.51315">
        <ele>90.164</ele>
        <time>2015-05-24T07:19:17.432Z</time>
      </trkpt>
      <trkpt lat="48.38291" lon="2.51324">
        <ele>88.815</ele>
        <time>2015-05-24T07:19:29.410Z</time>
      </trkpt>
      <trkpt lat="48.38295" lon="2.51336">
        <ele>88.019</ele>
        <time>2015-05-24T07:19:39.597Z</time>
      </trkpt>
      <trkpt lat="48.38296" lon="2.51351">
        <ele>87.884</ele>
        <time>2015-05-24T07:19:49.942Z</time>
      </trkpt>
      <trkpt lat="48.383" lon="2.51363">
        <ele>88.318</ele>
        <time>2015-05-24T07:19:58.972Z</time>
      </trkpt>
      <trkpt lat="48.383" lon="2.51363">
        <ele>88.812</ele>
        <time>2015-05-24T07:20:07.972Z</time>
      </trkpt>
      <trkpt lat="48.383" lon="2.51363">
        <ele>88.966</ele>
        <time>2015-05-24T07:20:08.072Z</time>
      </trkpt>
      <trkpt lat="48.38312" lon="2.51378">
        <ele>88.897</ele>
        <time>2015-05-24T07:20:25.973Z</time>
      </trkpt>
      <trkpt lat="48.38312" lon="2.51378">
        <ele>88.79</ele>
        <time>2015-05-24T07:20:31.978Z</time>
      </trkpt>
      <trkpt lat="48.38312" lon="2.51378">
        <ele>88.75</ele>
        <time>2015-05-24T07:20:32.078Z</time>
      </trkpt>
      <trkpt lat="48.38321" lon="2.51379">
        <ele>88.73</ele>
        <time>2015-05-24T07:20:43.978Z</time>
      </trkpt>
      <trkpt lat="48.38321" lon="2.51379">
        <ele>88.702</ele>
        <time>2015-05-24T07:20:48.968Z</time>
      </trkpt>
      <trkpt lat="48.38321" lon="2.51379">
        <ele>88.678</ele>
        <time>2015-05-24T07:20:49.068Z</time>
      </trkpt>
      <trkpt lat="48.38327" lon="2.51391">
        <ele>88.618</ele>
        <time>2015-05-24T07:21:08.183Z</time>
      </trkpt>
      <trkpt lat="48.38332" lon="2.51403">
        <ele>90.196</ele>
        <time>2015-05-24T07:21:18.323Z</time>
      </trkpt>
      <trkpt lat="48.38337" lon="2.51417">
        <ele>94.726</ele>
        <time>2015-05-24T07:21:29.733Z</time>
      </trkpt>
      <trkpt lat="48.38337" lon="2.5143">
        <ele>100.001</ele>
        <time>2015-05-24T07:21:40.448Z</time>
      </trkpt>
      <trkpt lat="48.38342" lon="2.51443">
        <ele>103.235</ele>
        <time>2015-05-24T07:21:52.661Z</time>
      </trkpt>
      <trkpt lat="48.38345" lon="2.51458">
        <ele>104.644</ele>
        <time>2015-05-24T07:22:01.972Z</time>
      </trkpt>
      <trkpt lat="48.3835" lon="2.5147">
        <ele>105.093</ele>
        <time>2015-05-24T07:22:09.310Z</time>
      </trkpt>
      <trkpt lat="48.38355" lon="2.51483">
        <ele>105.059</ele>
        <time>2015-05-24T07:22:16.966Z</time>
      </trkpt>
      <trkpt lat="48.38355" lon="2.51483">
        <ele>105.001</ele>
        <time>2015-05-24T07:22:23.971Z</time>
      </trkpt>
      <trkpt lat="48.38355" lon="2.51483">
        <ele>105.027</ele>
        <time>2015-05-24T07:22:24.071Z</time>
      </trkpt>
      <trkpt lat="48.38354" lon="2.51497">
        <ele>104.979</ele>
        <time>2015-05-24T07:22:50.174Z</time>
      </trkpt>
      <trkpt lat="48.38356" lon="2.5151">
        <ele>104.17</ele>
        <time>2015-05-24T07:23:08.998Z</time>
      </trkpt>
      <trkpt lat="48.38355" lon="2.51524">
        <ele>102.176</ele>
        <time>2015-05-24T07:23:21.642Z</time>
      </trkpt>
      <trkpt lat="48.38353" lon="2.51538">
        <ele>100.332</ele>
        <time>2015-05-24T07:23:34.240Z</time>
      </trkpt>
      <trkpt lat="48.3835" lon="2.51551">
        <ele>99.839</ele>
        <time>2015-05-24T07:23:46.154Z</time>
      </trkpt>
      <trkpt lat="48.38344" lon="2.51562">
        <ele>99.631</ele>
        <time>2015-05-24T07:23:55.456Z</time>
      </trkpt>
      <trkpt lat="48.38341" lon="2.51576">
        <ele>98.38</ele>
        <time>2015-05-24T07:24:04.592Z</time>
      </trkpt>
      <trkpt lat="48.38344" lon="2.51589">
        <ele>96.521</ele>
        <time>2015-05-24T07:24:14.367Z</time>
      </trkpt>
      <trkpt lat="48.3834" lon="2.51602">
        <ele>94.736</ele>
        <time>2015-05-24T07:24:26.249Z</time>
      </trkpt>
      <trkpt lat="48.38336" lon="2.51614">
        <ele>93.812</ele>
        <time>2015-05-24T07:24:40.492Z</time>
      </trkpt>
      <trkpt lat="48.38333" lon="2.51628">
        <ele>94.763</ele>
        <time>2015-05-24T07:24:55.971Z</time>
      </trkpt>
      <trkpt lat="48.38333" lon="2.51628">
        <ele>96.782</ele>
        <time>2015-05-24T07:25:15.980Z</time>
      </trkpt>
      <trkpt lat="48.38333" lon="2.51628">
        <ele>97.926</ele>
        <time>2015-05-24T07:25:16.080Z</time>
      </trkpt>
      <trkpt lat="48.38316" lon="2.51659">
        <ele>97.803</ele>
        <time>2015-05-24T07:26:49.968Z</time>
      </trkpt>
      <trkpt lat="48.38316" lon="2.51659">
        <ele>97.305</ele>
        <time>2015-05-24T07:26:52.975Z</time>
      </trkpt>
      <trkpt lat="48.38316" lon="2.51659">
        <ele>97.228</ele>
        <time>2015-05-24T07:26:53.075Z</time>
      </trkpt>
      <trkpt lat="48.38309" lon="2.51685">
        <ele>97.452</ele>
        <time>2015-05-24T07:27:50.973Z</time>
      </trkpt>
      <trkpt lat="48.38309" lon="2.51685">
        <ele>97.594</ele>
        <time>2015-05-24T07:27:53.974Z</time>
      </trkpt>
      <trkpt lat="48.38309" lon="2.51685">
        <ele>97.567</ele>
        <time>2015-05-24T07:27:54.074Z</time>
      </trkpt>
      <trkpt lat="48.38306" lon="2.517">
        <ele>97.495</ele>
        <time>2015-05-24T07:28:08.973Z</time>
      </trkpt>
      <trkpt lat="48.38306" lon="2.517">
        <ele>97.467</ele>
        <time>2015-05-24T07:28:09.967Z</time>
      </trkpt>
      <trkpt lat="48.38306" lon="2.517">
        <ele>97.453</ele>
        <time>2015-05-24T07:28:12.023Z</time>
      </trkpt>
      <trkpt lat="48.38305" lon="2.51713">
        <ele>97.381</ele>
        <time>2015-05-24T07:28:49.234Z</time>
      </trkpt>
      <trkpt lat="48.38301" lon="2.51727">
        <ele>99.397</ele>
        <time>2015-05-24T07:29:20.971Z</time>
      </trkpt>
      <trkpt lat="48.38301" lon="2.51727">
        <ele>104.708</ele>
        <time>2015-05-24T07:29:29.971Z</time>
      </trkpt>
      <trkpt lat="48.38301" lon="2.51727">
        <ele>109.128</ele>
        <time>2015-05-24T07:29:30.071Z</time>
      </trkpt>
      <trkpt lat="48.38311" lon="2.5173">
        <ele>109.009</ele>
        <time>2015-05-24T07:30:02.987Z</time>
      </trkpt>
      <trkpt lat="48.3832" lon="2.51732">
        <ele>108.441</ele>
        <time>2015-05-24T07:30:12.974Z</time>
      </trkpt>
      <trkpt lat="48.3832" lon="2.51732">
        <ele>111.422</ele>
        <time>2015-05-24T07:30:31.985Z</time>
      </trkpt>
      <trkpt lat="48.3832" lon="2.51732">
        <ele>114.754</ele>
        <time>2015-05-24T07:30:32.085Z</time>
      </trkpt>
      <trkpt lat="48.38331" lon="2.51732">
        <ele>114.753</ele>
        <time>2015-05-24T07:31:03.769Z</time>
      </trkpt>
      <trkpt lat="48.38331" lon="2.51745">
        <ele>113.781</ele>
        <time>2015-05-24T07:31:13.982Z</time>
      </trkpt>
      <trkpt lat="48.38331" lon="2.51745">
        <ele>114.665</ele>
        <time>2015-05-24T07:31:39.988Z</time>
      </trkpt>
      <trkpt lat="48.38331" lon="2.51745">
        <ele>116.055</ele>
        <time>2015-05-24T07:31:40.088Z</time>
      </trkpt>
      <trkpt lat="48.38338" lon="2.51758">
        <ele>115.941</ele>
        <time>2015-05-24T07:32:11.983Z</time>
      </trkpt>
      <trkpt lat="48.38338" lon="2.51758">
        <ele>114.932</ele>
        <time>2015-05-24T07:32:23.979Z</time>
      </trkpt>
      <trkpt lat="48.38338" lon="2.51758">
        <ele>114.347</ele>
        <time>2015-05-24T07:32:24.079Z</time>
      </trkpt>
      <trkpt lat="48.38353" lon="2.51767">
        <ele>114.384</ele>
        <time>2015-05-24T07:32:53.379Z</time>
      </trkpt>
      <trkpt lat="48.38361" lon="2.51773">
        <ele>113.496</ele>
        <time>2015-05-24T07:33:05.962Z</time>
      </trkpt>
      <trkpt lat="48.38371" lon="2.51778">
        <ele>110.33</ele>
        <time>2015-05-24T07:33:19.931Z</time>
      </trkpt>
      <trkpt lat="48.38379" lon="2.5177">
        <ele>105.305</ele>
        <time>2015-05-24T07:33:33.987Z</time>
      </trkpt>
      <trkpt lat="48.38379" lon="2.5177">
        <ele>100.129</ele>
        <time>2015-05-24T07:33:59.992Z</time>
      </trkpt>
      <trkpt lat="48.38379" lon="2.5177">
        <ele>97.153</ele>
        <time>2015-05-24T07:34:00.092Z</time>
      </trkpt>
      <trkpt lat="48.3839" lon="2.51765">
        <ele>97.325</ele>
        <time>2015-05-24T07:34:27.987Z</time>
      </trkpt>
      <trkpt lat="48.3839" lon="2.51765">
        <ele>98.42</ele>
        <time>2015-05-24T07:34:33.975Z</time>
      </trkpt>
      <trkpt lat="48.3839" lon="2.51765">
        <ele>98.476</ele>
        <time>2015-05-24T07:34:34.075Z</time>
      </trkpt>
      <trkpt lat="48.38399" lon="2.51769">
        <ele>97.819</ele>
        <time>2015-05-24T07:35:05.632Z</time>
      </trkpt>
      <trkpt lat="48.38406" lon="2.51777">
        <ele>96.161</ele>
        <time>2015-05-24T07:35:29.607Z</time>
      </trkpt>
      <trkpt lat="48.3841" lon="2.51791">
        <ele>92.203</ele>
        <time>2015-05-24T07:35:57.644Z</time>
      </trkpt>
      <trkpt lat="48.38419" lon="2.51803">
        <ele>87.125</ele>
        <time>2015-05-24T07:36:34.039Z</time>
      </trkpt>
      <trkpt lat="48.38428" lon="2.51803">
        <ele>85.196</ele>
        <time>2015-05-24T07:37:22.022Z</time>
      </trkpt>
      <trkpt lat="48.38437" lon="2.51807">
        <ele>88.031</ele>
        <time>2015-05-24T07:38:16.374Z</time>
      </trkpt>
      <trkpt lat="48.38443" lon="2.51818">
        <ele>91.876</ele>
        <time>2015-05-24T07:39:02.783Z</time>
      </trkpt>
      <trkpt lat="48.38451" lon="2.51821">
        <ele>92.897</ele>
        <time>2015-05-24T07:39:24.113Z</time>
      </trkpt>
      <trkpt lat="48.3846" lon="2.51827">
        <ele>91.499</ele>
        <time>2015-05-24T07:39:39.982Z</time>
      </trkpt>
      <trkpt lat="48.3846" lon="2.51827">
        <ele>89.778</ele>
        <time>2015-05-24T07:39:42.977Z</time>
      </trkpt>
      <trkpt lat="48.3846" lon="2.51827">
        <ele>88.974</ele>
        <time>2015-05-24T07:39:43.424Z</time>
      </trkpt>
      <trkpt lat="48.3847" lon="2.51851">
        <ele>89.101</ele>
        <time>2015-05-24T07:40:30.633Z</time>
      </trkpt>
      <trkpt lat="48.38476" lon="2.51862">
        <ele>89.654</ele>
        <time>2015-05-24T07:40:45.244Z</time>
      </trkpt>
      <trkpt lat="48.38477" lon="2.51876">
        <ele>90.107</ele>
        <time>2015-05-24T07:40:58.196Z</time>
      </trkpt>
      <trkpt lat="48.38476" lon="2.51891">
        <ele>90.422</ele>
        <time>2015-05-24T07:41:09.763Z</time>
      </trkpt>
      <trkpt lat="48.38479" lon="2.51905">
        <ele>91.518</ele>
        <time>2015-05-24T07:41:20.974Z</time>
      </trkpt>
      <trkpt lat="48.38479" lon="2.51905">
        <ele>93.766</ele>
        <time>2015-05-24T07:41:29.983Z</time>
      </trkpt>
      <trkpt lat="48.38479" lon="2.51905">
        <ele>95.489</ele>
        <time>2015-05-24T07:41:39.976Z</time>
      </trkpt>
      <trkpt lat="48.38479" lon="2.51905">
        <ele>95.404</ele>
        <time>2015-05-24T07:41:40.076Z</time>
      </trkpt>
      <trkpt lat="48.38482" lon="2.51924">
        <ele>94.687</ele>
        <time>2015-05-24T07:42:14.980Z</time>
      </trkpt>
      <trkpt lat="48.38484" lon="2.51938">
        <ele>95.228</ele>
        <time>2015-05-24T07:42:26.723Z</time>
      </trkpt>
      <trkpt lat="48.3848" lon="2.51951">
        <ele>97.216</ele>
        <time>2015-05-24T07:42:35.044Z</time>
      </trkpt>
      <trkpt lat="48.38475" lon="2.51963">
        <ele>98.109</ele>
        <time>2015-05-24T07:42:42.700Z</time>
      </trkpt>
      <trkpt lat="48.3847" lon="2.51974">
        <ele>96.248</ele>
        <time>2015-05-24T07:42:49.981Z</time>
      </trkpt>
      <trkpt lat="48.3847" lon="2.51974">
        <ele>93.651</ele>
        <time>2015-05-24T07:42:54.983Z</time>
      </trkpt>
      <trkpt lat="48.3847" lon="2.51974">
        <ele>92.525</ele>
        <time>2015-05-24T07:42:55.083Z</time>
      </trkpt>
      <trkpt lat="48.3847" lon="2.5199">
        <ele>92.674</ele>
        <time>2015-05-24T07:43:11.571Z</time>
      </trkpt>
      <trkpt lat="48.38463" lon="2.52">
        <ele>93.18</ele>
        <time>2015-05-24T07:43:22.026Z</time>
      </trkpt>
      <trkpt lat="48.38456" lon="2.5201">
        <ele>93.53</ele>
        <time>2015-05-24T07:43:31.450Z</time>
      </trkpt>
      <trkpt lat="48.3845" lon="2.5202">
        <ele>94.024</ele>
        <time>2015-05-24T07:43:41.985Z</time>
      </trkpt>
      <trkpt lat="48.3845" lon="2.5202">
        <ele>94.962</ele>
        <time>2015-05-24T07:43:56.979Z</time>
      </trkpt>
      <trkpt lat="48.3845" lon="2.5202">
        <ele>95.695</ele>
        <time>2015-05-24T07:43:57.079Z</time>
      </trkpt>
      <trkpt lat="48.38443" lon="2.52036">
        <ele>95.639</ele>
        <time>2015-05-24T07:44:06.976Z</time>
      </trkpt>
      <trkpt lat="48.38443" lon="2.52036">
        <ele>95.297</ele>
        <time>2015-05-24T07:44:07.977Z</time>
      </trkpt>
      <trkpt lat="48.38443" lon="2.52036">
        <ele>95.23</ele>
        <time>2015-05-24T07:44:30.630Z</time>
      </trkpt>
      <trkpt lat="48.38432" lon="2.52053">
        <ele>95.37</ele>
        <time>2015-05-24T07:45:13.135Z</time>
      </trkpt>
      <trkpt lat="48.38423" lon="2.52058">
        <ele>97.248</ele>
        <time>2015-05-24T07:45:29.741Z</time>
      </trkpt>
      <trkpt lat="48.38415" lon="2.52065">
        <ele>102.013</ele>
        <time>2015-05-24T07:45:50.110Z</time>
      </trkpt>
      <trkpt lat="48.38409" lon="2.52076">
        <ele>107.634</ele>
        <time>2015-05-24T07:46:07.987Z</time>
      </trkpt>
      <trkpt lat="48.38409" lon="2.52076">
        <ele>111.665</ele>
        <time>2015-05-24T07:46:20.986Z</time>
      </trkpt>
      <trkpt lat="48.38409" lon="2.52076">
        <ele>113.411</ele>
        <time>2015-05-24T07:46:21.086Z</time>
      </trkpt>
      <trkpt lat="48.38401" lon="2.52088">
        <ele>113.143</ele>
        <time>2015-05-24T07:46:38.103Z</time>
      </trkpt>
      <trkpt lat="48.38396" lon="2.52099">
        <ele>113.134</ele>
        <time>2015-05-24T07:46:45.035Z</time>
      </trkpt>
      <trkpt lat="48.38389" lon="2.52109">
        <ele>115.481</ele>
        <time>2015-05-24T07:46:50.977Z</time>
      </trkpt>
      <trkpt lat="48.38389" lon="2.52109">
        <ele>118.655</ele>
        <time>2015-05-24T07:46:55.981Z</time>
      </trkpt>
      <trkpt lat="48.38389" lon="2.52109">
        <ele>119.932</ele>
        <time>2015-05-24T07:47:22.985Z</time>
      </trkpt>
      <trkpt lat="48.38389" lon="2.52109">
        <ele>119.5</ele>
        <time>2015-05-24T07:47:23.085Z</time>
      </trkpt>
      <trkpt lat="48.38383" lon="2.52119">
        <ele>119.127</ele>
        <time>2015-05-24T07:48:11.603Z</time>
      </trkpt>
      <trkpt lat="48.38377" lon="2.5213">
        <ele>120.377</ele>
        <time>2015-05-24T07:48:21.846Z</time>
      </trkpt>
      <trkpt lat="48.38372" lon="2.52143">
        <ele>122.896</ele>
        <time>2015-05-24T07:48:30.216Z</time>
      </trkpt>
      <trkpt lat="48.38371" lon="2.52158">
        <ele>125.2</ele>
        <time>2015-05-24T07:48:38.704Z</time>
      </trkpt>
      <trkpt lat="48.3837" lon="2.52172">
        <ele>125.594</ele>
        <time>2015-05-24T07:48:47.986Z</time>
      </trkpt>
      <trkpt lat="48.3837" lon="2.52172">
        <ele>124.323</ele>
        <time>2015-05-24T07:49:01.997Z</time>
      </trkpt>
      <trkpt lat="48.3837" lon="2.52172">
        <ele>123.094</ele>
        <time>2015-05-24T07:54:31.677Z</time>
      </trkpt>
      <trkpt lat="48.38378" lon="2.5219">
        <ele>123.046</ele>
        <time>2015-05-24T07:55:12.055Z</time>
      </trkpt>
      <trkpt lat="48.38387" lon="2.52191">
        <ele>123.306</ele>
        <time>2015-05-24T07:55:26.262Z</time>
      </trkpt>
      <trkpt lat="48.38394" lon="2.52199">
        <ele>122.902</ele>
        <time>2015-05-24T07:55:46.787Z</time>
      </trkpt>
      <trkpt lat="48.38403" lon="2.52215">
        <ele>122.193</ele>
        <time>2015-05-24T07:56:20.382Z</time>
      </trkpt>
      <trkpt lat="48.38407" lon="2.5223">
        <ele>121.447</ele>
        <time>2015-05-24T07:56:40.988Z</time>
      </trkpt>
      <trkpt lat="48.38407" lon="2.5223">
        <ele>120.479</ele>
        <time>2015-05-24T07:56:45.985Z</time>
      </trkpt>
      <trkpt lat="48.38407" lon="2.5223">
        <ele>119.763</ele>
        <time>2015-05-24T07:56:46.085Z</time>
      </trkpt>
      <trkpt lat="48.38406" lon="2.52244">
        <ele>120.052</ele>
        <time>2015-05-24T07:57:04.995Z</time>
      </trkpt>
      <trkpt lat="48.38406" lon="2.52244">
        <ele>120.236</ele>
        <time>2015-05-24T07:57:15.986Z</time>
      </trkpt>
      <trkpt lat="48.38406" lon="2.52244">
        <ele>120.176</ele>
        <time>2015-05-24T07:57:16.086Z</time>
      </trkpt>
      <trkpt lat="48.38404" lon="2.52257">
        <ele>120.01</ele>
        <time>2015-05-24T07:57:48.990Z</time>
      </trkpt>
      <trkpt lat="48.38404" lon="2.52257">
        <ele>120.016</ele>
        <time>2015-05-24T07:58:07.996Z</time>
      </trkpt>
      <trkpt lat="48.38404" lon="2.52257">
        <ele>119.972</ele>
        <time>2015-05-24T07:58:08.096Z</time>
      </trkpt>
      <trkpt lat="48.38415" lon="2.52266">
        <ele>119.906</ele>
        <time>2015-05-24T07:58:24.989Z</time>
      </trkpt>
      <trkpt lat="48.38415" lon="2.52266">
        <ele>119.855</ele>
        <time>2015-05-24T07:58:28.992Z</time>
      </trkpt>
      <trkpt lat="48.38415" lon="2.52266">
        <ele>119.802</ele>
        <time>2015-05-24T07:58:32.428Z</time>
      </trkpt>
      <trkpt lat="48.38415" lon="2.52266">
        <ele>119.717</ele>
        <time>2015-05-24T07:58:44.984Z</time>
      </trkpt>
      <trkpt lat="48.38415" lon="2.52266">
        <ele>119.693</ele>
        <time>2015-05-24T07:58:45.084Z</time>
      </trkpt>
      <trkpt lat="48.38415" lon="2.52266">
        <ele>119.606</ele>
        <time>2015-05-24T07:58:47.988Z</time>
      </trkpt>
      <trkpt lat="48.38415" lon="2.52266">
        <ele>119.57</ele>
        <time>2015-05-24T07:58:48.088Z</time>
      </trkpt>
      <trkpt lat="48.38418" lon="2.5228">
        <ele>119.533</ele>
        <time>2015-05-24T07:59:35.995Z</time>
      </trkpt>
      <trkpt lat="48.38418" lon="2.5228">
        <ele>119.484</ele>
        <time>2015-05-24T08:00:00.991Z</time>
      </trkpt>
      <trkpt lat="48.38418" lon="2.5228">
        <ele>119.426</ele>
        <time>2015-05-24T08:00:47.985Z</time>
      </trkpt>
      <trkpt lat="48.38418" lon="2.5228">
        <ele>119.374</ele>
        <time>2015-05-24T08:00:48.085Z</time>
      </trkpt>
      <trkpt lat="48.38432" lon="2.52291">
        <ele>119.337</ele>
        <time>2015-05-24T08:01:08.496Z</time>
      </trkpt>
      <trkpt lat="48.38441" lon="2.52293">
        <ele>117.688</ele>
        <time>2015-05-24T08:01:14.984Z</time>
      </trkpt>
      <trkpt lat="48.38441" lon="2.52293">
        <ele>113.449</ele>
        <time>2015-05-24T08:01:22.010Z</time>
      </trkpt>
      <trkpt lat="48.38441" lon="2.52293">
        <ele>109.904</ele>
        <time>2015-05-24T08:01:22.110Z</time>
      </trkpt>
      <trkpt lat="48.38441" lon="2.52293">
        <ele>111.735</ele>
        <time>2015-05-24T08:01:33.986Z</time>
      </trkpt>
      <trkpt lat="48.38441" lon="2.52293">
        <ele>112.859</ele>
        <time>2015-05-24T08:01:34.086Z</time>
      </trkpt>
      <trkpt lat="48.38441" lon="2.52293">
        <ele>112.108</ele>
        <time>2015-05-24T08:01:36.984Z</time>
      </trkpt>
      <trkpt lat="48.38441" lon="2.52293">
        <ele>111.71</ele>
        <time>2015-05-24T08:01:37.084Z</time>
      </trkpt>
      <trkpt lat="48.38455" lon="2.52303">
        <ele>111.777</ele>
        <time>2015-05-24T08:01:57.792Z</time>
      </trkpt>
      <trkpt lat="48.38464" lon="2.52306">
        <ele>112.33</ele>
        <time>2015-05-24T08:02:04.989Z</time>
      </trkpt>
      <trkpt lat="48.38464" lon="2.52306">
        <ele>113.137</ele>
        <time>2015-05-24T08:02:06.988Z</time>
      </trkpt>
      <trkpt lat="48.38464" lon="2.52306">
        <ele>113.64</ele>
        <time>2015-05-24T08:02:22.094Z</time>
      </trkpt>
      <trkpt lat="48.3847" lon="2.52316">
        <ele>113.247</ele>
        <time>2015-05-24T08:03:23.988Z</time>
      </trkpt>
      <trkpt lat="48.3847" lon="2.52316">
        <ele>113.043</ele>
        <time>2015-05-24T08:03:35.995Z</time>
      </trkpt>
      <trkpt lat="48.3847" lon="2.52316">
        <ele>113.009</ele>
        <time>2015-05-24T08:09:46.637Z</time>
      </trkpt>
      <trkpt lat="48.38487" lon="2.52317">
        <ele>113.057</ele>
        <time>2015-05-24T08:10:35.076Z</time>
      </trkpt>
      <trkpt lat="48.38496" lon="2.5232">
        <ele>113.106</ele>
        <time>2015-05-24T08:10:44.372Z</time>
      </trkpt>
      <trkpt lat="48.38505" lon="2.52316">
        <ele>113.348</ele>
        <time>2015-05-24T08:10:52.001Z</time>
      </trkpt>
      <trkpt lat="48.38505" lon="2.52316">
        <ele>113.71</ele>
        <time>2015-05-24T08:10:53.994Z</time>
      </trkpt>
      <trkpt lat="48.38505" lon="2.52316">
        <ele>113.802</ele>
        <time>2015-05-24T08:11:27.497Z</time>
      </trkpt>
      <trkpt lat="48.38514" lon="2.52312">
        <ele>113.576</ele>
        <time>2015-05-24T08:12:17.996Z</time>
      </trkpt>
      <trkpt lat="48.38514" lon="2.52312">
        <ele>113.554</ele>
        <time>2015-05-24T08:12:29.004Z</time>
      </trkpt>
      <trkpt lat="48.38514" lon="2.52312">
        <ele>113.543</ele>
        <time>2015-05-24T08:12:29.104Z</time>
      </trkpt>
      <trkpt lat="48.38525" lon="2.52311">
        <ele>113.503</ele>
        <time>2015-05-24T08:12:52.000Z</time>
      </trkpt>
      <trkpt lat="48.38525" lon="2.52311">
        <ele>113.446</ele>
        <time>2015-05-24T08:13:05.007Z</time>
      </trkpt>
      <trkpt lat="48.38525" lon="2.52311">
        <ele>113.389</ele>
        <time>2015-05-24T08:13:05.107Z</time>
      </trkpt>
      <trkpt lat="48.38534" lon="2.52305">
        <ele>113.342</ele>
        <time>2015-05-24T08:13:18.857Z</time>
      </trkpt>
      <trkpt lat="48.38544" lon="2.52303">
        <ele>112.791</ele>
        <time>2015-05-24T08:13:26.001Z</time>
      </trkpt>
      <trkpt lat="48.38544" lon="2.52303">
        <ele>111.423</ele>
        <time>2015-05-24T08:13:34.004Z</time>
      </trkpt>
      <trkpt lat="48.38544" lon="2.52303">
        <ele>110.272</ele>
        <time>2015-05-24T08:13:34.104Z</time>
      </trkpt>
      <trkpt lat="48.38554" lon="2.52296">
        <ele>110.246</ele>
        <time>2015-05-24T08:13:50.996Z</time>
      </trkpt>
      <trkpt lat="48.38554" lon="2.52296">
        <ele>110.635</ele>
        <time>2015-05-24T08:14:07.006Z</time>
      </trkpt>
      <trkpt lat="48.38554" lon="2.52296">
        <ele>110.634</ele>
        <time>2015-05-24T08:14:07.106Z</time>
      </trkpt>
      <trkpt lat="48.38567" lon="2.52289">
        <ele>110.359</ele>
        <time>2015-05-24T08:14:21.174Z</time>
      </trkpt>
      <trkpt lat="48.38577" lon="2.52287">
        <ele>108.107</ele>
        <time>2015-05-24T08:14:27.004Z</time>
      </trkpt>
      <trkpt lat="48.38577" lon="2.52287">
        <ele>102.703</ele>
        <time>2015-05-24T08:14:29.009Z</time>
      </trkpt>
      <trkpt lat="48.38577" lon="2.52287">
        <ele>98.238</ele>
        <time>2015-05-24T08:14:30.152Z</time>
      </trkpt>
      <trkpt lat="48.38585" lon="2.52293">
        <ele>100.586</ele>
        <time>2015-05-24T08:14:44.009Z</time>
      </trkpt>
      <trkpt lat="48.38585" lon="2.52293">
        <ele>102.016</ele>
        <time>2015-05-24T08:14:53.001Z</time>
      </trkpt>
      <trkpt lat="48.38585" lon="2.52293">
        <ele>101.892</ele>
        <time>2015-05-24T08:14:53.101Z</time>
      </trkpt>
      <trkpt lat="48.38599" lon="2.52308">
        <ele>101.099</ele>
        <time>2015-05-24T08:16:00.736Z</time>
      </trkpt>
      <trkpt lat="48.38609" lon="2.52312">
        <ele>99.149</ele>
        <time>2015-05-24T08:16:08.755Z</time>
      </trkpt>
      <trkpt lat="48.38619" lon="2.52308">
        <ele>95.094</ele>
        <time>2015-05-24T08:16:17.325Z</time>
      </trkpt>
      <trkpt lat="48.38628" lon="2.52306">
        <ele>90.309</ele>
        <time>2015-05-24T08:16:25.007Z</time>
      </trkpt>
      <trkpt lat="48.38628" lon="2.52306">
        <ele>86.785</ele>
        <time>2015-05-24T08:16:33.006Z</time>
      </trkpt>
      <trkpt lat="48.38628" lon="2.52306">
        <ele>85.222</ele>
        <time>2015-05-24T08:17:14.013Z</time>
      </trkpt>
      <trkpt lat="48.38628" lon="2.52306">
        <ele>85.379</ele>
        <time>2015-05-24T08:17:14.113Z</time>
      </trkpt>
      <trkpt lat="48.38642" lon="2.52306">
        <ele>85.904</ele>
        <time>2015-05-24T08:17:26.003Z</time>
      </trkpt>
      <trkpt lat="48.38642" lon="2.52306">
        <ele>85.854</ele>
        <time>2015-05-24T08:17:27.003Z</time>
      </trkpt>
      <trkpt lat="48.38642" lon="2.52306">
        <ele>85.538</ele>
        <time>2015-05-24T08:17:27.580Z</time>
      </trkpt>
      <trkpt lat="48.38652" lon="2.52306">
        <ele>85.607</ele>
        <time>2015-05-24T08:17:44.176Z</time>
      </trkpt>
      <trkpt lat="48.38662" lon="2.5231">
        <ele>85.243</ele>
        <time>2015-05-24T08:17:51.016Z</time>
      </trkpt>
      <trkpt lat="48.38662" lon="2.5231">
        <ele>84.043</ele>
        <time>2015-05-24T08:17:51.016Z</time>
      </trkpt>
      <trkpt lat="48.38662" lon="2.5231">
        <ele>82.994</ele>
        <time>2015-05-24T08:18:02.920Z</time>
      </trkpt>
      <trkpt lat="48.38671" lon="2.52312">
        <ele>83.486</ele>
        <time>2015-05-24T08:18:23.364Z</time>
      </trkpt>
      <trkpt lat="48.38681" lon="2.52316">
        <ele>83.547</ele>
        <time>2015-05-24T08:18:33.425Z</time>
      </trkpt>
      <trkpt lat="48.38691" lon="2.52319">
        <ele>82.59</ele>
        <time>2015-05-24T08:18:44.383Z</time>
      </trkpt>
      <trkpt lat="48.387" lon="2.52316">
        <ele>81.066</ele>
        <time>2015-05-24T08:18:54.412Z</time>
      </trkpt>
      <trkpt lat="48.3871" lon="2.52314">
        <ele>79.947</ele>
        <time>2015-05-24T08:19:02.495Z</time>
      </trkpt>
      <trkpt lat="48.38719" lon="2.52315">
        <ele>78.054</ele>
        <time>2015-05-24T08:19:09.150Z</time>
      </trkpt>
      <trkpt lat="48.38728" lon="2.52315">
        <ele>75.141</ele>
        <time>2015-05-24T08:19:17.040Z</time>
      </trkpt>
      <trkpt lat="48.38738" lon="2.52313">
        <ele>73.758</ele>
        <time>2015-05-24T08:19:26.584Z</time>
      </trkpt>
      <trkpt lat="48.38746" lon="2.52306">
        <ele>74.494</ele>
        <time>2015-05-24T08:19:38.279Z</time>
      </trkpt>
      <trkpt lat="48.38749" lon="2.5229">
        <ele>76.436</ele>
        <time>2015-05-24T08:19:57.447Z</time>
      </trkpt>
      <trkpt lat="48.38756" lon="2.52281">
        <ele>79.77</ele>
        <time>2015-05-24T08:20:14.493Z</time>
      </trkpt>
      <trkpt lat="48.38764" lon="2.52273">
        <ele>83.316</ele>
        <time>2015-05-24T08:20:27.004Z</time>
      </trkpt>
      <trkpt lat="48.38764" lon="2.52273">
        <ele>85.555</ele>
        <time>2015-05-24T08:20:35.002Z</time>
      </trkpt>
      <trkpt lat="48.38764" lon="2.52273">
        <ele>86.316</ele>
        <time>2015-05-24T08:20:35.102Z</time>
      </trkpt>
      <trkpt lat="48.38786" lon="2.52256">
        <ele>85.827</ele>
        <time>2015-05-24T08:21:28.995Z</time>
      </trkpt>
      <trkpt lat="48.38786" lon="2.52256">
        <ele>84.917</ele>
        <time>2015-05-24T08:21:32.002Z</time>
      </trkpt>
      <trkpt lat="48.38786" lon="2.52256">
        <ele>84.548</ele>
        <time>2015-05-24T08:21:32.102Z</time>
      </trkpt>
      <trkpt lat="48.38805" lon="2.52265">
        <ele>84.801</ele>
        <time>2015-05-24T08:22:15.995Z</time>
      </trkpt>
      <trkpt lat="48.38805" lon="2.52265">
        <ele>85.116</ele>
        <time>2015-05-24T08:22:21.002Z</time>
      </trkpt>
      <trkpt lat="48.38805" lon="2.52265">
        <ele>85.201</ele>
        <time>2015-05-24T08:22:21.102Z</time>
      </trkpt>
      <trkpt lat="48.38816" lon="2.52267">
        <ele>85.1</ele>
        <time>2015-05-24T08:22:42.577Z</time>
      </trkpt>
      <trkpt lat="48.38825" lon="2.52268">
        <ele>86.11</ele>
        <time>2015-05-24T08:22:52.002Z</time>
      </trkpt>
      <trkpt lat="48.38825" lon="2.52268">
        <ele>88.902</ele>
        <time>2015-05-24T08:22:58.998Z</time>
      </trkpt>
      <trkpt lat="48.38825" lon="2.52268">
        <ele>91.238</ele>
        <time>2015-05-24T08:23:18.519Z</time>
      </trkpt>
      <trkpt lat="48.38846" lon="2.52264">
        <ele>91.163</ele>
        <time>2015-05-24T08:23:54.000Z</time>
      </trkpt>
      <trkpt lat="48.38846" lon="2.52264">
        <ele>90.195</ele>
        <time>2015-05-24T08:24:12.013Z</time>
      </trkpt>
      <trkpt lat="48.38846" lon="2.52264">
        <ele>90.067</ele>
        <time>2015-05-24T08:24:12.113Z</time>
      </trkpt>
      <trkpt lat="48.38858" lon="2.52262">
        <ele>90.559</ele>
        <time>2015-05-24T08:24:36.755Z</time>
      </trkpt>
      <trkpt lat="48.38867" lon="2.52266">
        <ele>94.126</ele>
        <time>2015-05-24T08:24:51.312Z</time>
      </trkpt>
      <trkpt lat="48.38873" lon="2.52277">
        <ele>103.121</ele>
        <time>2015-05-24T08:25:11.308Z</time>
      </trkpt>
      <trkpt lat="48.38881" lon="2.52283">
        <ele>113.17</ele>
        <time>2015-05-24T08:25:30.550Z</time>
      </trkpt>
      <trkpt lat="48.38891" lon="2.52282">
        <ele>119.215</ele>
        <time>2015-05-24T08:25:46.716Z</time>
      </trkpt>
      <trkpt lat="48.389" lon="2.52281">
        <ele>121.264</ele>
        <time>2015-05-24T08:26:00.266Z</time>
      </trkpt>
      <trkpt lat="48.3891" lon="2.52281">
        <ele>121.139</ele>
        <time>2015-05-24T08:26:14.009Z</time>
      </trkpt>
      <trkpt lat="48.3891" lon="2.52281">
        <ele>120.753</ele>
        <time>2015-05-24T08:26:39.015Z</time>
      </trkpt>
      <trkpt lat="48.3891" lon="2.52281">
        <ele>120.812</ele>
        <time>2015-05-24T08:27:14.227Z</time>
      </trkpt>
      <trkpt lat="48.38923" lon="2.52268">
        <ele>120.929</ele>
        <time>2015-05-24T08:28:41.391Z</time>
      </trkpt>
      <trkpt lat="48.38931" lon="2.52261">
        <ele>120.947</ele>
        <time>2015-05-24T08:28:59.366Z</time>
      </trkpt>
      <trkpt lat="48.38936" lon="2.5225">
        <ele>120.528</ele>
        <time>2015-05-24T08:29:15.016Z</time>
      </trkpt>
      <trkpt lat="48.38936" lon="2.5225">
        <ele>119.598</ele>
        <time>2015-05-24T08:29:41.014Z</time>
      </trkpt>
      <trkpt lat="48.38936" lon="2.5225">
        <ele>118.859</ele>
        <time>2015-05-24T08:29:41.114Z</time>
      </trkpt>
      <trkpt lat="48.38937" lon="2.5223">
        <ele>118.829</ele>
        <time>2015-05-24T08:30:30.674Z</time>
      </trkpt>
      <trkpt lat="48.38935" lon="2.52216">
        <ele>117.773</ele>
        <time>2015-05-24T08:30:43.233Z</time>
      </trkpt>
      <trkpt lat="48.38936" lon="2.52201">
        <ele>113.88</ele>
        <time>2015-05-24T08:30:55.863Z</time>
      </trkpt>
      <trkpt lat="48.38939" lon="2.52188">
        <ele>108.86</ele>
        <time>2015-05-24T08:31:08.249Z</time>
      </trkpt>
      <trkpt lat="48.3894" lon="2.52175">
        <ele>104.46</ele>
        <time>2015-05-24T08:31:24.013Z</time>
      </trkpt>
      <trkpt lat="48.3894" lon="2.52175">
        <ele>100.381</ele>
        <time>2015-05-24T08:31:39.001Z</time>
      </trkpt>
      <trkpt lat="48.3894" lon="2.52175">
        <ele>97.841</ele>
        <time>2015-05-24T08:31:39.101Z</time>
      </trkpt>
      <trkpt lat="48.38946" lon="2.52159">
        <ele>97.948</ele>
        <time>2015-05-24T08:32:00.599Z</time>
      </trkpt>
      <trkpt lat="48.38953" lon="2.5215">
        <ele>98.646</ele>
        <time>2015-05-24T08:32:07.722Z</time>
      </trkpt>
      <trkpt lat="48.38957" lon="2.52136">
        <ele>97.87</ele>
        <time>2015-05-24T08:32:15.016Z</time>
      </trkpt>
      <trkpt lat="48.38957" lon="2.52136">
        <ele>96.332</ele>
        <time>2015-05-24T08:32:18.008Z</time>
      </trkpt>
      <trkpt lat="48.38957" lon="2.52136">
        <ele>95.592</ele>
        <time>2015-05-24T08:32:18.384Z</time>
      </trkpt>
      <trkpt lat="48.38959" lon="2.52121">
        <ele>96.015</ele>
        <time>2015-05-24T08:32:41.197Z</time>
      </trkpt>
      <trkpt lat="48.38966" lon="2.52112">
        <ele>95.757</ele>
        <time>2015-05-24T08:32:53.474Z</time>
      </trkpt>
      <trkpt lat="48.38971" lon="2.52099">
        <ele>93.608</ele>
        <time>2015-05-24T08:33:05.505Z</time>
      </trkpt>
      <trkpt lat="48.38972" lon="2.52084">
        <ele>89.352</ele>
        <time>2015-05-24T08:33:15.994Z</time>
      </trkpt>
      <trkpt lat="48.38975" lon="2.5207">
        <ele>85.071</ele>
        <time>2015-05-24T08:33:24.744Z</time>
      </trkpt>
      <trkpt lat="48.38982" lon="2.52062">
        <ele>82.834</ele>
        <time>2015-05-24T08:33:31.714Z</time>
      </trkpt>
      <trkpt lat="48.38991" lon="2.52057">
        <ele>82.613</ele>
        <time>2015-05-24T08:33:38.014Z</time>
      </trkpt>
      <trkpt lat="48.38991" lon="2.52057">
        <ele>83.03</ele>
        <time>2015-05-24T08:33:40.011Z</time>
      </trkpt>
      <trkpt lat="48.38991" lon="2.52057">
        <ele>83.062</ele>
        <time>2015-05-24T08:33:44.936Z</time>
      </trkpt>
      <trkpt lat="48.38999" lon="2.5205">
        <ele>82.768</ele>
        <time>2015-05-24T08:34:01.351Z</time>
      </trkpt>
      <trkpt lat="48.39008" lon="2.52048">
        <ele>82.415</ele>
        <time>2015-05-24T08:34:08.268Z</time>
      </trkpt>
      <trkpt lat="48.39017" lon="2.52046">
        <ele>80.601</ele>
        <time>2015-05-24T08:34:14.020Z</time>
      </trkpt>
      <trkpt lat="48.39017" lon="2.52046">
        <ele>78.246</ele>
        <time>2015-05-24T08:34:21.022Z</time>
      </trkpt>
      <trkpt lat="48.39017" lon="2.52046">
        <ele>77.423</ele>
        <time>2015-05-24T08:34:21.122Z</time>
      </trkpt>
      <trkpt lat="48.3903" lon="2.52045">
        <ele>78.111</ele>
        <time>2015-05-24T08:35:10.205Z</time>
      </trkpt>
      <trkpt lat="48.3904" lon="2.52045">
        <ele>78.218</ele>
        <time>2015-05-24T08:35:18.898Z</time>
      </trkpt>
      <trkpt lat="48.39049" lon="2.52042">
        <ele>76.896</ele>
        <time>2015-05-24T08:35:27.057Z</time>
      </trkpt>
      <trkpt lat="48.39059" lon="2.52043">
        <ele>73.228</ele>
        <time>2015-05-24T08:35:38.272Z</time>
      </trkpt>
      <trkpt lat="48.39068" lon="2.52044">
        <ele>69.16</ele>
        <time>2015-05-24T08:35:47.013Z</time>
      </trkpt>
      <trkpt lat="48.39068" lon="2.52044">
        <ele>67.21</ele>
        <time>2015-05-24T08:35:50.027Z</time>
      </trkpt>
      <trkpt lat="48.39068" lon="2.52044">
        <ele>67.389</ele>
        <time>2015-05-24T08:35:50.127Z</time>
      </trkpt>
      <trkpt lat="48.39078" lon="2.5205">
        <ele>68.341</ele>
        <time>2015-05-24T08:36:16.051Z</time>
      </trkpt>
      <trkpt lat="48.39087" lon="2.52053">
        <ele>68.737</ele>
        <time>2015-05-24T08:36:26.424Z</time>
      </trkpt>
      <trkpt lat="48.39097" lon="2.52051">
        <ele>68.558</ele>
        <time>2015-05-24T08:36:37.073Z</time>
      </trkpt>
      <trkpt lat="48.39106" lon="2.52055">
        <ele>69.774</ele>
        <time>2015-05-24T08:36:46.849Z</time>
      </trkpt>
      <trkpt lat="48.39115" lon="2.52058">
        <ele>73.239</ele>
        <time>2015-05-24T08:36:57.873Z</time>
      </trkpt>
      <trkpt lat="48.39124" lon="2.52061">
        <ele>76.661</ele>
        <time>2015-05-24T08:37:08.972Z</time>
      </trkpt>
      <trkpt lat="48.39133" lon="2.52068">
        <ele>77.932</ele>
        <time>2015-05-24T08:37:19.936Z</time>
      </trkpt>
      <trkpt lat="48.3914" lon="2.52076">
        <ele>77.66</ele>
        <time>2015-05-24T08:37:29.367Z</time>
      </trkpt>
      <trkpt lat="48.3915" lon="2.5208">
        <ele>77.219</ele>
        <time>2015-05-24T08:37:38.238Z</time>
      </trkpt>
      <trkpt lat="48.39159" lon="2.52087">
        <ele>77.044</ele>
        <time>2015-05-24T08:37:47.652Z</time>
      </trkpt>
      <trkpt lat="48.39165" lon="2.52096">
        <ele>76.932</ele>
        <time>2015-05-24T08:37:58.242Z</time>
      </trkpt>
      <trkpt lat="48.39172" lon="2.52105">
        <ele>76.502</ele>
        <time>2015-05-24T08:38:10.811Z</time>
      </trkpt>
      <trkpt lat="48.3918" lon="2.52113">
        <ele>75.877</ele>
        <time>2015-05-24T08:38:24.595Z</time>
      </trkpt>
      <trkpt lat="48.39188" lon="2.52107">
        <ele>75.957</ele>
        <time>2015-05-24T08:38:37.395Z</time>
      </trkpt>
      <trkpt lat="48.39197" lon="2.52101">
        <ele>77.784</ele>
        <time>2015-05-24T08:38:49.188Z</time>
      </trkpt>
      <trkpt lat="48.39205" lon="2.52093">
        <ele>81.122</ele>
        <time>2015-05-24T08:39:01.962Z</time>
      </trkpt>
      <trkpt lat="48.3921" lon="2.52082">
        <ele>83.162</ele>
        <time>2015-05-24T08:39:16.564Z</time>
      </trkpt>
      <trkpt lat="48.39217" lon="2.52071">
        <ele>81.953</ele>
        <time>2015-05-24T08:39:30.869Z</time>
      </trkpt>
      <trkpt lat="48.39224" lon="2.5206">
        <ele>80.157</ele>
        <time>2015-05-24T08:39:46.977Z</time>
      </trkpt>
      <trkpt lat="48.39231" lon="2.5205">
        <ele>81.383</ele>
        <time>2015-05-24T08:40:01.330Z</time>
      </trkpt>
      <trkpt lat="48.39235" lon="2.52037">
        <ele>86.314</ele>
        <time>2015-05-24T08:40:12.880Z</time>
      </trkpt>
      <trkpt lat="48.39239" lon="2.52025">
        <ele>92.476</ele>
        <time>2015-05-24T08:40:20.822Z</time>
      </trkpt>
      <trkpt lat="48.39244" lon="2.52014">
        <ele>95.759</ele>
        <time>2015-05-24T08:40:28.739Z</time>
      </trkpt>
      <trkpt lat="48.39251" lon="2.52004">
        <ele>94.585</ele>
        <time>2015-05-24T08:40:38.229Z</time>
      </trkpt>
      <trkpt lat="48.39253" lon="2.5199">
        <ele>91.492</ele>
        <time>2015-05-24T08:40:50.019Z</time>
      </trkpt>
      <trkpt lat="48.39253" lon="2.5199">
        <ele>89.631</ele>
        <time>2015-05-24T08:40:53.021Z</time>
      </trkpt>
      <trkpt lat="48.39253" lon="2.5199">
        <ele>89.712</ele>
        <time>2015-05-24T08:40:53.121Z</time>
      </trkpt>
      <trkpt lat="48.39258" lon="2.51973">
        <ele>90.628</ele>
        <time>2015-05-24T08:41:11.257Z</time>
      </trkpt>
      <trkpt lat="48.39264" lon="2.51963">
        <ele>91.566</ele>
        <time>2015-05-24T08:41:22.447Z</time>
      </trkpt>
      <trkpt lat="48.39267" lon="2.5195">
        <ele>93.238</ele>
        <time>2015-05-24T08:41:34.523Z</time>
      </trkpt>
      <trkpt lat="48.39273" lon="2.5194">
        <ele>96.39</ele>
        <time>2015-05-24T08:41:43.507Z</time>
      </trkpt>
      <trkpt lat="48.39282" lon="2.51932">
        <ele>100.031</ele>
        <time>2015-05-24T08:41:51.999Z</time>
      </trkpt>
      <trkpt lat="48.39288" lon="2.51921">
        <ele>102.424</ele>
        <time>2015-05-24T08:42:01.845Z</time>
      </trkpt>
      <trkpt lat="48.39295" lon="2.51911">
        <ele>103.193</ele>
        <time>2015-05-24T08:42:10.208Z</time>
      </trkpt>
      <trkpt lat="48.39304" lon="2.51904">
        <ele>103.224</ele>
        <time>2015-05-24T08:42:18.019Z</time>
      </trkpt>
      <trkpt lat="48.39304" lon="2.51904">
        <ele>103.265</ele>
        <time>2015-05-24T08:42:33.024Z</time>
      </trkpt>
      <trkpt lat="48.39304" lon="2.51904">
        <ele>103.361</ele>
        <time>2015-05-24T08:42:33.124Z</time>
      </trkpt>
      <trkpt lat="48.39316" lon="2.51895">
        <ele>103.32</ele>
        <time>2015-05-24T08:42:52.143Z</time>
      </trkpt>
      <trkpt lat="48.39322" lon="2.51886">
        <ele>103.205</ele>
        <time>2015-05-24T08:43:01.382Z</time>
      </trkpt>
      <trkpt lat="48.39332" lon="2.51887">
        <ele>103.328</ele>
        <time>2015-05-24T08:43:12.055Z</time>
      </trkpt>
      <trkpt lat="48.39341" lon="2.51879">
        <ele>105.579</ele>
        <time>2015-05-24T08:43:23.754Z</time>
      </trkpt>
      <trkpt lat="48.39349" lon="2.51871">
        <ele>110.697</ele>
        <time>2015-05-24T08:43:32.580Z</time>
      </trkpt>
      <trkpt lat="48.39354" lon="2.5186">
        <ele>113.699</ele>
        <time>2015-05-24T08:43:40.726Z</time>
      </trkpt>
      <trkpt lat="48.39356" lon="2.51845">
        <ele>110.801</ele>
        <time>2015-05-24T08:43:51.248Z</time>
      </trkpt>
      <trkpt lat="48.39359" lon="2.51829">
        <ele>105.754</ele>
        <time>2015-05-24T08:44:01.816Z</time>
      </trkpt>
      <trkpt lat="48.39366" lon="2.51819">
        <ele>103.142</ele>
        <time>2015-05-24T08:44:12.520Z</time>
      </trkpt>
      <trkpt lat="48.39373" lon="2.51803">
        <ele>103.754</ele>
        <time>2015-05-24T08:44:29.438Z</time>
      </trkpt>
      <trkpt lat="48.39384" lon="2.5179">
        <ele>106.209</ele>
        <time>2015-05-24T08:44:53.735Z</time>
      </trkpt>
      <trkpt lat="48.39389" lon="2.51776">
        <ele>108.386</ele>
        <time>2015-05-24T08:45:05.072Z</time>
      </trkpt>
      <trkpt lat="48.39395" lon="2.51762">
        <ele>109.177</ele>
        <time>2015-05-24T08:45:14.285Z</time>
      </trkpt>
      <trkpt lat="48.39397" lon="2.51748">
        <ele>108.682</ele>
        <time>2015-05-24T08:45:21.790Z</time>
      </trkpt>
      <trkpt lat="48.39402" lon="2.51734">
        <ele>106.271</ele>
        <time>2015-05-24T08:45:30.290Z</time>
      </trkpt>
      <trkpt lat="48.39408" lon="2.51723">
        <ele>101.366</ele>
        <time>2015-05-24T08:45:39.397Z</time>
      </trkpt>
      <trkpt lat="48.39417" lon="2.51715">
        <ele>95.905</ele>
        <time>2015-05-24T08:45:51.188Z</time>
      </trkpt>
      <trkpt lat="48.39426" lon="2.51713">
        <ele>93.221</ele>
        <time>2015-05-24T08:46:02.022Z</time>
      </trkpt>
      <trkpt lat="48.39426" lon="2.51713">
        <ele>93.961</ele>
        <time>2015-05-24T08:46:08.025Z</time>
      </trkpt>
      <trkpt lat="48.39426" lon="2.51713">
        <ele>95.459</ele>
        <time>2015-05-24T08:46:08.125Z</time>
      </trkpt>
      <trkpt lat="48.39436" lon="2.51708">
        <ele>94.635</ele>
        <time>2015-05-24T08:46:23.625Z</time>
      </trkpt>
      <trkpt lat="48.39449" lon="2.51703">
        <ele>95.226</ele>
        <time>2015-05-24T08:46:31.022Z</time>
      </trkpt>
      <trkpt lat="48.39449" lon="2.51703">
        <ele>98.241</ele>
        <time>2015-05-24T08:46:45.029Z</time>
      </trkpt>
      <trkpt lat="48.39449" lon="2.51703">
        <ele>100.932</ele>
        <time>2015-05-24T08:46:45.129Z</time>
      </trkpt>
      <trkpt lat="48.39459" lon="2.51691">
        <ele>100.846</ele>
        <time>2015-05-24T08:47:14.722Z</time>
      </trkpt>
      <trkpt lat="48.39456" lon="2.51678">
        <ele>99.333</ele>
        <time>2015-05-24T08:47:24.855Z</time>
      </trkpt>
      <trkpt lat="48.39448" lon="2.5167">
        <ele>98.804</ele>
        <time>2015-05-24T08:47:32.642Z</time>
      </trkpt>
      <trkpt lat="48.39441" lon="2.51663">
        <ele>100.642</ele>
        <time>2015-05-24T08:47:40.018Z</time>
      </trkpt>
      <trkpt lat="48.39441" lon="2.51663">
        <ele>104.101</ele>
        <time>2015-05-24T08:47:49.025Z</time>
      </trkpt>
      <trkpt lat="48.39441" lon="2.51663">
        <ele>106.423</ele>
        <time>2015-05-24T08:47:49.125Z</time>
      </trkpt>
      <trkpt lat="48.39432" lon="2.51654">
        <ele>106.274</ele>
        <time>2015-05-24T08:48:07.980Z</time>
      </trkpt>
      <trkpt lat="48.39425" lon="2.51645">
        <ele>105.494</ele>
        <time>2015-05-24T08:48:15.656Z</time>
      </trkpt>
      <trkpt lat="48.39426" lon="2.5163">
        <ele>106.036</ele>
        <time>2015-05-24T08:48:22.020Z</time>
      </trkpt>
      <trkpt lat="48.39426" lon="2.5163">
        <ele>107.312</ele>
        <time>2015-05-24T08:48:30.024Z</time>
      </trkpt>
      <trkpt lat="48.39426" lon="2.5163">
        <ele>107.914</ele>
        <time>2015-05-24T08:54:39.031Z</time>
      </trkpt>
      <trkpt lat="48.39426" lon="2.5163">
        <ele>107.739</ele>
        <time>2015-05-24T08:54:56.721Z</time>
      </trkpt>
      <trkpt lat="48.39426" lon="2.5163">
        <ele>107.487</ele>
        <time>2015-05-24T08:55:18.033Z</time>
      </trkpt>
      <trkpt lat="48.39426" lon="2.5163">
        <ele>107.592</ele>
        <time>2015-05-24T08:55:18.133Z</time>
      </trkpt>
      <trkpt lat="48.39427" lon="2.51646">
        <ele>107.559</ele>
        <time>2015-05-24T08:55:34.756Z</time>
      </trkpt>
      <trkpt lat="48.39434" lon="2.51656">
        <ele>107.659</ele>
        <time>2015-05-24T08:55:46.031Z</time>
      </trkpt>
      <trkpt lat="48.39434" lon="2.51656">
        <ele>108.14</ele>
        <time>2015-05-24T08:56:01.030Z</time>
      </trkpt>
      <trkpt lat="48.39434" lon="2.51656">
        <ele>108.563</ele>
        <time>2015-05-24T08:56:01.130Z</time>
      </trkpt>
      <trkpt lat="48.39446" lon="2.51662">
        <ele>108.515</ele>
        <time>2015-05-24T08:56:18.840Z</time>
      </trkpt>
      <trkpt lat="48.39454" lon="2.5167">
        <ele>108.556</ele>
        <time>2015-05-24T08:56:27.400Z</time>
      </trkpt>
      <trkpt lat="48.39455" lon="2.51684">
        <ele>109.193</ele>
        <time>2015-05-24T08:56:35.034Z</time>
      </trkpt>
      <trkpt lat="48.39455" lon="2.51684">
        <ele>109.876</ele>
        <time>2015-05-24T08:56:46.028Z</time>
      </trkpt>
      <trkpt lat="48.39455" lon="2.51684">
        <ele>110.012</ele>
        <time>2015-05-24T08:56:46.128Z</time>
      </trkpt>
      <trkpt lat="48.39455" lon="2.51704">
        <ele>109.744</ele>
        <time>2015-05-24T08:57:34.767Z</time>
      </trkpt>
      <trkpt lat="48.3945" lon="2.51716">
        <ele>109.463</ele>
        <time>2015-05-24T08:57:44.301Z</time>
      </trkpt>
      <trkpt lat="48.39445" lon="2.51729">
        <ele>109.291</ele>
        <time>2015-05-24T08:57:52.866Z</time>
      </trkpt>
      <trkpt lat="48.39444" lon="2.51743">
        <ele>109.219</ele>
        <time>2015-05-24T08:58:02.137Z</time>
      </trkpt>
      <trkpt lat="48.39441" lon="2.51758">
        <ele>109.421</ele>
        <time>2015-05-24T08:58:10.906Z</time>
      </trkpt>
      <trkpt lat="48.39435" lon="2.51768">
        <ele>109.901</ele>
        <time>2015-05-24T08:58:18.971Z</time>
      </trkpt>
      <trkpt lat="48.39431" lon="2.5178">
        <ele>110.302</ele>
        <time>2015-05-24T08:58:27.861Z</time>
      </trkpt>
      <trkpt lat="48.39428" lon="2.51793">
        <ele>110.88</ele>
        <time>2015-05-24T08:58:39.217Z</time>
      </trkpt>
      <trkpt lat="48.39429" lon="2.51807">
        <ele>112.642</ele>
        <time>2015-05-24T08:58:51.024Z</time>
      </trkpt>
      <trkpt lat="48.39429" lon="2.51807">
        <ele>115.472</ele>
        <time>2015-05-24T08:58:58.038Z</time>
      </trkpt>
      <trkpt lat="48.39429" lon="2.51807">
        <ele>117.369</ele>
        <time>2015-05-24T08:58:58.138Z</time>
      </trkpt>
      <trkpt lat="48.39431" lon="2.51821">
        <ele>116.187</ele>
        <time>2015-05-24T08:59:22.310Z</time>
      </trkpt>
      <trkpt lat="48.39426" lon="2.51834">
        <ele>115.506</ele>
        <time>2015-05-24T08:59:35.823Z</time>
      </trkpt>
      <trkpt lat="48.39422" lon="2.51847">
        <ele>115.804</ele>
        <time>2015-05-24T08:59:44.754Z</time>
      </trkpt>
      <trkpt lat="48.39421" lon="2.51861">
        <ele>117.311</ele>
        <time>2015-05-24T08:59:53.458Z</time>
      </trkpt>
      <trkpt lat="48.39418" lon="2.51875">
        <ele>119.216</ele>
        <time>2015-05-24T09:00:04.333Z</time>
      </trkpt>
      <trkpt lat="48.39412" lon="2.51887">
        <ele>120.637</ele>
        <time>2015-05-24T09:00:15.092Z</time>
      </trkpt>
      <trkpt lat="48.3941" lon="2.519">
        <ele>121.61</ele>
        <time>2015-05-24T09:00:23.348Z</time>
      </trkpt>
      <trkpt lat="48.39408" lon="2.51916">
        <ele>122.411</ele>
        <time>2015-05-24T09:00:32.912Z</time>
      </trkpt>
      <trkpt lat="48.39404" lon="2.5193">
        <ele>123.066</ele>
        <time>2015-05-24T09:00:41.759Z</time>
      </trkpt>
      <trkpt lat="48.394" lon="2.51943">
        <ele>123.508</ele>
        <time>2015-05-24T09:00:49.237Z</time>
      </trkpt>
      <trkpt lat="48.39398" lon="2.51956">
        <ele>123.717</ele>
        <time>2015-05-24T09:00:57.549Z</time>
      </trkpt>
      <trkpt lat="48.394" lon="2.5197">
        <ele>123.986</ele>
        <time>2015-05-24T09:01:06.105Z</time>
      </trkpt>
      <trkpt lat="48.39399" lon="2.51984">
        <ele>124.749</ele>
        <time>2015-05-24T09:01:14.202Z</time>
      </trkpt>
      <trkpt lat="48.39396" lon="2.51998">
        <ele>125.983</ele>
        <time>2015-05-24T09:01:23.057Z</time>
      </trkpt>
      <trkpt lat="48.39393" lon="2.52012">
        <ele>126.611</ele>
        <time>2015-05-24T09:01:31.746Z</time>
      </trkpt>
      <trkpt lat="48.3939" lon="2.52025">
        <ele>125.904</ele>
        <time>2015-05-24T09:01:39.687Z</time>
      </trkpt>
      <trkpt lat="48.39385" lon="2.52038">
        <ele>124.519</ele>
        <time>2015-05-24T09:01:48.411Z</time>
      </trkpt>
      <trkpt lat="48.39379" lon="2.5205">
        <ele>123.251</ele>
        <time>2015-05-24T09:01:57.377Z</time>
      </trkpt>
      <trkpt lat="48.39374" lon="2.52061">
        <ele>121.923</ele>
        <time>2015-05-24T09:02:07.140Z</time>
      </trkpt>
      <trkpt lat="48.39371" lon="2.52074">
        <ele>120.005</ele>
        <time>2015-05-24T09:02:19.229Z</time>
      </trkpt>
      <trkpt lat="48.39368" lon="2.52088">
        <ele>117.845</ele>
        <time>2015-05-24T09:02:32.322Z</time>
      </trkpt>
      <trkpt lat="48.39365" lon="2.52101">
        <ele>116.427</ele>
        <time>2015-05-24T09:02:41.656Z</time>
      </trkpt>
      <trkpt lat="48.3936" lon="2.52113">
        <ele>115.946</ele>
        <time>2015-05-24T09:02:51.371Z</time>
      </trkpt>
      <trkpt lat="48.39357" lon="2.52127">
        <ele>115.089</ele>
        <time>2015-05-24T09:03:09.035Z</time>
      </trkpt>
      <trkpt lat="48.39357" lon="2.52127">
        <ele>112.985</ele>
        <time>2015-05-24T09:03:13.027Z</time>
      </trkpt>
      <trkpt lat="48.39357" lon="2.52127">
        <ele>111.194</ele>
        <time>2015-05-24T09:03:13.127Z</time>
      </trkpt>
      <trkpt lat="48.39352" lon="2.52139">
        <ele>112.065</ele>
        <time>2015-05-24T09:03:34.794Z</time>
      </trkpt>
      <trkpt lat="48.39345" lon="2.52148">
        <ele>111.777</ele>
        <time>2015-05-24T09:03:43.482Z</time>
      </trkpt>
      <trkpt lat="48.39343" lon="2.52162">
        <ele>109.522</ele>
        <time>2015-05-24T09:03:52.667Z</time>
      </trkpt>
      <trkpt lat="48.39341" lon="2.52177">
        <ele>107.102</ele>
        <time>2015-05-24T09:04:03.292Z</time>
      </trkpt>
      <trkpt lat="48.39335" lon="2.52189">
        <ele>106.21</ele>
        <time>2015-05-24T09:04:15.035Z</time>
      </trkpt>
      <trkpt lat="48.39335" lon="2.52189">
        <ele>106.256</ele>
        <time>2015-05-24T09:04:26.040Z</time>
      </trkpt>
      <trkpt lat="48.39335" lon="2.52189">
        <ele>106.308</ele>
        <time>2015-05-24T09:04:26.140Z</time>
      </trkpt>
      <trkpt lat="48.39333" lon="2.52206">
        <ele>106.205</ele>
        <time>2015-05-24T09:04:53.095Z</time>
      </trkpt>
      <trkpt lat="48.39326" lon="2.52215">
        <ele>105.79</ele>
        <time>2015-05-24T09:05:05.624Z</time>
      </trkpt>
      <trkpt lat="48.39317" lon="2.52219">
        <ele>103.865</ele>
        <time>2015-05-24T09:05:18.136Z</time>
      </trkpt>
      <trkpt lat="48.39309" lon="2.52224">
        <ele>99.875</ele>
        <time>2015-05-24T09:05:31.032Z</time>
      </trkpt>
      <trkpt lat="48.39309" lon="2.52224">
        <ele>95.631</ele>
        <time>2015-05-24T09:05:42.027Z</time>
      </trkpt>
      <trkpt lat="48.39309" lon="2.52224">
        <ele>93.479</ele>
        <time>2015-05-24T09:05:42.127Z</time>
      </trkpt>
      <trkpt lat="48.39298" lon="2.52214">
        <ele>93.976</ele>
        <time>2015-05-24T09:06:09.548Z</time>
      </trkpt>
      <trkpt lat="48.39293" lon="2.52203">
        <ele>95.554</ele>
        <time>2015-05-24T09:06:19.477Z</time>
      </trkpt>
      <trkpt lat="48.39285" lon="2.52195">
        <ele>95.971</ele>
        <time>2015-05-24T09:06:28.501Z</time>
      </trkpt>
      <trkpt lat="48.39275" lon="2.52197">
        <ele>94.778</ele>
        <time>2015-05-24T09:06:36.504Z</time>
      </trkpt>
      <trkpt lat="48.39267" lon="2.52203">
        <ele>92.609</ele>
        <time>2015-05-24T09:06:44.294Z</time>
      </trkpt>
      <trkpt lat="48.3926" lon="2.52213">
        <ele>90.174</ele>
        <time>2015-05-24T09:06:53.953Z</time>
      </trkpt>
      <trkpt lat="48.39253" lon="2.52222">
        <ele>88.58</ele>
        <time>2015-05-24T09:07:06.023Z</time>
      </trkpt>
      <trkpt lat="48.39253" lon="2.52222">
        <ele>88.219</ele>
        <time>2015-05-24T09:07:15.021Z</time>
      </trkpt>
      <trkpt lat="48.39253" lon="2.52222">
        <ele>88.363</ele>
        <time>2015-05-24T09:07:15.121Z</time>
      </trkpt>
      <trkpt lat="48.39246" lon="2.52237">
        <ele>88.504</ele>
        <time>2015-05-24T09:07:27.018Z</time>
      </trkpt>
      <trkpt lat="48.39246" lon="2.52237">
        <ele>88.519</ele>
        <time>2015-05-24T09:07:30.023Z</time>
      </trkpt>
      <trkpt lat="48.39246" lon="2.52237">
        <ele>88.474</ele>
        <time>2015-05-24T09:07:44.191Z</time>
      </trkpt>
      <trkpt lat="48.39244" lon="2.52266">
        <ele>88.429</ele>
        <time>2015-05-24T09:08:37.830Z</time>
      </trkpt>
      <trkpt lat="48.39242" lon="2.52279">
        <ele>89.21</ele>
        <time>2015-05-24T09:08:55.743Z</time>
      </trkpt>
      <trkpt lat="48.39239" lon="2.52292">
        <ele>92.249</ele>
        <time>2015-05-24T09:09:11.717Z</time>
      </trkpt>
      <trkpt lat="48.39235" lon="2.52305">
        <ele>96.881</ele>
        <time>2015-05-24T09:09:25.016Z</time>
      </trkpt>
      <trkpt lat="48.39234" lon="2.52319">
        <ele>100.796</ele>
        <time>2015-05-24T09:09:38.060Z</time>
      </trkpt>
      <trkpt lat="48.3923" lon="2.52332">
        <ele>103.055</ele>
        <time>2015-05-24T09:09:51.906Z</time>
      </trkpt>
      <trkpt lat="48.39222" lon="2.52341">
        <ele>104.377</ele>
        <time>2015-05-24T09:10:05.168Z</time>
      </trkpt>
      <trkpt lat="48.39213" lon="2.52346">
        <ele>105.459</ele>
        <time>2015-05-24T09:10:16.291Z</time>
      </trkpt>
      <trkpt lat="48.39203" lon="2.52348">
        <ele>106.743</ele>
        <time>2015-05-24T09:10:29.752Z</time>
      </trkpt>
      <trkpt lat="48.39194" lon="2.52352">
        <ele>108.239</ele>
        <time>2015-05-24T09:10:48.242Z</time>
      </trkpt>
      <trkpt lat="48.39185" lon="2.52358">
        <ele>109.825</ele>
        <time>2015-05-24T09:11:04.043Z</time>
      </trkpt>
      <trkpt lat="48.39179" lon="2.52368">
        <ele>111.92</ele>
        <time>2015-05-24T09:11:15.026Z</time>
      </trkpt>
      <trkpt lat="48.39179" lon="2.52368">
        <ele>114.589</ele>
        <time>2015-05-24T09:11:24.026Z</time>
      </trkpt>
      <trkpt lat="48.39179" lon="2.52368">
        <ele>116.28</ele>
        <time>2015-05-24T09:11:24.126Z</time>
      </trkpt>
      <trkpt lat="48.39167" lon="2.52378">
        <ele>116.141</ele>
        <time>2015-05-24T09:11:47.814Z</time>
      </trkpt>
      <trkpt lat="48.39161" lon="2.52389">
        <ele>116.147</ele>
        <time>2015-05-24T09:11:56.133Z</time>
      </trkpt>
      <trkpt lat="48.39153" lon="2.52394">
        <ele>117.939</ele>
        <time>2015-05-24T09:12:03.024Z</time>
      </trkpt>
      <trkpt lat="48.39153" lon="2.52394">
        <ele>119.943</ele>
        <time>2015-05-24T09:12:25.021Z</time>
      </trkpt>
      <trkpt lat="48.39153" lon="2.52394">
        <ele>120.415</ele>
        <time>2015-05-24T09:12:28.120Z</time>
      </trkpt>
      <trkpt lat="48.39134" lon="2.52393">
        <ele>119.995</ele>
        <time>2015-05-24T09:17:22.088Z</time>
      </trkpt>
      <trkpt lat="48.39126" lon="2.52387">
        <ele>119.694</ele>
        <time>2015-05-24T09:17:39.315Z</time>
      </trkpt>
      <trkpt lat="48.39116" lon="2.52384">
        <ele>119.825</ele>
        <time>2015-05-24T09:17:50.360Z</time>
      </trkpt>
      <trkpt lat="48.39108" lon="2.52379">
        <ele>119.57</ele>
        <time>2015-05-24T09:18:01.009Z</time>
      </trkpt>
      <trkpt lat="48.39101" lon="2.52368">
        <ele>118.322</ele>
        <time>2015-05-24T09:18:10.283Z</time>
      </trkpt>
      <trkpt lat="48.39093" lon="2.5236">
        <ele>116.639</ele>
        <time>2015-05-24T09:18:17.053Z</time>
      </trkpt>
      <trkpt lat="48.39082" lon="2.52361">
        <ele>115.421</ele>
        <time>2015-05-24T09:18:24.517Z</time>
      </trkpt>
      <trkpt lat="48.39075" lon="2.5237">
        <ele>115.104</ele>
        <time>2015-05-24T09:18:30.533Z</time>
      </trkpt>
      <trkpt lat="48.39068" lon="2.52381">
        <ele>115.951</ele>
        <time>2015-05-24T09:18:37.029Z</time>
      </trkpt>
      <trkpt lat="48.39064" lon="2.52394">
        <ele>117.666</ele>
        <time>2015-05-24T09:18:43.887Z</time>
      </trkpt>
      <trkpt lat="48.39058" lon="2.52404">
        <ele>119.453</ele>
        <time>2015-05-24T09:18:51.845Z</time>
      </trkpt>
      <trkpt lat="48.39052" lon="2.52414">
        <ele>120.47</ele>
        <time>2015-05-24T09:19:01.032Z</time>
      </trkpt>
      <trkpt lat="48.39052" lon="2.52414">
        <ele>120.735</ele>
        <time>2015-05-24T09:19:05.030Z</time>
      </trkpt>
      <trkpt lat="48.39052" lon="2.52414">
        <ele>120.672</ele>
        <time>2015-05-24T09:19:05.130Z</time>
      </trkpt>
      <trkpt lat="48.39042" lon="2.52419">
        <ele>120.57</ele>
        <time>2015-05-24T09:19:32.792Z</time>
      </trkpt>
      <trkpt lat="48.39033" lon="2.52416">
        <ele>120.578</ele>
        <time>2015-05-24T09:19:42.808Z</time>
      </trkpt>
      <trkpt lat="48.39027" lon="2.52428">
        <ele>120.884</ele>
        <time>2015-05-24T09:19:51.054Z</time>
      </trkpt>
      <trkpt lat="48.3903" lon="2.52442">
        <ele>121.386</ele>
        <time>2015-05-24T09:19:58.844Z</time>
      </trkpt>
      <trkpt lat="48.39033" lon="2.52455">
        <ele>121.623</ele>
        <time>2015-05-24T09:20:06.887Z</time>
      </trkpt>
      <trkpt lat="48.39036" lon="2.52468">
        <ele>121.673</ele>
        <time>2015-05-24T09:20:15.871Z</time>
      </trkpt>
      <trkpt lat="48.39037" lon="2.52483">
        <ele>122.204</ele>
        <time>2015-05-24T09:20:24.697Z</time>
      </trkpt>
      <trkpt lat="48.39039" lon="2.52497">
        <ele>123.339</ele>
        <time>2015-05-24T09:20:31.975Z</time>
      </trkpt>
      <trkpt lat="48.39045" lon="2.52508">
        <ele>124.113</ele>
        <time>2015-05-24T09:20:39.619Z</time>
      </trkpt>
      <trkpt lat="48.39042" lon="2.52522">
        <ele>123.755</ele>
        <time>2015-05-24T09:20:47.743Z</time>
      </trkpt>
      <trkpt lat="48.39041" lon="2.52537">
        <ele>123.162</ele>
        <time>2015-05-24T09:20:55.278Z</time>
      </trkpt>
      <trkpt lat="48.39037" lon="2.5255">
        <ele>123.248</ele>
        <time>2015-05-24T09:21:02.845Z</time>
      </trkpt>
      <trkpt lat="48.3903" lon="2.52559">
        <ele>123.693</ele>
        <time>2015-05-24T09:21:10.843Z</time>
      </trkpt>
      <trkpt lat="48.39026" lon="2.52571">
        <ele>123.967</ele>
        <time>2015-05-24T09:21:19.351Z</time>
      </trkpt>
      <trkpt lat="48.39021" lon="2.52583">
        <ele>124.079</ele>
        <time>2015-05-24T09:21:28.515Z</time>
      </trkpt>
      <trkpt lat="48.3902" lon="2.52597">
        <ele>124.305</ele>
        <time>2015-05-24T09:21:37.760Z</time>
      </trkpt>
      <trkpt lat="48.39017" lon="2.5261">
        <ele>124.724</ele>
        <time>2015-05-24T09:21:45.195Z</time>
      </trkpt>
      <trkpt lat="48.39016" lon="2.52624">
        <ele>124.85</ele>
        <time>2015-05-24T09:21:52.237Z</time>
      </trkpt>
      <trkpt lat="48.39016" lon="2.52639">
        <ele>124.366</ele>
        <time>2015-05-24T09:22:00.422Z</time>
      </trkpt>
      <trkpt lat="48.39015" lon="2.52653">
        <ele>123.878</ele>
        <time>2015-05-24T09:22:09.521Z</time>
      </trkpt>
      <trkpt lat="48.39019" lon="2.52665">
        <ele>124.06</ele>
        <time>2015-05-24T09:22:18.704Z</time>
      </trkpt>
      <trkpt lat="48.39021" lon="2.52679">
        <ele>124.71</ele>
        <time>2015-05-24T09:22:27.727Z</time>
      </trkpt>
      <trkpt lat="48.39022" lon="2.52693">
        <ele>125.321</ele>
        <time>2015-05-24T09:22:36.573Z</time>
      </trkpt>
      <trkpt lat="48.39021" lon="2.52707">
        <ele>125.708</ele>
        <time>2015-05-24T09:22:45.827Z</time>
      </trkpt>
      <trkpt lat="48.39014" lon="2.52717">
        <ele>125.89</ele>
        <time>2015-05-24T09:22:58.033Z</time>
      </trkpt>
      <trkpt lat="48.39014" lon="2.52717">
        <ele>125.905</ele>
        <time>2015-05-24T09:23:05.034Z</time>
      </trkpt>
      <trkpt lat="48.39014" lon="2.52717">
        <ele>125.839</ele>
        <time>2015-05-24T09:23:31.835Z</time>
      </trkpt>
      <trkpt lat="48.39021" lon="2.52728">
        <ele>125.745</ele>
        <time>2015-05-24T09:24:00.325Z</time>
      </trkpt>
      <trkpt lat="48.39026" lon="2.5274">
        <ele>124.812</ele>
        <time>2015-05-24T09:24:10.902Z</time>
      </trkpt>
      <trkpt lat="48.39028" lon="2.52755">
        <ele>119.744</ele>
        <time>2015-05-24T09:24:18.101Z</time>
      </trkpt>
      <trkpt lat="48.39026" lon="2.52768">
        <ele>118.152</ele>
        <time>2015-05-24T09:24:24.073Z</time>
      </trkpt>
      <trkpt lat="48.39027" lon="2.52782">
        <ele>117.223</ele>
        <time>2015-05-24T09:24:30.562Z</time>
      </trkpt>
      <trkpt lat="48.3903" lon="2.52796">
        <ele>116.329</ele>
        <time>2015-05-24T09:24:37.757Z</time>
      </trkpt>
      <trkpt lat="48.39028" lon="2.52808">
        <ele>113.939</ele>
        <time>2015-05-24T09:24:45.848Z</time>
      </trkpt>
      <trkpt lat="48.39026" lon="2.52823">
        <ele>109.856</ele>
        <time>2015-05-24T09:24:56.760Z</time>
      </trkpt>
      <trkpt lat="48.39022" lon="2.52837">
        <ele>105.686</ele>
        <time>2015-05-24T09:25:09.949Z</time>
      </trkpt>
      <trkpt lat="48.39019" lon="2.5285">
        <ele>103.177</ele>
        <time>2015-05-24T09:25:21.116Z</time>
      </trkpt>
      <trkpt lat="48.39016" lon="2.52865">
        <ele>102.351</ele>
        <time>2015-05-24T09:25:34.308Z</time>
      </trkpt>
      <trkpt lat="48.39008" lon="2.52876">
        <ele>101.508</ele>
        <time>2015-05-24T09:25:46.921Z</time>
      </trkpt>
      <trkpt lat="48.38999" lon="2.52882">
        <ele>99.375</ele>
        <time>2015-05-24T09:25:58.725Z</time>
      </trkpt>
      <trkpt lat="48.38991" lon="2.5289">
        <ele>96.865</ele>
        <time>2015-05-24T09:26:09.150Z</time>
      </trkpt>
      <trkpt lat="48.38982" lon="2.52894">
        <ele>95.17</ele>
        <time>2015-05-24T09:26:18.031Z</time>
      </trkpt>
      <trkpt lat="48.38982" lon="2.52894">
        <ele>94.352</ele>
        <time>2015-05-24T09:26:20.034Z</time>
      </trkpt>
      <trkpt lat="48.38982" lon="2.52894">
        <ele>94.158</ele>
        <time>2015-05-24T09:26:20.134Z</time>
      </trkpt>
      <trkpt lat="48.38973" lon="2.52892">
        <ele>94.222</ele>
        <time>2015-05-24T09:26:42.985Z</time>
      </trkpt>
      <trkpt lat="48.38963" lon="2.52893">
        <ele>93.89</ele>
        <time>2015-05-24T09:27:02.327Z</time>
      </trkpt>
      <trkpt lat="48.38954" lon="2.52895">
        <ele>92.101</ele>
        <time>2015-05-24T09:27:22.064Z</time>
      </trkpt>
      <trkpt lat="48.38941" lon="2.52904">
        <ele>88.879</ele>
        <time>2015-05-24T09:27:37.008Z</time>
      </trkpt>
      <trkpt lat="48.38935" lon="2.52914">
        <ele>86.45</ele>
        <time>2015-05-24T09:27:47.031Z</time>
      </trkpt>
      <trkpt lat="48.38935" lon="2.52914">
        <ele>86.201</ele>
        <time>2015-05-24T09:27:52.035Z</time>
      </trkpt>
      <trkpt lat="48.38935" lon="2.52914">
        <ele>86.841</ele>
        <time>2015-05-24T09:27:52.135Z</time>
      </trkpt>
      <trkpt lat="48.38929" lon="2.52925">
        <ele>86.983</ele>
        <time>2015-05-24T09:28:15.030Z</time>
      </trkpt>
      <trkpt lat="48.38929" lon="2.52925">
        <ele>86.76</ele>
        <time>2015-05-24T09:28:17.032Z</time>
      </trkpt>
      <trkpt lat="48.38929" lon="2.52925">
        <ele>86.688</ele>
        <time>2015-05-24T09:28:17.132Z</time>
      </trkpt>
      <trkpt lat="48.38905" lon="2.52941">
        <ele>86.772</ele>
        <time>2015-05-24T09:28:37.637Z</time>
      </trkpt>
      <trkpt lat="48.38897" lon="2.52951">
        <ele>88.394</ele>
        <time>2015-05-24T09:28:43.032Z</time>
      </trkpt>
      <trkpt lat="48.38897" lon="2.52951">
        <ele>92.443</ele>
        <time>2015-05-24T09:29:02.033Z</time>
      </trkpt>
      <trkpt lat="48.38897" lon="2.52951">
        <ele>95.78</ele>
        <time>2015-05-24T09:29:04.657Z</time>
      </trkpt>
      <trkpt lat="48.3889" lon="2.5296">
        <ele>95.681</ele>
        <time>2015-05-24T09:29:54.809Z</time>
      </trkpt>
      <trkpt lat="48.38879" lon="2.52965">
        <ele>94.198</ele>
        <time>2015-05-24T09:30:15.831Z</time>
      </trkpt>
      <trkpt lat="48.38871" lon="2.52971">
        <ele>95.94</ele>
        <time>2015-05-24T09:30:28.081Z</time>
      </trkpt>
      <trkpt lat="48.38866" lon="2.52983">
        <ele>102.119</ele>
        <time>2015-05-24T09:30:42.034Z</time>
      </trkpt>
      <trkpt lat="48.38866" lon="2.52983">
        <ele>108.43</ele>
        <time>2015-05-24T09:30:46.032Z</time>
      </trkpt>
      <trkpt lat="48.38866" lon="2.52983">
        <ele>111.022</ele>
        <time>2015-05-24T09:34:12.779Z</time>
      </trkpt>
      <trkpt lat="48.38864" lon="2.53">
        <ele>110.593</ele>
        <time>2015-05-24T09:36:35.049Z</time>
      </trkpt>
      <trkpt lat="48.38864" lon="2.53">
        <ele>109.55</ele>
        <time>2015-05-24T09:37:34.046Z</time>
      </trkpt>
      <trkpt lat="48.38864" lon="2.53">
        <ele>109.442</ele>
        <time>2015-05-24T09:37:34.146Z</time>
      </trkpt>
      <trkpt lat="48.38874" lon="2.53011">
        <ele>109.813</ele>
        <time>2015-05-24T09:38:36.102Z</time>
      </trkpt>
      <trkpt lat="48.38879" lon="2.53022">
        <ele>109.545</ele>
        <time>2015-05-24T09:39:00.530Z</time>
      </trkpt>
      <trkpt lat="48.38886" lon="2.53032">
        <ele>107.662</ele>
        <time>2015-05-24T09:39:25.559Z</time>
      </trkpt>
      <trkpt lat="48.38894" lon="2.53039">
        <ele>103.64</ele>
        <time>2015-05-24T09:39:48.290Z</time>
      </trkpt>
      <trkpt lat="48.38899" lon="2.53052">
        <ele>98.633</ele>
        <time>2015-05-24T09:39:59.550Z</time>
      </trkpt>
      <trkpt lat="48.38908" lon="2.53058">
        <ele>94.439</ele>
        <time>2015-05-24T09:40:05.698Z</time>
      </trkpt>
      <trkpt lat="48.38916" lon="2.53064">
        <ele>91.286</ele>
        <time>2015-05-24T09:40:12.422Z</time>
      </trkpt>
      <trkpt lat="48.38922" lon="2.53076">
        <ele>88.911</ele>
        <time>2015-05-24T09:40:19.051Z</time>
      </trkpt>
      <trkpt lat="48.38922" lon="2.53076">
        <ele>87.692</ele>
        <time>2015-05-24T09:40:23.054Z</time>
      </trkpt>
      <trkpt lat="48.38922" lon="2.53076">
        <ele>87.527</ele>
        <time>2015-05-24T09:40:23.154Z</time>
      </trkpt>
      <trkpt lat="48.38928" lon="2.53088">
        <ele>87.744</ele>
        <time>2015-05-24T09:40:34.053Z</time>
      </trkpt>
      <trkpt lat="48.38928" lon="2.53088">
        <ele>87.686</ele>
        <time>2015-05-24T09:40:38.041Z</time>
      </trkpt>
      <trkpt lat="48.38928" lon="2.53088">
        <ele>87.639</ele>
        <time>2015-05-24T09:40:40.511Z</time>
      </trkpt>
      <trkpt lat="48.38935" lon="2.53109">
        <ele>87.628</ele>
        <time>2015-05-24T09:41:56.995Z</time>
      </trkpt>
      <trkpt lat="48.38939" lon="2.53122">
        <ele>89.557</ele>
        <time>2015-05-24T09:42:06.430Z</time>
      </trkpt>
      <trkpt lat="48.3894" lon="2.5314">
        <ele>94.573</ele>
        <time>2015-05-24T09:42:15.055Z</time>
      </trkpt>
      <trkpt lat="48.3894" lon="2.5314">
        <ele>99.664</ele>
        <time>2015-05-24T09:42:23.053Z</time>
      </trkpt>
      <trkpt lat="48.3894" lon="2.5314">
        <ele>101.74</ele>
        <time>2015-05-24T09:42:23.153Z</time>
      </trkpt>
      <trkpt lat="48.38943" lon="2.53157">
        <ele>101.386</ele>
        <time>2015-05-24T09:42:50.357Z</time>
      </trkpt>
      <trkpt lat="48.38944" lon="2.53171">
        <ele>101.526</ele>
        <time>2015-05-24T09:42:58.947Z</time>
      </trkpt>
      <trkpt lat="48.38947" lon="2.53184">
        <ele>103.998</ele>
        <time>2015-05-24T09:43:06.053Z</time>
      </trkpt>
      <trkpt lat="48.38947" lon="2.53184">
        <ele>107.046</ele>
        <time>2015-05-24T09:43:17.055Z</time>
      </trkpt>
      <trkpt lat="48.38947" lon="2.53184">
        <ele>108.434</ele>
        <time>2015-05-24T09:44:31.737Z</time>
      </trkpt>
      <trkpt lat="48.38954" lon="2.53196">
        <ele>108.229</ele>
        <time>2015-05-24T09:45:27.904Z</time>
      </trkpt>
      <trkpt lat="48.38959" lon="2.53208">
        <ele>108.149</ele>
        <time>2015-05-24T09:45:41.430Z</time>
      </trkpt>
      <trkpt lat="48.38967" lon="2.53218">
        <ele>109.396</ele>
        <time>2015-05-24T09:45:52.512Z</time>
      </trkpt>
      <trkpt lat="48.38972" lon="2.5323">
        <ele>110.982</ele>
        <time>2015-05-24T09:46:02.695Z</time>
      </trkpt>
      <trkpt lat="48.38974" lon="2.53243">
        <ele>111.652</ele>
        <time>2015-05-24T09:46:14.061Z</time>
      </trkpt>
      <trkpt lat="48.38974" lon="2.53243">
        <ele>111.588</ele>
        <time>2015-05-24T09:46:21.061Z</time>
      </trkpt>
      <trkpt lat="48.38974" lon="2.53243">
        <ele>111.418</ele>
        <time>2015-05-24T09:46:21.161Z</time>
      </trkpt>
      <trkpt lat="48.38972" lon="2.53261">
        <ele>111.39</ele>
        <time>2015-05-24T09:46:57.055Z</time>
      </trkpt>
      <trkpt lat="48.38972" lon="2.53261">
        <ele>111.392</ele>
        <time>2015-05-24T09:47:06.055Z</time>
      </trkpt>
      <trkpt lat="48.38972" lon="2.53261">
        <ele>111.35</ele>
        <time>2015-05-24T09:47:06.155Z</time>
      </trkpt>
      <trkpt lat="48.38972" lon="2.53261">
        <ele>111.26</ele>
        <time>2015-05-24T09:47:28.058Z</time>
      </trkpt>
      <trkpt lat="48.38972" lon="2.53261">
        <ele>111.239</ele>
        <time>2015-05-24T09:47:28.158Z</time>
      </trkpt>
      <trkpt lat="48.38989" lon="2.53275">
        <ele>111.202</ele>
        <time>2015-05-24T09:48:10.062Z</time>
      </trkpt>
      <trkpt lat="48.38989" lon="2.53275">
        <ele>111.151</ele>
        <time>2015-05-24T09:48:15.057Z</time>
      </trkpt>
      <trkpt lat="48.38989" lon="2.53275">
        <ele>111.096</ele>
        <time>2015-05-24T09:48:15.157Z</time>
      </trkpt>
      <trkpt lat="48.38999" lon="2.53274">
        <ele>111.021</ele>
        <time>2015-05-24T09:48:38.055Z</time>
      </trkpt>
      <trkpt lat="48.38999" lon="2.53274">
        <ele>110.996</ele>
        <time>2015-05-24T09:48:42.057Z</time>
      </trkpt>
      <trkpt lat="48.38999" lon="2.53274">
        <ele>110.949</ele>
        <time>2015-05-24T09:49:08.058Z</time>
      </trkpt>
      <trkpt lat="48.38999" lon="2.53274">
        <ele>110.896</ele>
        <time>2015-05-24T09:49:08.158Z</time>
      </trkpt>
      <trkpt lat="48.39006" lon="2.53299">
        <ele>110.866</ele>
        <time>2015-05-24T09:49:36.052Z</time>
      </trkpt>
      <trkpt lat="48.39006" lon="2.53299">
        <ele>110.853</ele>
        <time>2015-05-24T09:49:40.049Z</time>
      </trkpt>
      <trkpt lat="48.39006" lon="2.53299">
        <ele>110.827</ele>
        <time>2015-05-24T09:49:40.149Z</time>
      </trkpt>
      <trkpt lat="48.39017" lon="2.53306">
        <ele>110.784</ele>
        <time>2015-05-24T09:50:26.564Z</time>
      </trkpt>
      <trkpt lat="48.39021" lon="2.53319">
        <ele>111.231</ele>
        <time>2015-05-24T09:50:38.060Z</time>
      </trkpt>
      <trkpt lat="48.39021" lon="2.53319">
        <ele>112.474</ele>
        <time>2015-05-24T09:51:28.061Z</time>
      </trkpt>
      <trkpt lat="48.39021" lon="2.53319">
        <ele>113.504</ele>
        <time>2015-05-24T09:51:28.161Z</time>
      </trkpt>
      <trkpt lat="48.39023" lon="2.53342">
        <ele>113.441</ele>
        <time>2015-05-24T09:51:42.056Z</time>
      </trkpt>
      <trkpt lat="48.39023" lon="2.53342">
        <ele>112.972</ele>
        <time>2015-05-24T09:51:50.060Z</time>
      </trkpt>
      <trkpt lat="48.39023" lon="2.53342">
        <ele>112.885</ele>
        <time>2015-05-24T09:51:50.160Z</time>
      </trkpt>
      <trkpt lat="48.39026" lon="2.53357">
        <ele>113.087</ele>
        <time>2015-05-24T09:52:36.340Z</time>
      </trkpt>
      <trkpt lat="48.39021" lon="2.53369">
        <ele>114.705</ele>
        <time>2015-05-24T09:52:46.432Z</time>
      </trkpt>
      <trkpt lat="48.39016" lon="2.53381">
        <ele>118.714</ele>
        <time>2015-05-24T09:52:55.385Z</time>
      </trkpt>
      <trkpt lat="48.39019" lon="2.53396">
        <ele>123.043</ele>
        <time>2015-05-24T09:53:05.990Z</time>
      </trkpt>
      <trkpt lat="48.39024" lon="2.53408">
        <ele>125.262</ele>
        <time>2015-05-24T09:53:18.454Z</time>
      </trkpt>
      <trkpt lat="48.39031" lon="2.53417">
        <ele>125.242</ele>
        <time>2015-05-24T09:53:29.772Z</time>
      </trkpt>
      <trkpt lat="48.39035" lon="2.53429">
        <ele>123.934</ele>
        <time>2015-05-24T09:53:40.100Z</time>
      </trkpt>
      <trkpt lat="48.39039" lon="2.53444">
        <ele>122.639</ele>
        <time>2015-05-24T09:53:53.889Z</time>
      </trkpt>
      <trkpt lat="48.3904" lon="2.53458">
        <ele>123.056</ele>
        <time>2015-05-24T09:54:04.490Z</time>
      </trkpt>
      <trkpt lat="48.39041" lon="2.53472">
        <ele>125.661</ele>
        <time>2015-05-24T09:54:11.955Z</time>
      </trkpt>
      <trkpt lat="48.39035" lon="2.53482">
        <ele>128.587</ele>
        <time>2015-05-24T09:54:20.182Z</time>
      </trkpt>
      <trkpt lat="48.39028" lon="2.53492">
        <ele>130.07</ele>
        <time>2015-05-24T09:54:30.188Z</time>
      </trkpt>
      <trkpt lat="48.39024" lon="2.53508">
        <ele>129.9</ele>
        <time>2015-05-24T09:54:40.555Z</time>
      </trkpt>
      <trkpt lat="48.39019" lon="2.53519">
        <ele>128.767</ele>
        <time>2015-05-24T09:54:48.962Z</time>
      </trkpt>
      <trkpt lat="48.39015" lon="2.53531">
        <ele>127.938</ele>
        <time>2015-05-24T09:54:59.665Z</time>
      </trkpt>
      <trkpt lat="48.39007" lon="2.53539">
        <ele>127.835</ele>
        <time>2015-05-24T09:55:13.681Z</time>
      </trkpt>
      <trkpt lat="48.38997" lon="2.53541">
        <ele>126.727</ele>
        <time>2015-05-24T09:55:27.522Z</time>
      </trkpt>
      <trkpt lat="48.38989" lon="2.53549">
        <ele>123.594</ele>
        <time>2015-05-24T09:55:39.601Z</time>
      </trkpt>
      <trkpt lat="48.3898" lon="2.53557">
        <ele>120.294</ele>
        <time>2015-05-24T09:55:51.046Z</time>
      </trkpt>
      <trkpt lat="48.38973" lon="2.53565">
        <ele>118.338</ele>
        <time>2015-05-24T09:56:02.050Z</time>
      </trkpt>
      <trkpt lat="48.38973" lon="2.53565">
        <ele>117.372</ele>
        <time>2015-05-24T09:56:19.060Z</time>
      </trkpt>
      <trkpt lat="48.38973" lon="2.53565">
        <ele>117.156</ele>
        <time>2015-05-24T09:56:19.160Z</time>
      </trkpt>
      <trkpt lat="48.38956" lon="2.53589">
        <ele>117.405</ele>
        <time>2015-05-24T09:57:10.239Z</time>
      </trkpt>
      <trkpt lat="48.38949" lon="2.53598">
        <ele>118.71</ele>
        <time>2015-05-24T09:57:22.718Z</time>
      </trkpt>
      <trkpt lat="48.3894" lon="2.53603">
        <ele>121.63</ele>
        <time>2015-05-24T09:57:34.574Z</time>
      </trkpt>
      <trkpt lat="48.38932" lon="2.53612">
        <ele>125.062</ele>
        <time>2015-05-24T09:57:42.962Z</time>
      </trkpt>
      <trkpt lat="48.38923" lon="2.53612">
        <ele>127.725</ele>
        <time>2015-05-24T09:57:51.055Z</time>
      </trkpt>
      <trkpt lat="48.38914" lon="2.53615">
        <ele>128.711</ele>
        <time>2015-05-24T09:57:59.422Z</time>
      </trkpt>
      <trkpt lat="48.38906" lon="2.53623">
        <ele>127.835</ele>
        <time>2015-05-24T09:58:08.996Z</time>
      </trkpt>
      <trkpt lat="48.38898" lon="2.53631">
        <ele>126.797</ele>
        <time>2015-05-24T09:58:18.998Z</time>
      </trkpt>
      <trkpt lat="48.38889" lon="2.53634">
        <ele>126.943</ele>
        <time>2015-05-24T09:58:29.149Z</time>
      </trkpt>
      <trkpt lat="48.38875" lon="2.53633">
        <ele>127.58</ele>
        <time>2015-05-24T09:58:44.270Z</time>
      </trkpt>
      <trkpt lat="48.38867" lon="2.53642">
        <ele>127.772</ele>
        <time>2015-05-24T09:58:55.062Z</time>
      </trkpt>
      <trkpt lat="48.38867" lon="2.53642">
        <ele>127.64</ele>
        <time>2015-05-24T09:59:00.067Z</time>
      </trkpt>
      <trkpt lat="48.38867" lon="2.53642">
        <ele>127.556</ele>
        <time>2015-05-24T09:59:00.167Z</time>
      </trkpt>
      <trkpt lat="48.38853" lon="2.53652">
        <ele>127.551</ele>
        <time>2015-05-24T09:59:14.405Z</time>
      </trkpt>
      <trkpt lat="48.38845" lon="2.53661">
        <ele>127.537</ele>
        <time>2015-05-24T09:59:20.062Z</time>
      </trkpt>
      <trkpt lat="48.38845" lon="2.53661">
        <ele>127.495</ele>
        <time>2015-05-24T09:59:24.065Z</time>
      </trkpt>
      <trkpt lat="48.38845" lon="2.53661">
        <ele>127.442</ele>
        <time>2015-05-24T09:59:32.454Z</time>
      </trkpt>
      <trkpt lat="48.38835" lon="2.5366">
        <ele>127.361</ele>
        <time>2015-05-24T10:00:05.566Z</time>
      </trkpt>
      <trkpt lat="48.38826" lon="2.53647">
        <ele>129.078</ele>
        <time>2015-05-24T10:00:14.171Z</time>
      </trkpt>
      <trkpt lat="48.38817" lon="2.5364">
        <ele>133.586</ele>
        <time>2015-05-24T10:00:22.463Z</time>
      </trkpt>
      <trkpt lat="48.38809" lon="2.53633">
        <ele>137.532</ele>
        <time>2015-05-24T10:00:36.463Z</time>
      </trkpt>
      <trkpt lat="48.38801" lon="2.53627">
        <ele>137.701</ele>
        <time>2015-05-24T10:00:52.412Z</time>
      </trkpt>
      <trkpt lat="48.38794" lon="2.53615">
        <ele>134.154</ele>
        <time>2015-05-24T10:01:14.209Z</time>
      </trkpt>
      <trkpt lat="48.38786" lon="2.53622">
        <ele>128.442</ele>
        <time>2015-05-24T10:01:44.053Z</time>
      </trkpt>
      <trkpt lat="48.38786" lon="2.53622">
        <ele>123.493</ele>
        <time>2015-05-24T10:01:49.066Z</time>
      </trkpt>
      <trkpt lat="48.38786" lon="2.53622">
        <ele>121.457</ele>
        <time>2015-05-24T10:01:49.166Z</time>
      </trkpt>
      <trkpt lat="48.38777" lon="2.53628">
        <ele>122.644</ele>
        <time>2015-05-24T10:02:06.057Z</time>
      </trkpt>
      <trkpt lat="48.38777" lon="2.53628">
        <ele>123.174</ele>
        <time>2015-05-24T10:02:21.060Z</time>
      </trkpt>
      <trkpt lat="48.38777" lon="2.53628">
        <ele>123.085</ele>
        <time>2015-05-24T10:02:21.160Z</time>
      </trkpt>
      <trkpt lat="48.38768" lon="2.53637">
        <ele>122.786</ele>
        <time>2015-05-24T10:02:31.064Z</time>
      </trkpt>
      <trkpt lat="48.38768" lon="2.53637">
        <ele>122.854</ele>
        <time>2015-05-24T10:02:38.071Z</time>
      </trkpt>
      <trkpt lat="48.38768" lon="2.53637">
        <ele>122.815</ele>
        <time>2015-05-24T10:02:55.064Z</time>
      </trkpt>
      <trkpt lat="48.38768" lon="2.53637">
        <ele>122.717</ele>
        <time>2015-05-24T10:02:55.164Z</time>
      </trkpt>
      <trkpt lat="48.38762" lon="2.53626">
        <ele>122.662</ele>
        <time>2015-05-24T10:03:29.062Z</time>
      </trkpt>
      <trkpt lat="48.38762" lon="2.53626">
        <ele>122.632</ele>
        <time>2015-05-24T10:03:39.088Z</time>
      </trkpt>
      <trkpt lat="48.38762" lon="2.53626">
        <ele>122.581</ele>
        <time>2015-05-24T10:03:39.188Z</time>
      </trkpt>
      <trkpt lat="48.38748" lon="2.53634">
        <ele>122.523</ele>
        <time>2015-05-24T10:04:00.231Z</time>
      </trkpt>
      <trkpt lat="48.3874" lon="2.53641">
        <ele>120.71</ele>
        <time>2015-05-24T10:04:11.911Z</time>
      </trkpt>
      <trkpt lat="48.38729" lon="2.53639">
        <ele>115.417</ele>
        <time>2015-05-24T10:04:25.829Z</time>
      </trkpt>
      <trkpt lat="48.3872" lon="2.53647">
        <ele>108.967</ele>
        <time>2015-05-24T10:04:34.060Z</time>
      </trkpt>
      <trkpt lat="48.3872" lon="2.53647">
        <ele>105.204</ele>
        <time>2015-05-24T10:04:44.062Z</time>
      </trkpt>
      <trkpt lat="48.3872" lon="2.53647">
        <ele>104.64</ele>
        <time>2015-05-24T10:06:28.187Z</time>
      </trkpt>
      <trkpt lat="48.38707" lon="2.53646">
        <ele>105.83</ele>
        <time>2015-05-24T10:07:14.057Z</time>
      </trkpt>
      <trkpt lat="48.38707" lon="2.53646">
        <ele>107.029</ele>
        <time>2015-05-24T10:07:31.052Z</time>
      </trkpt>
      <trkpt lat="48.38707" lon="2.53646">
        <ele>107.266</ele>
        <time>2015-05-24T10:07:31.152Z</time>
      </trkpt>
      <trkpt lat="48.38702" lon="2.53659">
        <ele>106.976</ele>
        <time>2015-05-24T10:08:04.343Z</time>
      </trkpt>
      <trkpt lat="48.38695" lon="2.53671">
        <ele>107.866</ele>
        <time>2015-05-24T10:08:13.157Z</time>
      </trkpt>
      <trkpt lat="48.38689" lon="2.5368">
        <ele>110.491</ele>
        <time>2015-05-24T10:08:21.053Z</time>
      </trkpt>
      <trkpt lat="48.38689" lon="2.5368">
        <ele>112.689</ele>
        <time>2015-05-24T10:08:25.057Z</time>
      </trkpt>
      <trkpt lat="48.38689" lon="2.5368">
        <ele>112.608</ele>
        <time>2015-05-24T10:08:25.157Z</time>
      </trkpt>
      <trkpt lat="48.38679" lon="2.53679">
        <ele>111.59</ele>
        <time>2015-05-24T10:08:45.016Z</time>
      </trkpt>
      <trkpt lat="48.3867" lon="2.53678">
        <ele>112.05</ele>
        <time>2015-05-24T10:09:02.084Z</time>
      </trkpt>
      <trkpt lat="48.38662" lon="2.53686">
        <ele>112.261</ele>
        <time>2015-05-24T10:09:20.643Z</time>
      </trkpt>
      <trkpt lat="48.38658" lon="2.53701">
        <ele>112.047</ele>
        <time>2015-05-24T10:09:39.040Z</time>
      </trkpt>
      <trkpt lat="48.38658" lon="2.53714">
        <ele>111.71</ele>
        <time>2015-05-24T10:09:51.053Z</time>
      </trkpt>
      <trkpt lat="48.38658" lon="2.53714">
        <ele>111.525</ele>
        <time>2015-05-24T10:09:58.054Z</time>
      </trkpt>
      <trkpt lat="48.38658" lon="2.53714">
        <ele>111.495</ele>
        <time>2015-05-24T10:09:58.154Z</time>
      </trkpt>
      <trkpt lat="48.38657" lon="2.53731">
        <ele>111.533</ele>
        <time>2015-05-24T10:10:11.530Z</time>
      </trkpt>
      <trkpt lat="48.38648" lon="2.5373">
        <ele>111.686</ele>
        <time>2015-05-24T10:10:20.055Z</time>
      </trkpt>
      <trkpt lat="48.38648" lon="2.5373">
        <ele>112.007</ele>
        <time>2015-05-24T10:10:32.060Z</time>
      </trkpt>
      <trkpt lat="48.38648" lon="2.5373">
        <ele>112.246</ele>
        <time>2015-05-24T10:10:32.160Z</time>
      </trkpt>
      <trkpt lat="48.38639" lon="2.53735">
        <ele>112.193</ele>
        <time>2015-05-24T10:10:59.058Z</time>
      </trkpt>
      <trkpt lat="48.38639" lon="2.53735">
        <ele>112.036</ele>
        <time>2015-05-24T10:11:08.057Z</time>
      </trkpt>
      <trkpt lat="48.38639" lon="2.53735">
        <ele>111.981</ele>
        <time>2015-05-24T10:11:08.157Z</time>
      </trkpt>
      <trkpt lat="48.38628" lon="2.53737">
        <ele>112.009</ele>
        <time>2015-05-24T10:11:27.056Z</time>
      </trkpt>
      <trkpt lat="48.38628" lon="2.53737">
        <ele>112.025</ele>
        <time>2015-05-24T10:11:30.052Z</time>
      </trkpt>
      <trkpt lat="48.38628" lon="2.53737">
        <ele>111.987</ele>
        <time>2015-05-24T10:11:30.152Z</time>
      </trkpt>
      <trkpt lat="48.38624" lon="2.5375">
        <ele>111.895</ele>
        <time>2015-05-24T10:11:48.054Z</time>
      </trkpt>
      <trkpt lat="48.38624" lon="2.5375">
        <ele>111.886</ele>
        <time>2015-05-24T10:11:50.057Z</time>
      </trkpt>
      <trkpt lat="48.38624" lon="2.5375">
        <ele>111.871</ele>
        <time>2015-05-24T10:11:59.057Z</time>
      </trkpt>
      <trkpt lat="48.38624" lon="2.5375">
        <ele>111.828</ele>
        <time>2015-05-24T10:11:59.157Z</time>
      </trkpt>
      <trkpt lat="48.38612" lon="2.53754">
        <ele>111.746</ele>
        <time>2015-05-24T10:12:23.843Z</time>
      </trkpt>
      <trkpt lat="48.38604" lon="2.53762">
        <ele>112.878</ele>
        <time>2015-05-24T10:12:36.682Z</time>
      </trkpt>
      <trkpt lat="48.38596" lon="2.53769">
        <ele>116.356</ele>
        <time>2015-05-24T10:12:47.969Z</time>
      </trkpt>
      <trkpt lat="48.3859" lon="2.53779">
        <ele>120.814</ele>
        <time>2015-05-24T10:12:59.056Z</time>
      </trkpt>
      <trkpt lat="48.3859" lon="2.53779">
        <ele>123.853</ele>
        <time>2015-05-24T10:13:05.058Z</time>
      </trkpt>
      <trkpt lat="48.3859" lon="2.53779">
        <ele>124.88</ele>
        <time>2015-05-24T10:13:30.367Z</time>
      </trkpt>
      <trkpt lat="48.38578" lon="2.53795">
        <ele>124.573</ele>
        <time>2015-05-24T10:14:24.564Z</time>
      </trkpt>
      <trkpt lat="48.3857" lon="2.53802">
        <ele>123.917</ele>
        <time>2015-05-24T10:14:35.168Z</time>
      </trkpt>
      <trkpt lat="48.38562" lon="2.53811">
        <ele>123.923</ele>
        <time>2015-05-24T10:14:46.085Z</time>
      </trkpt>
      <trkpt lat="48.38553" lon="2.53817">
        <ele>125.118</ele>
        <time>2015-05-24T10:14:57.038Z</time>
      </trkpt>
      <trkpt lat="48.38546" lon="2.53827">
        <ele>126.883</ele>
        <time>2015-05-24T10:15:05.494Z</time>
      </trkpt>
      <trkpt lat="48.38539" lon="2.53836">
        <ele>127.931</ele>
        <time>2015-05-24T10:15:14.476Z</time>
      </trkpt>
      <trkpt lat="48.38529" lon="2.53833">
        <ele>127.823</ele>
        <time>2015-05-24T10:15:26.055Z</time>
      </trkpt>
      <trkpt lat="48.38529" lon="2.53833">
        <ele>127.357</ele>
        <time>2015-05-24T10:15:39.059Z</time>
      </trkpt>
      <trkpt lat="48.38529" lon="2.53833">
        <ele>127.269</ele>
        <time>2015-05-24T10:15:39.159Z</time>
      </trkpt>
      <trkpt lat="48.38514" lon="2.53829">
        <ele>127.461</ele>
        <time>2015-05-24T10:15:56.449Z</time>
      </trkpt>
      <trkpt lat="48.38504" lon="2.53827">
        <ele>127.566</ele>
        <time>2015-05-24T10:16:05.009Z</time>
      </trkpt>
      <trkpt lat="48.38495" lon="2.53824">
        <ele>126.478</ele>
        <time>2015-05-24T10:16:10.056Z</time>
      </trkpt>
      <trkpt lat="48.38495" lon="2.53824">
        <ele>123.728</ele>
        <time>2015-05-24T10:16:14.056Z</time>
      </trkpt>
      <trkpt lat="48.38495" lon="2.53824">
        <ele>121.468</ele>
        <time>2015-05-24T10:16:14.863Z</time>
      </trkpt>
      <trkpt lat="48.38486" lon="2.5383">
        <ele>121.461</ele>
        <time>2015-05-24T10:16:26.057Z</time>
      </trkpt>
      <trkpt lat="48.38486" lon="2.5383">
        <ele>122.426</ele>
        <time>2015-05-24T10:16:43.055Z</time>
      </trkpt>
      <trkpt lat="48.38486" lon="2.5383">
        <ele>122.832</ele>
        <time>2015-05-24T10:16:43.155Z</time>
      </trkpt>
      <trkpt lat="48.38478" lon="2.53844">
        <ele>122.538</ele>
        <time>2015-05-24T10:18:12.062Z</time>
      </trkpt>
      <trkpt lat="48.38478" lon="2.53844">
        <ele>122.072</ele>
        <time>2015-05-24T10:18:14.060Z</time>
      </trkpt>
      <trkpt lat="48.38478" lon="2.53844">
        <ele>121.871</ele>
        <time>2015-05-24T10:18:34.057Z</time>
      </trkpt>
      <trkpt lat="48.38478" lon="2.53844">
        <ele>121.895</ele>
        <time>2015-05-24T10:18:34.157Z</time>
      </trkpt>
      <trkpt lat="48.38476" lon="2.53863">
        <ele>121.921</ele>
        <time>2015-05-24T10:21:11.127Z</time>
      </trkpt>
      <trkpt lat="48.38467" lon="2.53859">
        <ele>122.211</ele>
        <time>2015-05-24T10:21:19.816Z</time>
      </trkpt>
      <trkpt lat="48.38457" lon="2.53863">
        <ele>122.933</ele>
        <time>2015-05-24T10:21:30.006Z</time>
      </trkpt>
      <trkpt lat="48.38456" lon="2.53877">
        <ele>123.269</ele>
        <time>2015-05-24T10:21:40.844Z</time>
      </trkpt>
      <trkpt lat="48.38452" lon="2.5389">
        <ele>122.519</ele>
        <time>2015-05-24T10:21:52.548Z</time>
      </trkpt>
      <trkpt lat="48.38457" lon="2.53901">
        <ele>120.793</ele>
        <time>2015-05-24T10:22:05.058Z</time>
      </trkpt>
      <trkpt lat="48.38457" lon="2.53901">
        <ele>118.607</ele>
        <time>2015-05-24T10:22:16.061Z</time>
      </trkpt>
      <trkpt lat="48.38457" lon="2.53901">
        <ele>117.156</ele>
        <time>2015-05-24T10:22:16.161Z</time>
      </trkpt>
      <trkpt lat="48.38457" lon="2.53901">
        <ele>117.873</ele>
        <time>2015-05-24T10:22:44.061Z</time>
      </trkpt>
      <trkpt lat="48.38457" lon="2.53901">
        <ele>118.288</ele>
        <time>2015-05-24T10:22:44.161Z</time>
      </trkpt>
      <trkpt lat="48.38463" lon="2.53931">
        <ele>118.215</ele>
        <time>2015-05-24T10:23:46.062Z</time>
      </trkpt>
      <trkpt lat="48.38463" lon="2.53931">
        <ele>117.987</ele>
        <time>2015-05-24T10:23:51.059Z</time>
      </trkpt>
      <trkpt lat="48.38463" lon="2.53931">
        <ele>117.924</ele>
        <time>2015-05-24T10:24:09.063Z</time>
      </trkpt>
      <trkpt lat="48.38463" lon="2.53931">
        <ele>117.957</ele>
        <time>2015-05-24T10:24:09.163Z</time>
      </trkpt>
      <trkpt lat="48.3847" lon="2.53941">
        <ele>117.941</ele>
        <time>2015-05-24T10:24:59.060Z</time>
      </trkpt>
      <trkpt lat="48.3847" lon="2.53941">
        <ele>117.882</ele>
        <time>2015-05-24T10:25:07.062Z</time>
      </trkpt>
      <trkpt lat="48.3847" lon="2.53941">
        <ele>117.831</ele>
        <time>2015-05-24T10:25:07.162Z</time>
      </trkpt>
      <trkpt lat="48.38461" lon="2.53955">
        <ele>117.803</ele>
        <time>2015-05-24T10:25:16.062Z</time>
      </trkpt>
      <trkpt lat="48.38461" lon="2.53955">
        <ele>117.788</ele>
        <time>2015-05-24T10:25:25.066Z</time>
      </trkpt>
      <trkpt lat="48.38461" lon="2.53955">
        <ele>117.759</ele>
        <time>2015-05-24T10:25:46.063Z</time>
      </trkpt>
      <trkpt lat="48.38461" lon="2.53955">
        <ele>117.711</ele>
        <time>2015-05-24T10:45:59.652Z</time>
      </trkpt>
      <trkpt lat="48.38454" lon="2.53971">
        <ele>117.668</ele>
        <time>2015-05-24T10:48:16.388Z</time>
      </trkpt>
      <trkpt lat="48.38456" lon="2.53985">
        <ele>117.723</ele>
        <time>2015-05-24T10:48:29.764Z</time>
      </trkpt>
      <trkpt lat="48.38453" lon="2.53999">
        <ele>118.064</ele>
        <time>2015-05-24T10:48:40.969Z</time>
      </trkpt>
      <trkpt lat="48.38447" lon="2.5401">
        <ele>119.659</ele>
        <time>2015-05-24T10:48:52.728Z</time>
      </trkpt>
      <trkpt lat="48.38442" lon="2.54022">
        <ele>122.768</ele>
        <time>2015-05-24T10:49:03.624Z</time>
      </trkpt>
      <trkpt lat="48.38439" lon="2.54036">
        <ele>125.181</ele>
        <time>2015-05-24T10:49:14.068Z</time>
      </trkpt>
      <trkpt lat="48.38439" lon="2.54036">
        <ele>125.232</ele>
        <time>2015-05-24T10:49:21.073Z</time>
      </trkpt>
      <trkpt lat="48.38439" lon="2.54036">
        <ele>124.378</ele>
        <time>2015-05-24T10:49:21.173Z</time>
      </trkpt>
      <trkpt lat="48.38447" lon="2.54046">
        <ele>124.217</ele>
        <time>2015-05-24T10:49:37.152Z</time>
      </trkpt>
      <trkpt lat="48.38449" lon="2.54059">
        <ele>123.538</ele>
        <time>2015-05-24T10:49:46.209Z</time>
      </trkpt>
      <trkpt lat="48.38451" lon="2.54073">
        <ele>121.089</ele>
        <time>2015-05-24T10:49:56.077Z</time>
      </trkpt>
      <trkpt lat="48.38448" lon="2.54087">
        <ele>118.474</ele>
        <time>2015-05-24T10:50:07.858Z</time>
      </trkpt>
      <trkpt lat="48.38447" lon="2.54101">
        <ele>117.396</ele>
        <time>2015-05-24T10:50:20.963Z</time>
      </trkpt>
      <trkpt lat="48.38446" lon="2.54115">
        <ele>117.433</ele>
        <time>2015-05-24T10:50:40.070Z</time>
      </trkpt>
      <trkpt lat="48.38446" lon="2.54115">
        <ele>117.665</ele>
        <time>2015-05-24T10:50:53.073Z</time>
      </trkpt>
      <trkpt lat="48.38446" lon="2.54115">
        <ele>117.671</ele>
        <time>2015-05-24T10:50:53.173Z</time>
      </trkpt>
      <trkpt lat="48.38448" lon="2.54134">
        <ele>117.565</ele>
        <time>2015-05-24T10:51:08.085Z</time>
      </trkpt>
      <trkpt lat="48.38454" lon="2.54146">
        <ele>117.516</ele>
        <time>2015-05-24T10:51:13.072Z</time>
      </trkpt>
      <trkpt lat="48.38454" lon="2.54146">
        <ele>117.489</ele>
        <time>2015-05-24T10:51:22.071Z</time>
      </trkpt>
      <trkpt lat="48.38454" lon="2.54146">
        <ele>117.441</ele>
        <time>2015-05-24T10:51:22.171Z</time>
      </trkpt>
      <trkpt lat="48.38448" lon="2.54157">
        <ele>117.384</ele>
        <time>2015-05-24T10:51:48.535Z</time>
      </trkpt>
      <trkpt lat="48.38439" lon="2.54158">
        <ele>116.187</ele>
        <time>2015-05-24T10:52:09.107Z</time>
      </trkpt>
      <trkpt lat="48.3843" lon="2.54163">
        <ele>111.001</ele>
        <time>2015-05-24T10:52:25.893Z</time>
      </trkpt>
      <trkpt lat="48.38427" lon="2.54179">
        <ele>101.855</ele>
        <time>2015-05-24T10:52:42.377Z</time>
      </trkpt>
      <trkpt lat="48.38419" lon="2.54183">
        <ele>93.472</ele>
        <time>2015-05-24T10:52:55.309Z</time>
      </trkpt>
      <trkpt lat="48.38413" lon="2.54196">
        <ele>90.362</ele>
        <time>2015-05-24T10:53:05.173Z</time>
      </trkpt>
      <trkpt lat="48.38406" lon="2.54204">
        <ele>93.549</ele>
        <time>2015-05-24T10:53:12.931Z</time>
      </trkpt>
      <trkpt lat="48.384" lon="2.54214">
        <ele>100.432</ele>
        <time>2015-05-24T10:53:21.073Z</time>
      </trkpt>
      <trkpt lat="48.384" lon="2.54214">
        <ele>106.501</ele>
        <time>2015-05-24T10:53:25.074Z</time>
      </trkpt>
      <trkpt lat="48.384" lon="2.54214">
        <ele>109.096</ele>
        <time>2015-05-24T10:53:25.174Z</time>
      </trkpt>
      <trkpt lat="48.38393" lon="2.54224">
        <ele>108.42</ele>
        <time>2015-05-24T10:53:47.006Z</time>
      </trkpt>
      <trkpt lat="48.38392" lon="2.54238">
        <ele>106.594</ele>
        <time>2015-05-24T10:53:58.072Z</time>
      </trkpt>
      <trkpt lat="48.38392" lon="2.54238">
        <ele>105.677</ele>
        <time>2015-05-24T10:53:58.072Z</time>
      </trkpt>
      <trkpt lat="48.38392" lon="2.54238">
        <ele>105.826</ele>
        <time>2015-05-24T10:54:03.302Z</time>
      </trkpt>
      <trkpt lat="48.38393" lon="2.54252">
        <ele>106.004</ele>
        <time>2015-05-24T10:54:18.075Z</time>
      </trkpt>
      <trkpt lat="48.38393" lon="2.54252">
        <ele>105.742</ele>
        <time>2015-05-24T10:54:25.071Z</time>
      </trkpt>
      <trkpt lat="48.38393" lon="2.54252">
        <ele>105.577</ele>
        <time>2015-05-24T10:54:41.071Z</time>
      </trkpt>
      <trkpt lat="48.38393" lon="2.54252">
        <ele>105.544</ele>
        <time>2015-05-24T10:54:41.171Z</time>
      </trkpt>
      <trkpt lat="48.38386" lon="2.54271">
        <ele>105.575</ele>
        <time>2015-05-24T10:55:07.071Z</time>
      </trkpt>
      <trkpt lat="48.38386" lon="2.54271">
        <ele>105.585</ele>
        <time>2015-05-24T10:55:13.070Z</time>
      </trkpt>
      <trkpt lat="48.38386" lon="2.54271">
        <ele>105.543</ele>
        <time>2015-05-24T10:55:13.170Z</time>
      </trkpt>
      <trkpt lat="48.38378" lon="2.54277">
        <ele>105.459</ele>
        <time>2015-05-24T10:55:40.993Z</time>
      </trkpt>
      <trkpt lat="48.3838" lon="2.5429">
        <ele>107.237</ele>
        <time>2015-05-24T10:55:57.783Z</time>
      </trkpt>
      <trkpt lat="48.38372" lon="2.54298">
        <ele>112.209</ele>
        <time>2015-05-24T10:56:12.075Z</time>
      </trkpt>
      <trkpt lat="48.38372" lon="2.54298">
        <ele>117.82</ele>
        <time>2015-05-24T10:56:22.074Z</time>
      </trkpt>
      <trkpt lat="48.38372" lon="2.54298">
        <ele>120.531</ele>
        <time>2015-05-24T10:57:24.702Z</time>
      </trkpt>
      <trkpt lat="48.38369" lon="2.54312">
        <ele>118.766</ele>
        <time>2015-05-24T10:58:06.716Z</time>
      </trkpt>
      <trkpt lat="48.38362" lon="2.54322">
        <ele>117.598</ele>
        <time>2015-05-24T10:58:19.401Z</time>
      </trkpt>
      <trkpt lat="48.38356" lon="2.54332">
        <ele>116.791</ele>
        <time>2015-05-24T10:58:29.942Z</time>
      </trkpt>
      <trkpt lat="48.38352" lon="2.54345">
        <ele>116.334</ele>
        <time>2015-05-24T10:58:40.357Z</time>
      </trkpt>
      <trkpt lat="48.38345" lon="2.54353">
        <ele>115.797</ele>
        <time>2015-05-24T10:58:51.923Z</time>
      </trkpt>
      <trkpt lat="48.38338" lon="2.54364">
        <ele>114.738</ele>
        <time>2015-05-24T10:59:04.075Z</time>
      </trkpt>
      <trkpt lat="48.38338" lon="2.54364">
        <ele>113.852</ele>
        <time>2015-05-24T10:59:14.075Z</time>
      </trkpt>
      <trkpt lat="48.38338" lon="2.54364">
        <ele>113.821</ele>
        <time>2015-05-24T10:59:14.175Z</time>
      </trkpt>
      <trkpt lat="48.3833" lon="2.54377">
        <ele>114.23</ele>
        <time>2015-05-24T10:59:21.074Z</time>
      </trkpt>
      <trkpt lat="48.3833" lon="2.54377">
        <ele>114.477</ele>
        <time>2015-05-24T10:59:32.080Z</time>
      </trkpt>
      <trkpt lat="48.3833" lon="2.54377">
        <ele>114.45</ele>
        <time>2015-05-24T10:59:32.180Z</time>
      </trkpt>
      <trkpt lat="48.38326" lon="2.54393">
        <ele>114.353</ele>
        <time>2015-05-24T10:59:48.071Z</time>
      </trkpt>
      <trkpt lat="48.38326" lon="2.54393">
        <ele>114.321</ele>
        <time>2015-05-24T10:59:50.077Z</time>
      </trkpt>
      <trkpt lat="48.38326" lon="2.54393">
        <ele>114.308</ele>
        <time>2015-05-24T11:00:10.245Z</time>
      </trkpt>
      <trkpt lat="48.38316" lon="2.54415">
        <ele>114.275</ele>
        <time>2015-05-24T11:00:53.691Z</time>
      </trkpt>
      <trkpt lat="48.38313" lon="2.5443">
        <ele>114.553</ele>
        <time>2015-05-24T11:01:09.089Z</time>
      </trkpt>
      <trkpt lat="48.38316" lon="2.54443">
        <ele>115.356</ele>
        <time>2015-05-24T11:01:22.073Z</time>
      </trkpt>
      <trkpt lat="48.38316" lon="2.54443">
        <ele>116.086</ele>
        <time>2015-05-24T11:01:32.074Z</time>
      </trkpt>
      <trkpt lat="48.38316" lon="2.54443">
        <ele>116.203</ele>
        <time>2015-05-24T11:01:32.174Z</time>
      </trkpt>
      <trkpt lat="48.38308" lon="2.54455">
        <ele>115.905</ele>
        <time>2015-05-24T11:01:49.575Z</time>
      </trkpt>
      <trkpt lat="48.38305" lon="2.54468">
        <ele>114.958</ele>
        <time>2015-05-24T11:01:59.848Z</time>
      </trkpt>
      <trkpt lat="48.38304" lon="2.54483">
        <ele>113.044</ele>
        <time>2015-05-24T11:02:10.074Z</time>
      </trkpt>
      <trkpt lat="48.38304" lon="2.54483">
        <ele>111.164</ele>
        <time>2015-05-24T11:02:14.074Z</time>
      </trkpt>
      <trkpt lat="48.38304" lon="2.54483">
        <ele>110.427</ele>
        <time>2015-05-24T11:02:14.174Z</time>
      </trkpt>
      <trkpt lat="48.38305" lon="2.54501">
        <ele>110.646</ele>
        <time>2015-05-24T11:02:32.173Z</time>
      </trkpt>
      <trkpt lat="48.383" lon="2.54512">
        <ele>111.174</ele>
        <time>2015-05-24T11:02:44.904Z</time>
      </trkpt>
      <trkpt lat="48.38295" lon="2.54524">
        <ele>112.892</ele>
        <time>2015-05-24T11:02:59.205Z</time>
      </trkpt>
      <trkpt lat="48.38293" lon="2.54538">
        <ele>116.937</ele>
        <time>2015-05-24T11:03:13.343Z</time>
      </trkpt>
      <trkpt lat="48.38293" lon="2.54553">
        <ele>121.935</ele>
        <time>2015-05-24T11:03:29.074Z</time>
      </trkpt>
      <trkpt lat="48.38293" lon="2.54553">
        <ele>125.446</ele>
        <time>2015-05-24T11:03:38.077Z</time>
      </trkpt>
      <trkpt lat="48.38293" lon="2.54553">
        <ele>126.745</ele>
        <time>2015-05-24T11:03:38.177Z</time>
      </trkpt>
      <trkpt lat="48.38286" lon="2.54565">
        <ele>125.992</ele>
        <time>2015-05-24T11:03:52.076Z</time>
      </trkpt>
      <trkpt lat="48.38286" lon="2.54565">
        <ele>124.511</ele>
        <time>2015-05-24T11:03:53.075Z</time>
      </trkpt>
      <trkpt lat="48.38286" lon="2.54565">
        <ele>123.896</ele>
        <time>2015-05-24T11:03:53.175Z</time>
      </trkpt>
      <trkpt lat="48.38277" lon="2.54567">
        <ele>124.302</ele>
        <time>2015-05-24T11:04:15.489Z</time>
      </trkpt>
      <trkpt lat="48.38268" lon="2.54572">
        <ele>123.301</ele>
        <time>2015-05-24T11:04:26.217Z</time>
      </trkpt>
      <trkpt lat="48.38258" lon="2.5457">
        <ele>120.465</ele>
        <time>2015-05-24T11:04:37.076Z</time>
      </trkpt>
      <trkpt lat="48.38258" lon="2.5457">
        <ele>117.801</ele>
        <time>2015-05-24T11:04:59.074Z</time>
      </trkpt>
      <trkpt lat="48.38258" lon="2.5457">
        <ele>117.12</ele>
        <time>2015-05-24T11:04:59.174Z</time>
      </trkpt>
      <trkpt lat="48.38234" lon="2.5456">
        <ele>117.902</ele>
        <time>2015-05-24T11:05:52.074Z</time>
      </trkpt>
      <trkpt lat="48.38234" lon="2.5456">
        <ele>118.805</ele>
        <time>2015-05-24T11:05:55.080Z</time>
      </trkpt>
      <trkpt lat="48.38234" lon="2.5456">
        <ele>118.988</ele>
        <time>2015-05-24T11:06:01.890Z</time>
      </trkpt>
      <trkpt lat="48.38241" lon="2.5457">
        <ele>118.745</ele>
        <time>2015-05-24T11:06:50.477Z</time>
      </trkpt>
      <trkpt lat="48.38232" lon="2.54573">
        <ele>118.635</ele>
        <time>2015-05-24T11:07:15.737Z</time>
      </trkpt>
      <trkpt lat="48.38222" lon="2.54571">
        <ele>118.497</ele>
        <time>2015-05-24T11:07:33.076Z</time>
      </trkpt>
      <trkpt lat="48.38222" lon="2.54571">
        <ele>118.196</ele>
        <time>2015-05-24T11:07:37.083Z</time>
      </trkpt>
      <trkpt lat="48.38222" lon="2.54571">
        <ele>117.924</ele>
        <time>2015-05-24T11:07:37.183Z</time>
      </trkpt>
      <trkpt lat="48.38213" lon="2.54565">
        <ele>117.962</ele>
        <time>2015-05-24T11:07:49.076Z</time>
      </trkpt>
      <trkpt lat="48.38213" lon="2.54565">
        <ele>118.006</ele>
        <time>2015-05-24T11:08:09.081Z</time>
      </trkpt>
      <trkpt lat="48.38213" lon="2.54565">
        <ele>117.955</ele>
        <time>2015-05-24T11:08:09.181Z</time>
      </trkpt>
      <trkpt lat="48.38198" lon="2.54573">
        <ele>117.878</ele>
        <time>2015-05-24T11:08:40.933Z</time>
      </trkpt>
      <trkpt lat="48.3819" lon="2.54579">
        <ele>117.846</ele>
        <time>2015-05-24T11:08:53.655Z</time>
      </trkpt>
      <trkpt lat="48.38183" lon="2.54589">
        <ele>118.115</ele>
        <time>2015-05-24T11:09:07.070Z</time>
      </trkpt>
      <trkpt lat="48.38183" lon="2.54603">
        <ele>118.415</ele>
        <time>2015-05-24T11:09:18.470Z</time>
      </trkpt>
      <trkpt lat="48.38179" lon="2.54615">
        <ele>118.083</ele>
        <time>2015-05-24T11:09:28.484Z</time>
      </trkpt>
      <trkpt lat="48.38174" lon="2.54627">
        <ele>117.347</ele>
        <time>2015-05-24T11:09:37.465Z</time>
      </trkpt>
      <trkpt lat="48.38172" lon="2.54643">
        <ele>117.384</ele>
        <time>2015-05-24T11:09:46.679Z</time>
      </trkpt>
      <trkpt lat="48.38166" lon="2.54654">
        <ele>118.544</ele>
        <time>2015-05-24T11:09:55.075Z</time>
      </trkpt>
      <trkpt lat="48.38166" lon="2.54654">
        <ele>119.617</ele>
        <time>2015-05-24T11:10:09.095Z</time>
      </trkpt>
      <trkpt lat="48.38166" lon="2.54654">
        <ele>119.564</ele>
        <time>2015-05-24T11:10:09.195Z</time>
      </trkpt>
      <trkpt lat="48.38161" lon="2.5467">
        <ele>119.007</ele>
        <time>2015-05-24T11:10:53.970Z</time>
      </trkpt>
      <trkpt lat="48.38154" lon="2.54682">
        <ele>118.312</ele>
        <time>2015-05-24T11:11:16.837Z</time>
      </trkpt>
      <trkpt lat="48.38147" lon="2.5469">
        <ele>114.446</ele>
        <time>2015-05-24T11:11:34.798Z</time>
      </trkpt>
      <trkpt lat="48.38138" lon="2.54692">
        <ele>115.218</ele>
        <time>2015-05-24T11:11:57.076Z</time>
      </trkpt>
      <trkpt lat="48.38138" lon="2.54692">
        <ele>116.587</ele>
        <time>2015-05-24T11:12:19.086Z</time>
      </trkpt>
      <trkpt lat="48.38138" lon="2.54692">
        <ele>116.604</ele>
        <time>2015-05-24T11:12:19.186Z</time>
      </trkpt>
      <trkpt lat="48.38111" lon="2.54698">
        <ele>115.989</ele>
        <time>2015-05-24T11:13:06.557Z</time>
      </trkpt>
      <trkpt lat="48.38102" lon="2.547">
        <ele>115.872</ele>
        <time>2015-05-24T11:13:19.888Z</time>
      </trkpt>
      <trkpt lat="48.38092" lon="2.547">
        <ele>116.14</ele>
        <time>2015-05-24T11:13:34.054Z</time>
      </trkpt>
      <trkpt lat="48.38083" lon="2.54696">
        <ele>116.36</ele>
        <time>2015-05-24T11:13:47.610Z</time>
      </trkpt>
      <trkpt lat="48.38073" lon="2.54693">
        <ele>116.441</ele>
        <time>2015-05-24T11:14:01.920Z</time>
      </trkpt>
      <trkpt lat="48.38065" lon="2.54689">
        <ele>116.041</ele>
        <time>2015-05-24T11:14:22.083Z</time>
      </trkpt>
      <trkpt lat="48.38065" lon="2.54689">
        <ele>114.977</ele>
        <time>2015-05-24T11:14:33.083Z</time>
      </trkpt>
      <trkpt lat="48.38065" lon="2.54689">
        <ele>114.078</ele>
        <time>2015-05-24T11:14:33.183Z</time>
      </trkpt>
      <trkpt lat="48.38065" lon="2.54689">
        <ele>114.463</ele>
        <time>2015-05-24T11:14:49.079Z</time>
      </trkpt>
      <trkpt lat="48.38065" lon="2.54689">
        <ele>114.714</ele>
        <time>2015-05-24T11:14:49.179Z</time>
      </trkpt>
      <trkpt lat="48.38065" lon="2.54689">
        <ele>114.464</ele>
        <time>2015-05-24T11:14:52.087Z</time>
      </trkpt>
      <trkpt lat="48.38065" lon="2.54689">
        <ele>114.339</ele>
        <time>2015-05-24T11:14:52.187Z</time>
      </trkpt>
      <trkpt lat="48.38062" lon="2.54669">
        <ele>114.3</ele>
        <time>2015-05-24T11:15:03.641Z</time>
      </trkpt>
      <trkpt lat="48.38053" lon="2.54661">
        <ele>113.473</ele>
        <time>2015-05-24T11:15:09.086Z</time>
      </trkpt>
      <trkpt lat="48.38053" lon="2.54661">
        <ele>111.32</ele>
        <time>2015-05-24T11:15:12.084Z</time>
      </trkpt>
      <trkpt lat="48.38053" lon="2.54661">
        <ele>109.502</ele>
        <time>2015-05-24T11:15:12.184Z</time>
      </trkpt>
      <trkpt lat="48.38044" lon="2.54656">
        <ele>110.391</ele>
        <time>2015-05-24T11:15:34.781Z</time>
      </trkpt>
      <trkpt lat="48.3804" lon="2.54643">
        <ele>110.788</ele>
        <time>2015-05-24T11:15:51.021Z</time>
      </trkpt>
      <trkpt lat="48.38032" lon="2.54636">
        <ele>109.29</ele>
        <time>2015-05-24T11:16:09.085Z</time>
      </trkpt>
      <trkpt lat="48.38032" lon="2.54636">
        <ele>106.906</ele>
        <time>2015-05-24T11:16:20.090Z</time>
      </trkpt>
      <trkpt lat="48.38032" lon="2.54636">
        <ele>106.075</ele>
        <time>2015-05-24T11:16:20.190Z</time>
      </trkpt>
      <trkpt lat="48.38006" lon="2.54639">
        <ele>106.709</ele>
        <time>2015-05-24T11:18:35.097Z</time>
      </trkpt>
      <trkpt lat="48.38006" lon="2.54639">
        <ele>107.246</ele>
        <time>2015-05-24T11:18:39.094Z</time>
      </trkpt>
      <trkpt lat="48.38006" lon="2.54639">
        <ele>107.371</ele>
        <time>2015-05-24T11:23:20.076Z</time>
      </trkpt>
      <trkpt lat="48.38017" lon="2.54632">
        <ele>107.153</ele>
        <time>2015-05-24T11:24:11.630Z</time>
      </trkpt>
      <trkpt lat="48.38011" lon="2.54644">
        <ele>106.659</ele>
        <time>2015-05-24T11:24:23.509Z</time>
      </trkpt>
      <trkpt lat="48.38" lon="2.54646">
        <ele>105.899</ele>
        <time>2015-05-24T11:24:33.690Z</time>
      </trkpt>
      <trkpt lat="48.37991" lon="2.54648">
        <ele>105.471</ele>
        <time>2015-05-24T11:24:43.289Z</time>
      </trkpt>
      <trkpt lat="48.37982" lon="2.54644">
        <ele>106.745</ele>
        <time>2015-05-24T11:24:55.065Z</time>
      </trkpt>
      <trkpt lat="48.37975" lon="2.54636">
        <ele>109.875</ele>
        <time>2015-05-24T11:25:09.905Z</time>
      </trkpt>
      <trkpt lat="48.37965" lon="2.5464">
        <ele>113.431</ele>
        <time>2015-05-24T11:25:23.072Z</time>
      </trkpt>
      <trkpt lat="48.37956" lon="2.54635">
        <ele>117.678</ele>
        <time>2015-05-24T11:25:35.728Z</time>
      </trkpt>
      <trkpt lat="48.3795" lon="2.54626">
        <ele>123.036</ele>
        <time>2015-05-24T11:25:49.096Z</time>
      </trkpt>
      <trkpt lat="48.3795" lon="2.54626">
        <ele>126.859</ele>
        <time>2015-05-24T11:25:54.089Z</time>
      </trkpt>
      <trkpt lat="48.3795" lon="2.54626">
        <ele>127.464</ele>
        <time>2015-05-24T11:25:54.189Z</time>
      </trkpt>
      <trkpt lat="48.37941" lon="2.5462">
        <ele>126.108</ele>
        <time>2015-05-24T11:26:29.221Z</time>
      </trkpt>
      <trkpt lat="48.37934" lon="2.54611">
        <ele>124.68</ele>
        <time>2015-05-24T11:26:40.812Z</time>
      </trkpt>
      <trkpt lat="48.37926" lon="2.54603">
        <ele>124.121</ele>
        <time>2015-05-24T11:26:48.626Z</time>
      </trkpt>
      <trkpt lat="48.37922" lon="2.5459">
        <ele>124.076</ele>
        <time>2015-05-24T11:26:56.499Z</time>
      </trkpt>
      <trkpt lat="48.37916" lon="2.5458">
        <ele>123.995</ele>
        <time>2015-05-24T11:27:04.818Z</time>
      </trkpt>
      <trkpt lat="48.37908" lon="2.54573">
        <ele>123.735</ele>
        <time>2015-05-24T11:27:14.088Z</time>
      </trkpt>
      <trkpt lat="48.37908" lon="2.54573">
        <ele>123.334</ele>
        <time>2015-05-24T11:27:27.087Z</time>
      </trkpt>
      <trkpt lat="48.37908" lon="2.54573">
        <ele>123.14</ele>
        <time>2015-05-24T11:27:27.187Z</time>
      </trkpt>
      <trkpt lat="48.37895" lon="2.5457">
        <ele>123.168</ele>
        <time>2015-05-24T11:27:51.706Z</time>
      </trkpt>
      <trkpt lat="48.37886" lon="2.54573">
        <ele>123.121</ele>
        <time>2015-05-24T11:28:03.817Z</time>
      </trkpt>
      <trkpt lat="48.3788" lon="2.54583">
        <ele>122.356</ele>
        <time>2015-05-24T11:28:15.058Z</time>
      </trkpt>
      <trkpt lat="48.37877" lon="2.54597">
        <ele>119.922</ele>
        <time>2015-05-24T11:28:26.659Z</time>
      </trkpt>
      <trkpt lat="48.3787" lon="2.54605">
        <ele>116.41</ele>
        <time>2015-05-24T11:28:37.862Z</time>
      </trkpt>
      <trkpt lat="48.3786" lon="2.54608">
        <ele>113.846</ele>
        <time>2015-05-24T11:28:47.202Z</time>
      </trkpt>
      <trkpt lat="48.37851" lon="2.54613">
        <ele>113.145</ele>
        <time>2015-05-24T11:28:55.083Z</time>
      </trkpt>
      <trkpt lat="48.37851" lon="2.54613">
        <ele>113.492</ele>
        <time>2015-05-24T11:29:08.091Z</time>
      </trkpt>
      <trkpt lat="48.37851" lon="2.54613">
        <ele>113.816</ele>
        <time>2015-05-24T11:29:08.191Z</time>
      </trkpt>
      <trkpt lat="48.37836" lon="2.54636">
        <ele>113.746</ele>
        <time>2015-05-24T11:29:46.023Z</time>
      </trkpt>
      <trkpt lat="48.37827" lon="2.54629">
        <ele>113.9</ele>
        <time>2015-05-24T11:29:58.169Z</time>
      </trkpt>
      <trkpt lat="48.37819" lon="2.54631">
        <ele>115.286</ele>
        <time>2015-05-24T11:30:10.062Z</time>
      </trkpt>
      <trkpt lat="48.3781" lon="2.54637">
        <ele>117.677</ele>
        <time>2015-05-24T11:30:22.862Z</time>
      </trkpt>
      <trkpt lat="48.378" lon="2.54633">
        <ele>119.695</ele>
        <time>2015-05-24T11:30:36.407Z</time>
      </trkpt>
      <trkpt lat="48.37792" lon="2.54628">
        <ele>120.656</ele>
        <time>2015-05-24T11:30:45.122Z</time>
      </trkpt>
      <trkpt lat="48.37783" lon="2.54623">
        <ele>120.915</ele>
        <time>2015-05-24T11:30:52.559Z</time>
      </trkpt>
      <trkpt lat="48.37775" lon="2.54615">
        <ele>120.953</ele>
        <time>2015-05-24T11:31:00.088Z</time>
      </trkpt>
      <trkpt lat="48.37775" lon="2.54615">
        <ele>120.982</ele>
        <time>2015-05-24T11:31:08.088Z</time>
      </trkpt>
      <trkpt lat="48.37775" lon="2.54615">
        <ele>120.96</ele>
        <time>2015-05-24T11:31:08.188Z</time>
      </trkpt>
      <trkpt lat="48.37764" lon="2.54623">
        <ele>120.894</ele>
        <time>2015-05-24T11:31:21.083Z</time>
      </trkpt>
      <trkpt lat="48.37764" lon="2.54623">
        <ele>120.848</ele>
        <time>2015-05-24T11:31:28.086Z</time>
      </trkpt>
      <trkpt lat="48.37764" lon="2.54623">
        <ele>120.82</ele>
        <time>2015-05-24T11:33:26.300Z</time>
      </trkpt>
      <trkpt lat="48.37755" lon="2.54628">
        <ele>120.74</ele>
        <time>2015-05-24T11:34:15.123Z</time>
      </trkpt>
      <trkpt lat="48.37746" lon="2.54629">
        <ele>120.587</ele>
        <time>2015-05-24T11:34:39.046Z</time>
      </trkpt>
      <trkpt lat="48.37738" lon="2.54623">
        <ele>119.127</ele>
        <time>2015-05-24T11:34:56.500Z</time>
      </trkpt>
      <trkpt lat="48.37728" lon="2.54623">
        <ele>115.265</ele>
        <time>2015-05-24T11:35:14.435Z</time>
      </trkpt>
      <trkpt lat="48.37719" lon="2.54625">
        <ele>109.945</ele>
        <time>2015-05-24T11:35:31.443Z</time>
      </trkpt>
      <trkpt lat="48.3771" lon="2.54624">
        <ele>105.16</ele>
        <time>2015-05-24T11:35:43.206Z</time>
      </trkpt>
      <trkpt lat="48.37701" lon="2.54623">
        <ele>101.83</ele>
        <time>2015-05-24T11:35:53.088Z</time>
      </trkpt>
      <trkpt lat="48.37701" lon="2.54623">
        <ele>100.237</ele>
        <time>2015-05-24T11:35:56.086Z</time>
      </trkpt>
      <trkpt lat="48.37701" lon="2.54623">
        <ele>100.034</ele>
        <time>2015-05-24T11:35:56.186Z</time>
      </trkpt>
      <trkpt lat="48.37692" lon="2.54629">
        <ele>100.238</ele>
        <time>2015-05-24T11:36:23.553Z</time>
      </trkpt>
      <trkpt lat="48.37683" lon="2.54629">
        <ele>100.175</ele>
        <time>2015-05-24T11:36:35.378Z</time>
      </trkpt>
      <trkpt lat="48.37673" lon="2.54633">
        <ele>99.921</ele>
        <time>2015-05-24T11:36:46.477Z</time>
      </trkpt>
      <trkpt lat="48.37667" lon="2.54645">
        <ele>99.258</ele>
        <time>2015-05-24T11:36:55.701Z</time>
      </trkpt>
      <trkpt lat="48.3766" lon="2.54655">
        <ele>98.399</ele>
        <time>2015-05-24T11:37:03.071Z</time>
      </trkpt>
      <trkpt lat="48.37657" lon="2.54669">
        <ele>97.528</ele>
        <time>2015-05-24T11:37:11.633Z</time>
      </trkpt>
      <trkpt lat="48.3765" lon="2.54678">
        <ele>96.615</ele>
        <time>2015-05-24T11:37:22.579Z</time>
      </trkpt>
      <trkpt lat="48.37641" lon="2.54682">
        <ele>96.007</ele>
        <time>2015-05-24T11:37:37.702Z</time>
      </trkpt>
      <trkpt lat="48.37632" lon="2.54688">
        <ele>97.652</ele>
        <time>2015-05-24T11:37:54.090Z</time>
      </trkpt>
      <trkpt lat="48.37632" lon="2.54688">
        <ele>102.266</ele>
        <time>2015-05-24T11:38:04.086Z</time>
      </trkpt>
      <trkpt lat="48.37632" lon="2.54688">
        <ele>106.057</ele>
        <time>2015-05-24T11:39:27.617Z</time>
      </trkpt>
      <trkpt lat="48.37611" lon="2.54703">
        <ele>105.944</ele>
        <time>2015-05-24T11:40:02.013Z</time>
      </trkpt>
      <trkpt lat="48.37619" lon="2.54693">
        <ele>105.393</ele>
        <time>2015-05-24T11:40:11.451Z</time>
      </trkpt>
      <trkpt lat="48.37619" lon="2.5468">
        <ele>108</ele>
        <time>2015-05-24T11:40:18.342Z</time>
      </trkpt>
      <trkpt lat="48.37623" lon="2.54665">
        <ele>111.994</ele>
        <time>2015-05-24T11:40:27.076Z</time>
      </trkpt>
      <trkpt lat="48.3762" lon="2.54652">
        <ele>114.457</ele>
        <time>2015-05-24T11:40:35.537Z</time>
      </trkpt>
      <trkpt lat="48.37619" lon="2.54638">
        <ele>115.407</ele>
        <time>2015-05-24T11:40:42.696Z</time>
      </trkpt>
      <trkpt lat="48.3762" lon="2.54621">
        <ele>115.635</ele>
        <time>2015-05-24T11:40:52.866Z</time>
      </trkpt>
      <trkpt lat="48.37617" lon="2.54608">
        <ele>115.723</ele>
        <time>2015-05-24T11:41:01.254Z</time>
      </trkpt>
      <trkpt lat="48.37612" lon="2.54597">
        <ele>116.101</ele>
        <time>2015-05-24T11:41:08.440Z</time>
      </trkpt>
      <trkpt lat="48.37608" lon="2.54584">
        <ele>116.757</ele>
        <time>2015-05-24T11:41:17.718Z</time>
      </trkpt>
      <trkpt lat="48.37602" lon="2.54573">
        <ele>117.212</ele>
        <time>2015-05-24T11:41:27.589Z</time>
      </trkpt>
      <trkpt lat="48.37601" lon="2.54559">
        <ele>117.382</ele>
        <time>2015-05-24T11:41:40.309Z</time>
      </trkpt>
      <trkpt lat="48.37602" lon="2.54545">
        <ele>117.503</ele>
        <time>2015-05-24T11:41:51.090Z</time>
      </trkpt>
      <trkpt lat="48.37602" lon="2.54545">
        <ele>117.699</ele>
        <time>2015-05-24T11:42:18.095Z</time>
      </trkpt>
      <trkpt lat="48.37602" lon="2.54545">
        <ele>117.778</ele>
        <time>2015-05-24T11:42:18.195Z</time>
      </trkpt>
      <trkpt lat="48.37604" lon="2.5453">
        <ele>117.693</ele>
        <time>2015-05-24T11:42:46.880Z</time>
      </trkpt>
      <trkpt lat="48.37605" lon="2.54516">
        <ele>116.82</ele>
        <time>2015-05-24T11:43:00.722Z</time>
      </trkpt>
      <trkpt lat="48.37604" lon="2.54501">
        <ele>114.859</ele>
        <time>2015-05-24T11:43:19.299Z</time>
      </trkpt>
      <trkpt lat="48.37604" lon="2.54486">
        <ele>112.787</ele>
        <time>2015-05-24T11:43:33.267Z</time>
      </trkpt>
      <trkpt lat="48.37606" lon="2.54472">
        <ele>111.355</ele>
        <time>2015-05-24T11:43:41.470Z</time>
      </trkpt>
      <trkpt lat="48.37606" lon="2.54458">
        <ele>109.954</ele>
        <time>2015-05-24T11:43:50.385Z</time>
      </trkpt>
      <trkpt lat="48.37601" lon="2.54446">
        <ele>108.47</ele>
        <time>2015-05-24T11:44:01.253Z</time>
      </trkpt>
      <trkpt lat="48.37605" lon="2.54431">
        <ele>107.644</ele>
        <time>2015-05-24T11:44:13.453Z</time>
      </trkpt>
      <trkpt lat="48.37604" lon="2.54417">
        <ele>108.451</ele>
        <time>2015-05-24T11:44:27.139Z</time>
      </trkpt>
      <trkpt lat="48.376" lon="2.54405">
        <ele>110.797</ele>
        <time>2015-05-24T11:44:43.224Z</time>
      </trkpt>
      <trkpt lat="48.37593" lon="2.54395">
        <ele>113.144</ele>
        <time>2015-05-24T11:45:01.339Z</time>
      </trkpt>
      <trkpt lat="48.37594" lon="2.54378">
        <ele>114.927</ele>
        <time>2015-05-24T11:45:19.806Z</time>
      </trkpt>
      <trkpt lat="48.37594" lon="2.54362">
        <ele>117.465</ele>
        <time>2015-05-24T11:45:34.318Z</time>
      </trkpt>
      <trkpt lat="48.37597" lon="2.54348">
        <ele>120.654</ele>
        <time>2015-05-24T11:45:45.100Z</time>
      </trkpt>
      <trkpt lat="48.37597" lon="2.54348">
        <ele>122.55</ele>
        <time>2015-05-24T11:46:01.088Z</time>
      </trkpt>
      <trkpt lat="48.37597" lon="2.54348">
        <ele>122.378</ele>
        <time>2015-05-24T11:46:01.188Z</time>
      </trkpt>
      <trkpt lat="48.37591" lon="2.54329">
        <ele>121.336</ele>
        <time>2015-05-24T11:46:13.817Z</time>
      </trkpt>
      <trkpt lat="48.3759" lon="2.54315">
        <ele>120.126</ele>
        <time>2015-05-24T11:46:19.091Z</time>
      </trkpt>
      <trkpt lat="48.3759" lon="2.54315">
        <ele>118.633</ele>
        <time>2015-05-24T11:46:23.096Z</time>
      </trkpt>
      <trkpt lat="48.3759" lon="2.54315">
        <ele>117.576</ele>
        <time>2015-05-24T11:46:23.196Z</time>
      </trkpt>
      <trkpt lat="48.37582" lon="2.54303">
        <ele>118.062</ele>
        <time>2015-05-24T11:46:49.231Z</time>
      </trkpt>
      <trkpt lat="48.37578" lon="2.54289">
        <ele>118.434</ele>
        <time>2015-05-24T11:47:02.481Z</time>
      </trkpt>
      <trkpt lat="48.37576" lon="2.54275">
        <ele>118.129</ele>
        <time>2015-05-24T11:47:15.190Z</time>
      </trkpt>
      <trkpt lat="48.37573" lon="2.54261">
        <ele>117.522</ele>
        <time>2015-05-24T11:47:27.635Z</time>
      </trkpt>
      <trkpt lat="48.37567" lon="2.54249">
        <ele>117.119</ele>
        <time>2015-05-24T11:47:38.023Z</time>
      </trkpt>
      <trkpt lat="48.3757" lon="2.54236">
        <ele>116.553</ele>
        <time>2015-05-24T11:47:48.635Z</time>
      </trkpt>
      <trkpt lat="48.3757" lon="2.54222">
        <ele>115.665</ele>
        <time>2015-05-24T11:47:59.374Z</time>
      </trkpt>
      <trkpt lat="48.37575" lon="2.54209">
        <ele>114.871</ele>
        <time>2015-05-24T11:48:10.357Z</time>
      </trkpt>
      <trkpt lat="48.3758" lon="2.54196">
        <ele>114.046</ele>
        <time>2015-05-24T11:48:20.389Z</time>
      </trkpt>
      <trkpt lat="48.37582" lon="2.54182">
        <ele>112.092</ele>
        <time>2015-05-24T11:48:28.389Z</time>
      </trkpt>
      <trkpt lat="48.37584" lon="2.54167">
        <ele>108.083</ele>
        <time>2015-05-24T11:48:37.811Z</time>
      </trkpt>
      <trkpt lat="48.37585" lon="2.54153">
        <ele>103.601</ele>
        <time>2015-05-24T11:48:49.294Z</time>
      </trkpt>
      <trkpt lat="48.37587" lon="2.5414">
        <ele>100.808</ele>
        <time>2015-05-24T11:49:01.279Z</time>
      </trkpt>
      <trkpt lat="48.37584" lon="2.54125">
        <ele>99.581</ele>
        <time>2015-05-24T11:49:11.781Z</time>
      </trkpt>
      <trkpt lat="48.37581" lon="2.54112">
        <ele>98.745</ele>
        <time>2015-05-24T11:49:19.622Z</time>
      </trkpt>
      <trkpt lat="48.37574" lon="2.54102">
        <ele>98.076</ele>
        <time>2015-05-24T11:49:26.792Z</time>
      </trkpt>
      <trkpt lat="48.37569" lon="2.5409">
        <ele>98.543</ele>
        <time>2015-05-24T11:49:35.476Z</time>
      </trkpt>
      <trkpt lat="48.37565" lon="2.54077">
        <ele>100.38</ele>
        <time>2015-05-24T11:49:45.292Z</time>
      </trkpt>
      <trkpt lat="48.37561" lon="2.54061">
        <ele>102.09</ele>
        <time>2015-05-24T11:49:55.624Z</time>
      </trkpt>
      <trkpt lat="48.37561" lon="2.54046">
        <ele>102.404</ele>
        <time>2015-05-24T11:50:04.117Z</time>
      </trkpt>
      <trkpt lat="48.37558" lon="2.54032">
        <ele>101.637</ele>
        <time>2015-05-24T11:50:12.147Z</time>
      </trkpt>
      <trkpt lat="48.37557" lon="2.54018">
        <ele>100.427</ele>
        <time>2015-05-24T11:50:19.054Z</time>
      </trkpt>
      <trkpt lat="48.37554" lon="2.54003">
        <ele>98.992</ele>
        <time>2015-05-24T11:50:26.892Z</time>
      </trkpt>
      <trkpt lat="48.37547" lon="2.53994">
        <ele>97.444</ele>
        <time>2015-05-24T11:50:34.548Z</time>
      </trkpt>
      <trkpt lat="48.37537" lon="2.53992">
        <ele>95.912</ele>
        <time>2015-05-24T11:50:43.895Z</time>
      </trkpt>
      <trkpt lat="48.37528" lon="2.53996">
        <ele>94.579</ele>
        <time>2015-05-24T11:50:54.530Z</time>
      </trkpt>
      <trkpt lat="48.37518" lon="2.53995">
        <ele>93.192</ele>
        <time>2015-05-24T11:51:03.760Z</time>
      </trkpt>
      <trkpt lat="48.37509" lon="2.53994">
        <ele>91.331</ele>
        <time>2015-05-24T11:51:12.438Z</time>
      </trkpt>
      <trkpt lat="48.37498" lon="2.53993">
        <ele>89.386</ele>
        <time>2015-05-24T11:51:21.387Z</time>
      </trkpt>
      <trkpt lat="48.37488" lon="2.53991">
        <ele>87.625</ele>
        <time>2015-05-24T11:51:31.031Z</time>
      </trkpt>
      <trkpt lat="48.37478" lon="2.53994">
        <ele>85.388</ele>
        <time>2015-05-24T11:51:40.821Z</time>
      </trkpt>
      <trkpt lat="48.37468" lon="2.53998">
        <ele>82.892</ele>
        <time>2015-05-24T11:51:48.717Z</time>
      </trkpt>
      <trkpt lat="48.37461" lon="2.5401">
        <ele>81.224</ele>
        <time>2015-05-24T11:51:58.180Z</time>
      </trkpt>
      <trkpt lat="48.37455" lon="2.5402">
        <ele>80.393</ele>
        <time>2015-05-24T11:52:06.746Z</time>
      </trkpt>
      <trkpt lat="48.37447" lon="2.54029">
        <ele>79.493</ele>
        <time>2015-05-24T11:52:14.539Z</time>
      </trkpt>
      <trkpt lat="48.37439" lon="2.54037">
        <ele>78.305</ele>
        <time>2015-05-24T11:52:21.971Z</time>
      </trkpt>
      <trkpt lat="48.37432" lon="2.54046">
        <ele>77.34</ele>
        <time>2015-05-24T11:52:28.950Z</time>
      </trkpt>
      <trkpt lat="48.37426" lon="2.54058">
        <ele>77.222</ele>
        <time>2015-05-24T11:52:37.073Z</time>
      </trkpt>
      <trkpt lat="48.3742" lon="2.54071">
        <ele>78.356</ele>
        <time>2015-05-24T11:52:45.405Z</time>
      </trkpt>
      <trkpt lat="48.37414" lon="2.54081">
        <ele>79.882</ele>
        <time>2015-05-24T11:52:53.445Z</time>
      </trkpt>
      <trkpt lat="48.37404" lon="2.54086">
        <ele>80.463</ele>
        <time>2015-05-24T11:53:02.460Z</time>
      </trkpt>
      <trkpt lat="48.37395" lon="2.54086">
        <ele>80.151</ele>
        <time>2015-05-24T11:53:12.286Z</time>
      </trkpt>
      <trkpt lat="48.37386" lon="2.54082">
        <ele>80.101</ele>
        <time>2015-05-24T11:53:24.100Z</time>
      </trkpt>
      <trkpt lat="48.37386" lon="2.54082">
        <ele>80.799</ele>
        <time>2015-05-24T11:53:32.101Z</time>
      </trkpt>
      <trkpt lat="48.37386" lon="2.54082">
        <ele>81.495</ele>
        <time>2015-05-24T11:53:32.201Z</time>
      </trkpt>
      <trkpt lat="48.3737" lon="2.54082">
        <ele>81.464</ele>
        <time>2015-05-24T11:54:00.706Z</time>
      </trkpt>
      <trkpt lat="48.37361" lon="2.54088">
        <ele>81.565</ele>
        <time>2015-05-24T11:54:09.963Z</time>
      </trkpt>
      <trkpt lat="48.37352" lon="2.54089">
        <ele>82.6</ele>
        <time>2015-05-24T11:54:20.568Z</time>
      </trkpt>
      <trkpt lat="48.37344" lon="2.54083">
        <ele>84.307</ele>
        <time>2015-05-24T11:54:31.331Z</time>
      </trkpt>
      <trkpt lat="48.37336" lon="2.54077">
        <ele>85.895</ele>
        <time>2015-05-24T11:54:40.844Z</time>
      </trkpt>
      <trkpt lat="48.37326" lon="2.54077">
        <ele>87.042</ele>
        <time>2015-05-24T11:54:50.698Z</time>
      </trkpt>
      <trkpt lat="48.37317" lon="2.54074">
        <ele>87.982</ele>
        <time>2015-05-24T11:55:00.522Z</time>
      </trkpt>
      <trkpt lat="48.37307" lon="2.54068">
        <ele>89.102</ele>
        <time>2015-05-24T11:55:10.377Z</time>
      </trkpt>
      <trkpt lat="48.37299" lon="2.54062">
        <ele>90.554</ele>
        <time>2015-05-24T11:55:18.850Z</time>
      </trkpt>
      <trkpt lat="48.37289" lon="2.54059">
        <ele>92.141</ele>
        <time>2015-05-24T11:55:27.327Z</time>
      </trkpt>
      <trkpt lat="48.37279" lon="2.54061">
        <ele>93.074</ele>
        <time>2015-05-24T11:55:34.619Z</time>
      </trkpt>
      <trkpt lat="48.3727" lon="2.54065">
        <ele>93.066</ele>
        <time>2015-05-24T11:55:42.004Z</time>
      </trkpt>
      <trkpt lat="48.3726" lon="2.54066">
        <ele>92.571</ele>
        <time>2015-05-24T11:55:51.120Z</time>
      </trkpt>
      <trkpt lat="48.3725" lon="2.54066">
        <ele>92.493</ele>
        <time>2015-05-24T11:56:01.061Z</time>
      </trkpt>
      <trkpt lat="48.37241" lon="2.54072">
        <ele>93.234</ele>
        <time>2015-05-24T11:56:11.451Z</time>
      </trkpt>
      <trkpt lat="48.37236" lon="2.54061">
        <ele>94.047</ele>
        <time>2015-05-24T11:56:20.245Z</time>
      </trkpt>
      <trkpt lat="48.3723" lon="2.5405">
        <ele>94.112</ele>
        <time>2015-05-24T11:56:27.755Z</time>
      </trkpt>
      <trkpt lat="48.37225" lon="2.54038">
        <ele>93.714</ele>
        <time>2015-05-24T11:56:35.450Z</time>
      </trkpt>
      <trkpt lat="48.3722" lon="2.54027">
        <ele>92.801</ele>
        <time>2015-05-24T11:56:45.053Z</time>
      </trkpt>
      <trkpt lat="48.37218" lon="2.54011">
        <ele>91.751</ele>
        <time>2015-05-24T11:56:57.466Z</time>
      </trkpt>
      <trkpt lat="48.37219" lon="2.53998">
        <ele>91.54</ele>
        <time>2015-05-24T11:57:08.783Z</time>
      </trkpt>
      <trkpt lat="48.37217" lon="2.53984">
        <ele>91.871</ele>
        <time>2015-05-24T11:57:20.086Z</time>
      </trkpt>
      <trkpt lat="48.37208" lon="2.53976">
        <ele>91.573</ele>
        <time>2015-05-24T11:57:30.515Z</time>
      </trkpt>
      <trkpt lat="48.37206" lon="2.53962">
        <ele>90.628</ele>
        <time>2015-05-24T11:57:40.113Z</time>
      </trkpt>
      <trkpt lat="48.37198" lon="2.53954">
        <ele>89.666</ele>
        <time>2015-05-24T11:57:50.873Z</time>
      </trkpt>
      <trkpt lat="48.3719" lon="2.53949">
        <ele>89.345</ele>
        <time>2015-05-24T11:58:01.642Z</time>
      </trkpt>
      <trkpt lat="48.37181" lon="2.53942">
        <ele>89.894</ele>
        <time>2015-05-24T11:58:11.595Z</time>
      </trkpt>
      <trkpt lat="48.37174" lon="2.53934">
        <ele>91.669</ele>
        <time>2015-05-24T11:58:21.389Z</time>
      </trkpt>
      <trkpt lat="48.37164" lon="2.53932">
        <ele>94.784</ele>
        <time>2015-05-24T11:58:30.500Z</time>
      </trkpt>
      <trkpt lat="48.37155" lon="2.53932">
        <ele>98.35</ele>
        <time>2015-05-24T11:58:38.071Z</time>
      </trkpt>
      <trkpt lat="48.37146" lon="2.53928">
        <ele>100.956</ele>
        <time>2015-05-24T11:58:45.821Z</time>
      </trkpt>
      <trkpt lat="48.37136" lon="2.53924">
        <ele>102.345</ele>
        <time>2015-05-24T11:58:54.253Z</time>
      </trkpt>
      <trkpt lat="48.37128" lon="2.53914">
        <ele>103.172</ele>
        <time>2015-05-24T11:59:05.812Z</time>
      </trkpt>
      <trkpt lat="48.37127" lon="2.539">
        <ele>103.672</ele>
        <time>2015-05-24T11:59:17.534Z</time>
      </trkpt>
      <trkpt lat="48.37122" lon="2.53887">
        <ele>103.738</ele>
        <time>2015-05-24T11:59:30.099Z</time>
      </trkpt>
      <trkpt lat="48.37122" lon="2.53887">
        <ele>103.542</ele>
        <time>2015-05-24T11:59:44.101Z</time>
      </trkpt>
      <trkpt lat="48.37122" lon="2.53887">
        <ele>103.347</ele>
        <time>2015-05-24T11:59:44.201Z</time>
      </trkpt>
      <trkpt lat="48.37108" lon="2.53881">
        <ele>103.332</ele>
        <time>2015-05-24T12:00:05.104Z</time>
      </trkpt>
      <trkpt lat="48.37108" lon="2.53881">
        <ele>103.427</ele>
        <time>2015-05-24T12:00:19.108Z</time>
      </trkpt>
      <trkpt lat="48.37108" lon="2.53881">
        <ele>103.462</ele>
        <time>2015-05-24T12:00:19.208Z</time>
      </trkpt>
      <trkpt lat="48.37099" lon="2.53869">
        <ele>103.406</ele>
        <time>2015-05-24T12:00:54.567Z</time>
      </trkpt>
      <trkpt lat="48.3709" lon="2.53866">
        <ele>104.399</ele>
        <time>2015-05-24T12:01:04.176Z</time>
      </trkpt>
      <trkpt lat="48.3708" lon="2.53861">
        <ele>107.321</ele>
        <time>2015-05-24T12:01:12.714Z</time>
      </trkpt>
      <trkpt lat="48.37073" lon="2.53851">
        <ele>110.46</ele>
        <time>2015-05-24T12:01:21.020Z</time>
      </trkpt>
      <trkpt lat="48.37067" lon="2.5384">
        <ele>111.73</ele>
        <time>2015-05-24T12:01:29.657Z</time>
      </trkpt>
      <trkpt lat="48.37058" lon="2.53843">
        <ele>110.818</ele>
        <time>2015-05-24T12:01:39.189Z</time>
      </trkpt>
      <trkpt lat="48.37051" lon="2.53833">
        <ele>108.553</ele>
        <time>2015-05-24T12:01:48.334Z</time>
      </trkpt>
      <trkpt lat="48.37048" lon="2.5382">
        <ele>107.331</ele>
        <time>2015-05-24T12:01:55.873Z</time>
      </trkpt>
      <trkpt lat="48.37043" lon="2.53806">
        <ele>108.591</ele>
        <time>2015-05-24T12:02:04.027Z</time>
      </trkpt>
      <trkpt lat="48.37037" lon="2.53794">
        <ele>110.549</ele>
        <time>2015-05-24T12:02:12.812Z</time>
      </trkpt>
      <trkpt lat="48.37037" lon="2.5378">
        <ele>111.358</ele>
        <time>2015-05-24T12:02:21.299Z</time>
      </trkpt>
      <trkpt lat="48.37037" lon="2.53766">
        <ele>111.245</ele>
        <time>2015-05-24T12:02:30.099Z</time>
      </trkpt>
      <trkpt lat="48.37037" lon="2.53766">
        <ele>110.985</ele>
        <time>2015-05-24T12:02:32.114Z</time>
      </trkpt>
      <trkpt lat="48.37037" lon="2.53766">
        <ele>110.889</ele>
        <time>2015-05-24T12:02:33.498Z</time>
      </trkpt>
      <trkpt lat="48.37037" lon="2.53766">
        <ele>110.866</ele>
        <time>2015-05-24T12:02:48.098Z</time>
      </trkpt>
      <trkpt lat="48.37037" lon="2.53766">
        <ele>110.842</ele>
        <time>2015-05-24T12:02:48.198Z</time>
      </trkpt>
      <trkpt lat="48.3703" lon="2.5375">
        <ele>110.801</ele>
        <time>2015-05-24T12:03:02.103Z</time>
      </trkpt>
      <trkpt lat="48.3703" lon="2.5375">
        <ele>110.748</ele>
        <time>2015-05-24T12:03:12.095Z</time>
      </trkpt>
      <trkpt lat="48.3703" lon="2.5375">
        <ele>110.695</ele>
        <time>2015-05-24T12:03:12.195Z</time>
      </trkpt>
      <trkpt lat="48.37023" lon="2.53741">
        <ele>110.62</ele>
        <time>2015-05-24T12:03:34.099Z</time>
      </trkpt>
      <trkpt lat="48.37023" lon="2.53741">
        <ele>110.613</ele>
        <time>2015-05-24T12:03:42.095Z</time>
      </trkpt>
      <trkpt lat="48.37023" lon="2.53741">
        <ele>110.597</ele>
        <time>2015-05-24T12:03:42.195Z</time>
      </trkpt>
      <trkpt lat="48.37014" lon="2.53735">
        <ele>110.506</ele>
        <time>2015-05-24T12:04:09.096Z</time>
      </trkpt>
      <trkpt lat="48.37014" lon="2.53735">
        <ele>110.481</ele>
        <time>2015-05-24T12:04:14.100Z</time>
      </trkpt>
      <trkpt lat="48.37014" lon="2.53735">
        <ele>110.462</ele>
        <time>2015-05-24T12:04:23.592Z</time>
      </trkpt>
      <trkpt lat="48.37014" lon="2.53735">
        <ele>110.379</ele>
        <time>2015-05-24T12:04:58.100Z</time>
      </trkpt>
      <trkpt lat="48.37014" lon="2.53735">
        <ele>110.345</ele>
        <time>2015-05-24T12:04:58.200Z</time>
      </trkpt>
      <trkpt lat="48.37014" lon="2.53735">
        <ele>110.276</ele>
        <time>2015-05-24T12:05:02.095Z</time>
      </trkpt>
      <trkpt lat="48.37014" lon="2.53735">
        <ele>110.244</ele>
        <time>2015-05-24T12:05:02.195Z</time>
      </trkpt>
      <trkpt lat="48.37015" lon="2.5371">
        <ele>110.207</ele>
        <time>2015-05-24T12:05:25.994Z</time>
      </trkpt>
      <trkpt lat="48.37013" lon="2.53694">
        <ele>110.02</ele>
        <time>2015-05-24T12:05:35.099Z</time>
      </trkpt>
      <trkpt lat="48.37013" lon="2.53694">
        <ele>109.605</ele>
        <time>2015-05-24T12:05:48.099Z</time>
      </trkpt>
      <trkpt lat="48.37013" lon="2.53694">
        <ele>109.254</ele>
        <time>2015-05-24T12:05:48.199Z</time>
      </trkpt>
      <trkpt lat="48.37012" lon="2.53675">
        <ele>109.216</ele>
        <time>2015-05-24T12:06:04.973Z</time>
      </trkpt>
      <trkpt lat="48.3701" lon="2.53661">
        <ele>109.252</ele>
        <time>2015-05-24T12:06:14.638Z</time>
      </trkpt>
      <trkpt lat="48.37004" lon="2.53647">
        <ele>108.49</ele>
        <time>2015-05-24T12:06:26.415Z</time>
      </trkpt>
      <trkpt lat="48.36996" lon="2.53658">
        <ele>106.227</ele>
        <time>2015-05-24T12:06:40.499Z</time>
      </trkpt>
      <trkpt lat="48.36995" lon="2.53644">
        <ele>103.329</ele>
        <time>2015-05-24T12:06:54.097Z</time>
      </trkpt>
      <trkpt lat="48.36995" lon="2.53644">
        <ele>101.374</ele>
        <time>2015-05-24T12:07:02.127Z</time>
      </trkpt>
      <trkpt lat="48.36995" lon="2.53644">
        <ele>100.738</ele>
        <time>2015-05-24T12:07:02.227Z</time>
      </trkpt>
      <trkpt lat="48.3699" lon="2.53628">
        <ele>100.828</ele>
        <time>2015-05-24T12:07:23.975Z</time>
      </trkpt>
      <trkpt lat="48.36988" lon="2.53614">
        <ele>100.426</ele>
        <time>2015-05-24T12:07:36.692Z</time>
      </trkpt>
      <trkpt lat="48.3698" lon="2.53606">
        <ele>98.88</ele>
        <time>2015-05-24T12:07:48.098Z</time>
      </trkpt>
      <trkpt lat="48.3698" lon="2.53606">
        <ele>97.488</ele>
        <time>2015-05-24T12:07:57.098Z</time>
      </trkpt>
      <trkpt lat="48.3698" lon="2.53606">
        <ele>97.46</ele>
        <time>2015-05-24T12:07:57.198Z</time>
      </trkpt>
      <trkpt lat="48.36968" lon="2.53608">
        <ele>98.148</ele>
        <time>2015-05-24T12:08:13.317Z</time>
      </trkpt>
      <trkpt lat="48.36958" lon="2.53606">
        <ele>99.42</ele>
        <time>2015-05-24T12:08:23.173Z</time>
      </trkpt>
      <trkpt lat="48.36948" lon="2.53602">
        <ele>101.618</ele>
        <time>2015-05-24T12:08:33.096Z</time>
      </trkpt>
      <trkpt lat="48.36948" lon="2.53602">
        <ele>103.759</ele>
        <time>2015-05-24T12:08:43.102Z</time>
      </trkpt>
      <trkpt lat="48.36948" lon="2.53602">
        <ele>104.67</ele>
        <time>2015-05-24T12:08:43.202Z</time>
      </trkpt>
      <trkpt lat="48.36937" lon="2.53589">
        <ele>104.213</ele>
        <time>2015-05-24T12:09:07.717Z</time>
      </trkpt>
      <trkpt lat="48.36937" lon="2.53575">
        <ele>102.553</ele>
        <time>2015-05-24T12:09:25.936Z</time>
      </trkpt>
      <trkpt lat="48.36935" lon="2.53561">
        <ele>100.202</ele>
        <time>2015-05-24T12:09:44.120Z</time>
      </trkpt>
      <trkpt lat="48.36934" lon="2.53545">
        <ele>97.489</ele>
        <time>2015-05-24T12:10:03.613Z</time>
      </trkpt>
      <trkpt lat="48.36932" lon="2.53531">
        <ele>94.689</ele>
        <time>2015-05-24T12:10:18.724Z</time>
      </trkpt>
      <trkpt lat="48.36934" lon="2.53517">
        <ele>92.234</ele>
        <time>2015-05-24T12:10:32.108Z</time>
      </trkpt>
      <trkpt lat="48.36934" lon="2.53517">
        <ele>90.395</ele>
        <time>2015-05-24T12:10:40.101Z</time>
      </trkpt>
      <trkpt lat="48.36934" lon="2.53517">
        <ele>89.451</ele>
        <time>2015-05-24T12:12:43.236Z</time>
      </trkpt>
      <trkpt lat="48.36928" lon="2.53506">
        <ele>89.937</ele>
        <time>2015-05-24T12:13:18.931Z</time>
      </trkpt>
      <trkpt lat="48.36918" lon="2.53498">
        <ele>90.058</ele>
        <time>2015-05-24T12:13:45.521Z</time>
      </trkpt>
      <trkpt lat="48.36909" lon="2.53496">
        <ele>89.669</ele>
        <time>2015-05-24T12:13:57.432Z</time>
      </trkpt>
      <trkpt lat="48.36901" lon="2.53488">
        <ele>89.15</ele>
        <time>2015-05-24T12:14:10.343Z</time>
      </trkpt>
      <trkpt lat="48.36892" lon="2.53489">
        <ele>87.974</ele>
        <time>2015-05-24T12:14:20.511Z</time>
      </trkpt>
      <trkpt lat="48.36883" lon="2.53486">
        <ele>85.575</ele>
        <time>2015-05-24T12:14:30.602Z</time>
      </trkpt>
      <trkpt lat="48.36874" lon="2.53481">
        <ele>83.383</ele>
        <time>2015-05-24T12:14:42.462Z</time>
      </trkpt>
      <trkpt lat="48.36864" lon="2.5348">
        <ele>83.24</ele>
        <time>2015-05-24T12:14:54.103Z</time>
      </trkpt>
      <trkpt lat="48.36864" lon="2.5348">
        <ele>84.86</ele>
        <time>2015-05-24T12:15:08.108Z</time>
      </trkpt>
      <trkpt lat="48.36864" lon="2.5348">
        <ele>86.269</ele>
        <time>2015-05-24T12:15:08.208Z</time>
      </trkpt>
      <trkpt lat="48.36844" lon="2.53502">
        <ele>86.218</ele>
        <time>2015-05-24T12:15:53.886Z</time>
      </trkpt>
      <trkpt lat="48.36835" lon="2.53505">
        <ele>87.212</ele>
        <time>2015-05-24T12:16:04.480Z</time>
      </trkpt>
      <trkpt lat="48.36827" lon="2.53512">
        <ele>91.615</ele>
        <time>2015-05-24T12:16:16.501Z</time>
      </trkpt>
      <trkpt lat="48.36818" lon="2.53512">
        <ele>97.786</ele>
        <time>2015-05-24T12:16:27.823Z</time>
      </trkpt>
      <trkpt lat="48.36809" lon="2.53508">
        <ele>102.875</ele>
        <time>2015-05-24T12:16:36.976Z</time>
      </trkpt>
      <trkpt lat="48.36799" lon="2.5351">
        <ele>105.683</ele>
        <time>2015-05-24T12:16:44.875Z</time>
      </trkpt>
      <trkpt lat="48.36791" lon="2.53504">
        <ele>106.16</ele>
        <time>2015-05-24T12:16:52.768Z</time>
      </trkpt>
      <trkpt lat="48.36781" lon="2.53507">
        <ele>105.643</ele>
        <time>2015-05-24T12:17:03.173Z</time>
      </trkpt>
      <trkpt lat="48.36772" lon="2.53503">
        <ele>105.263</ele>
        <time>2015-05-24T12:17:14.106Z</time>
      </trkpt>
      <trkpt lat="48.36772" lon="2.53503">
        <ele>105.134</ele>
        <time>2015-05-24T12:17:14.106Z</time>
      </trkpt>
      <trkpt lat="48.36772" lon="2.53503">
        <ele>105.043</ele>
        <time>2015-05-24T12:17:33.111Z</time>
      </trkpt>
      <trkpt lat="48.36772" lon="2.53503">
        <ele>105.019</ele>
        <time>2015-05-24T12:17:33.211Z</time>
      </trkpt>
      <trkpt lat="48.3676" lon="2.53498">
        <ele>104.997</ele>
        <time>2015-05-24T12:17:44.104Z</time>
      </trkpt>
      <trkpt lat="48.3676" lon="2.53498">
        <ele>104.957</ele>
        <time>2015-05-24T12:18:11.113Z</time>
      </trkpt>
      <trkpt lat="48.3676" lon="2.53498">
        <ele>104.903</ele>
        <time>2015-05-24T12:18:11.213Z</time>
      </trkpt>
      <trkpt lat="48.36748" lon="2.53492">
        <ele>104.858</ele>
        <time>2015-05-24T12:18:46.365Z</time>
      </trkpt>
      <trkpt lat="48.36742" lon="2.5348">
        <ele>103.984</ele>
        <time>2015-05-24T12:18:55.974Z</time>
      </trkpt>
      <trkpt lat="48.36736" lon="2.5347">
        <ele>101.301</ele>
        <time>2015-05-24T12:19:06.851Z</time>
      </trkpt>
      <trkpt lat="48.36731" lon="2.53458">
        <ele>97.821</ele>
        <time>2015-05-24T12:19:17.239Z</time>
      </trkpt>
      <trkpt lat="48.36728" lon="2.53444">
        <ele>95.419</ele>
        <time>2015-05-24T12:19:25.746Z</time>
      </trkpt>
      <trkpt lat="48.36724" lon="2.5343">
        <ele>93.958</ele>
        <time>2015-05-24T12:19:31.746Z</time>
      </trkpt>
      <trkpt lat="48.36717" lon="2.5342">
        <ele>92.439</ele>
        <time>2015-05-24T12:19:37.123Z</time>
      </trkpt>
      <trkpt lat="48.36717" lon="2.5342">
        <ele>91.021</ele>
        <time>2015-05-24T12:19:42.110Z</time>
      </trkpt>
      <trkpt lat="48.36717" lon="2.5342">
        <ele>90.354</ele>
        <time>2015-05-24T12:19:42.210Z</time>
      </trkpt>
      <trkpt lat="48.36709" lon="2.53415">
        <ele>90.391</ele>
        <time>2015-05-24T12:20:00.342Z</time>
      </trkpt>
      <trkpt lat="48.36701" lon="2.53421">
        <ele>89.567</ele>
        <time>2015-05-24T12:20:10.981Z</time>
      </trkpt>
      <trkpt lat="48.36692" lon="2.53415">
        <ele>86.874</ele>
        <time>2015-05-24T12:20:22.110Z</time>
      </trkpt>
      <trkpt lat="48.36692" lon="2.53415">
        <ele>84.215</ele>
        <time>2015-05-24T12:20:39.119Z</time>
      </trkpt>
      <trkpt lat="48.36692" lon="2.53415">
        <ele>83.441</ele>
        <time>2015-05-24T12:20:39.219Z</time>
      </trkpt>
      <trkpt lat="48.36682" lon="2.53436">
        <ele>83.789</ele>
        <time>2015-05-24T12:20:57.988Z</time>
      </trkpt>
      <trkpt lat="48.36681" lon="2.53451">
        <ele>84.137</ele>
        <time>2015-05-24T12:21:05.284Z</time>
      </trkpt>
      <trkpt lat="48.36678" lon="2.53465">
        <ele>83.979</ele>
        <time>2015-05-24T12:21:13.017Z</time>
      </trkpt>
      <trkpt lat="48.36674" lon="2.53478">
        <ele>83.668</ele>
        <time>2015-05-24T12:21:21.511Z</time>
      </trkpt>
      <trkpt lat="48.36668" lon="2.5349">
        <ele>83.992</ele>
        <time>2015-05-24T12:21:29.694Z</time>
      </trkpt>
      <trkpt lat="48.36667" lon="2.53504">
        <ele>84.847</ele>
        <time>2015-05-24T12:21:40.117Z</time>
      </trkpt>
      <trkpt lat="48.36661" lon="2.53519">
        <ele>85.485</ele>
        <time>2015-05-24T12:21:53.115Z</time>
      </trkpt>
      <trkpt lat="48.36654" lon="2.53528">
        <ele>87.352</ele>
        <time>2015-05-24T12:22:12.783Z</time>
      </trkpt>
      <trkpt lat="48.36649" lon="2.53539">
        <ele>91.597</ele>
        <time>2015-05-24T12:22:25.109Z</time>
      </trkpt>
      <trkpt lat="48.36649" lon="2.53539">
        <ele>95.798</ele>
        <time>2015-05-24T12:22:28.123Z</time>
      </trkpt>
      <trkpt lat="48.36649" lon="2.53539">
        <ele>97.438</ele>
        <time>2015-05-24T12:22:28.223Z</time>
      </trkpt>
      <trkpt lat="48.36647" lon="2.53567">
        <ele>97.117</ele>
        <time>2015-05-24T12:23:11.565Z</time>
      </trkpt>
      <trkpt lat="48.3665" lon="2.5358">
        <ele>97.739</ele>
        <time>2015-05-24T12:23:21.493Z</time>
      </trkpt>
      <trkpt lat="48.36653" lon="2.53593">
        <ele>101.304</ele>
        <time>2015-05-24T12:23:30.131Z</time>
      </trkpt>
      <trkpt lat="48.36653" lon="2.53593">
        <ele>105.517</ele>
        <time>2015-05-24T12:23:42.122Z</time>
      </trkpt>
      <trkpt lat="48.36653" lon="2.53593">
        <ele>107.303</ele>
        <time>2015-05-24T12:23:42.222Z</time>
      </trkpt>
      <trkpt lat="48.36644" lon="2.53601">
        <ele>106.927</ele>
        <time>2015-05-24T12:24:03.486Z</time>
      </trkpt>
      <trkpt lat="48.36636" lon="2.53596">
        <ele>106.843</ele>
        <time>2015-05-24T12:24:17.004Z</time>
      </trkpt>
      <trkpt lat="48.36627" lon="2.53587">
        <ele>109.145</ele>
        <time>2015-05-24T12:24:31.036Z</time>
      </trkpt>
      <trkpt lat="48.3662" lon="2.53579">
        <ele>112.806</ele>
        <time>2015-05-24T12:24:40.302Z</time>
      </trkpt>
      <trkpt lat="48.36612" lon="2.53573">
        <ele>115.168</ele>
        <time>2015-05-24T12:24:50.227Z</time>
      </trkpt>
      <trkpt lat="48.36599" lon="2.53568">
        <ele>115.302</ele>
        <time>2015-05-24T12:25:08.643Z</time>
      </trkpt>
      <trkpt lat="48.3658" lon="2.53575">
        <ele>113.937</ele>
        <time>2015-05-24T12:25:30.401Z</time>
      </trkpt>
      <trkpt lat="48.36571" lon="2.53577">
        <ele>111.593</ele>
        <time>2015-05-24T12:25:38.480Z</time>
      </trkpt>
      <trkpt lat="48.36561" lon="2.53579">
        <ele>108.374</ele>
        <time>2015-05-24T12:25:46.474Z</time>
      </trkpt>
      <trkpt lat="48.36555" lon="2.53567">
        <ele>105.103</ele>
        <time>2015-05-24T12:25:58.656Z</time>
      </trkpt>
      <trkpt lat="48.36548" lon="2.53557">
        <ele>103.285</ele>
        <time>2015-05-24T12:26:07.132Z</time>
      </trkpt>
      <trkpt lat="48.36548" lon="2.53557">
        <ele>103.175</ele>
        <time>2015-05-24T12:26:14.141Z</time>
      </trkpt>
      <trkpt lat="48.36548" lon="2.53557">
        <ele>103.618</ele>
        <time>2015-05-24T12:26:14.241Z</time>
      </trkpt>
      <trkpt lat="48.36541" lon="2.53547">
        <ele>103.656</ele>
        <time>2015-05-24T12:26:49.845Z</time>
      </trkpt>
      <trkpt lat="48.36533" lon="2.53537">
        <ele>103.362</ele>
        <time>2015-05-24T12:27:02.251Z</time>
      </trkpt>
      <trkpt lat="48.36527" lon="2.53527">
        <ele>103.388</ele>
        <time>2015-05-24T12:27:13.782Z</time>
      </trkpt>
      <trkpt lat="48.36518" lon="2.53524">
        <ele>103.994</ele>
        <time>2015-05-24T12:27:25.953Z</time>
      </trkpt>
      <trkpt lat="48.36516" lon="2.5351">
        <ele>104.365</ele>
        <time>2015-05-24T12:27:39.558Z</time>
      </trkpt>
      <trkpt lat="48.36513" lon="2.53493">
        <ele>103.692</ele>
        <time>2015-05-24T12:27:52.662Z</time>
      </trkpt>
      <trkpt lat="48.36511" lon="2.5347">
        <ele>102.484</ele>
        <time>2015-05-24T12:28:07.630Z</time>
      </trkpt>
      <trkpt lat="48.36507" lon="2.53457">
        <ele>103.351</ele>
        <time>2015-05-24T12:28:17.346Z</time>
      </trkpt>
      <trkpt lat="48.36499" lon="2.5344">
        <ele>107.523</ele>
        <time>2015-05-24T12:28:33.035Z</time>
      </trkpt>
      <trkpt lat="48.36492" lon="2.5343">
        <ele>110.339</ele>
        <time>2015-05-24T12:28:44.504Z</time>
      </trkpt>
      <trkpt lat="48.36495" lon="2.53417">
        <ele>107.895</ele>
        <time>2015-05-24T12:28:56.091Z</time>
      </trkpt>
      <trkpt lat="48.36496" lon="2.53403">
        <ele>102.634</ele>
        <time>2015-05-24T12:29:08.549Z</time>
      </trkpt>
      <trkpt lat="48.36498" lon="2.53389">
        <ele>97.977</ele>
        <time>2015-05-24T12:29:35.284Z</time>
      </trkpt>
      <trkpt lat="48.36495" lon="2.53375">
        <ele>96.009</ele>
        <time>2015-05-24T12:29:49.637Z</time>
      </trkpt>
      <trkpt lat="48.36492" lon="2.5336">
        <ele>97.917</ele>
        <time>2015-05-24T12:29:57.714Z</time>
      </trkpt>
      <trkpt lat="48.36485" lon="2.53348">
        <ele>101.891</ele>
        <time>2015-05-24T12:30:06.074Z</time>
      </trkpt>
      <trkpt lat="48.36475" lon="2.53347">
        <ele>103.923</ele>
        <time>2015-05-24T12:30:15.249Z</time>
      </trkpt>
      <trkpt lat="48.36466" lon="2.53352">
        <ele>102.334</ele>
        <time>2015-05-24T12:30:23.974Z</time>
      </trkpt>
      <trkpt lat="48.36458" lon="2.5336">
        <ele>99.689</ele>
        <time>2015-05-24T12:30:33.461Z</time>
      </trkpt>
      <trkpt lat="48.36446" lon="2.53364">
        <ele>98.519</ele>
        <time>2015-05-24T12:30:46.023Z</time>
      </trkpt>
      <trkpt lat="48.36433" lon="2.5336">
        <ele>98.792</ele>
        <time>2015-05-24T12:31:06.798Z</time>
      </trkpt>
      <trkpt lat="48.36423" lon="2.53358">
        <ele>99.581</ele>
        <time>2015-05-24T12:31:27.065Z</time>
      </trkpt>
      <trkpt lat="48.36414" lon="2.53351">
        <ele>100.072</ele>
        <time>2015-05-24T12:31:39.717Z</time>
      </trkpt>
      <trkpt lat="48.36405" lon="2.53347">
        <ele>100.069</ele>
        <time>2015-05-24T12:31:51.117Z</time>
      </trkpt>
      <trkpt lat="48.36395" lon="2.53345">
        <ele>98.511</ele>
        <time>2015-05-24T12:32:05.609Z</time>
      </trkpt>
      <trkpt lat="48.36387" lon="2.53339">
        <ele>93.909</ele>
        <time>2015-05-24T12:32:18.130Z</time>
      </trkpt>
      <trkpt lat="48.36387" lon="2.53339">
        <ele>87.912</ele>
        <time>2015-05-24T12:32:33.133Z</time>
      </trkpt>
      <trkpt lat="48.36387" lon="2.53339">
        <ele>84.442</ele>
        <time>2015-05-24T12:32:33.233Z</time>
      </trkpt>
      <trkpt lat="48.36373" lon="2.53332">
        <ele>85.479</ele>
        <time>2015-05-24T12:34:20.665Z</time>
      </trkpt>
      <trkpt lat="48.36362" lon="2.53328">
        <ele>89.794</ele>
        <time>2015-05-24T12:34:29.325Z</time>
      </trkpt>
      <trkpt lat="48.36353" lon="2.53328">
        <ele>94.336</ele>
        <time>2015-05-24T12:34:36.308Z</time>
      </trkpt>
      <trkpt lat="48.36344" lon="2.53329">
        <ele>97.384</ele>
        <time>2015-05-24T12:34:44.387Z</time>
      </trkpt>
      <trkpt lat="48.36335" lon="2.53325">
        <ele>98.184</ele>
        <time>2015-05-24T12:34:52.961Z</time>
      </trkpt>
      <trkpt lat="48.36326" lon="2.53329">
        <ele>97.296</ele>
        <time>2015-05-24T12:35:03.354Z</time>
      </trkpt>
      <trkpt lat="48.36318" lon="2.53338">
        <ele>96.809</ele>
        <time>2015-05-24T12:35:15.732Z</time>
      </trkpt>
      <trkpt lat="48.36313" lon="2.53348">
        <ele>97.436</ele>
        <time>2015-05-24T12:35:28.673Z</time>
      </trkpt>
      <trkpt lat="48.36306" lon="2.53358">
        <ele>98.673</ele>
        <time>2015-05-24T12:35:43.106Z</time>
      </trkpt>
      <trkpt lat="48.363" lon="2.53369">
        <ele>100.518</ele>
        <time>2015-05-24T12:35:56.401Z</time>
      </trkpt>
      <trkpt lat="48.36291" lon="2.53375">
        <ele>101.669</ele>
        <time>2015-05-24T12:36:05.685Z</time>
      </trkpt>
      <trkpt lat="48.36281" lon="2.53376">
        <ele>100.836</ele>
        <time>2015-05-24T12:36:14.331Z</time>
      </trkpt>
      <trkpt lat="48.36272" lon="2.53377">
        <ele>98.71</ele>
        <time>2015-05-24T12:36:24.459Z</time>
      </trkpt>
      <trkpt lat="48.36263" lon="2.53382">
        <ele>97.029</ele>
        <time>2015-05-24T12:36:36.707Z</time>
      </trkpt>
      <trkpt lat="48.36257" lon="2.53392">
        <ele>97.13</ele>
        <time>2015-05-24T12:36:50.528Z</time>
      </trkpt>
      <trkpt lat="48.36253" lon="2.53405">
        <ele>99.708</ele>
        <time>2015-05-24T12:37:04.133Z</time>
      </trkpt>
      <trkpt lat="48.36253" lon="2.53405">
        <ele>103.76</ele>
        <time>2015-05-24T12:37:13.141Z</time>
      </trkpt>
      <trkpt lat="48.36253" lon="2.53405">
        <ele>106.374</ele>
        <time>2015-05-24T12:37:13.241Z</time>
      </trkpt>
      <trkpt lat="48.36247" lon="2.53418">
        <ele>105.647</ele>
        <time>2015-05-24T12:37:26.135Z</time>
      </trkpt>
      <trkpt lat="48.36247" lon="2.53418">
        <ele>103.353</ele>
        <time>2015-05-24T12:37:27.127Z</time>
      </trkpt>
      <trkpt lat="48.36247" lon="2.53418">
        <ele>102.247</ele>
        <time>2015-05-24T12:38:15.334Z</time>
      </trkpt>
      <trkpt lat="48.3623" lon="2.53442">
        <ele>102.831</ele>
        <time>2015-05-24T12:38:54.175Z</time>
      </trkpt>
      <trkpt lat="48.36225" lon="2.53453">
        <ele>105.401</ele>
        <time>2015-05-24T12:39:03.232Z</time>
      </trkpt>
      <trkpt lat="48.36217" lon="2.53461">
        <ele>109.946</ele>
        <time>2015-05-24T12:39:11.808Z</time>
      </trkpt>
      <trkpt lat="48.36212" lon="2.53473">
        <ele>114.067</ele>
        <time>2015-05-24T12:39:19.125Z</time>
      </trkpt>
      <trkpt lat="48.36212" lon="2.53473">
        <ele>115.75</ele>
        <time>2015-05-24T12:39:22.126Z</time>
      </trkpt>
      <trkpt lat="48.36212" lon="2.53473">
        <ele>115.465</ele>
        <time>2015-05-24T12:39:22.226Z</time>
      </trkpt>
      <trkpt lat="48.36215" lon="2.5349">
        <ele>114.569</ele>
        <time>2015-05-24T12:39:41.878Z</time>
      </trkpt>
      <trkpt lat="48.36215" lon="2.53504">
        <ele>113.47</ele>
        <time>2015-05-24T12:39:53.624Z</time>
      </trkpt>
      <trkpt lat="48.36216" lon="2.5352">
        <ele>111.96</ele>
        <time>2015-05-24T12:40:09.590Z</time>
      </trkpt>
      <trkpt lat="48.36212" lon="2.53533">
        <ele>111.164</ele>
        <time>2015-05-24T12:40:23.126Z</time>
      </trkpt>
      <trkpt lat="48.36212" lon="2.53533">
        <ele>111.98</ele>
        <time>2015-05-24T12:40:26.132Z</time>
      </trkpt>
      <trkpt lat="48.36212" lon="2.53533">
        <ele>113.039</ele>
        <time>2015-05-24T12:40:33.175Z</time>
      </trkpt>
      <trkpt lat="48.36211" lon="2.53547">
        <ele>112.392</ele>
        <time>2015-05-24T12:40:56.905Z</time>
      </trkpt>
      <trkpt lat="48.36203" lon="2.53556">
        <ele>112.527</ele>
        <time>2015-05-24T12:41:07.826Z</time>
      </trkpt>
      <trkpt lat="48.362" lon="2.5357">
        <ele>114.03</ele>
        <time>2015-05-24T12:41:16.779Z</time>
      </trkpt>
      <trkpt lat="48.362" lon="2.53584">
        <ele>116.303</ele>
        <time>2015-05-24T12:41:25.136Z</time>
      </trkpt>
      <trkpt lat="48.36203" lon="2.53597">
        <ele>118.4</ele>
        <time>2015-05-24T12:41:33.158Z</time>
      </trkpt>
      <trkpt lat="48.36203" lon="2.53597">
        <ele>119.646</ele>
        <time>2015-05-24T12:41:41.135Z</time>
      </trkpt>
      <trkpt lat="48.36203" lon="2.53597">
        <ele>119.864</ele>
        <time>2015-05-24T12:41:41.235Z</time>
      </trkpt>
      <trkpt lat="48.36203" lon="2.53597">
        <ele>119.474</ele>
        <time>2015-05-24T12:41:52.115Z</time>
      </trkpt>
      <trkpt lat="48.36203" lon="2.53597">
        <ele>119.444</ele>
        <time>2015-05-24T12:41:52.215Z</time>
      </trkpt>
      <trkpt lat="48.36209" lon="2.53608">
        <ele>119.445</ele>
        <time>2015-05-24T12:41:53.117Z</time>
      </trkpt>
      <trkpt lat="48.36209" lon="2.53608">
        <ele>119.406</ele>
        <time>2015-05-24T12:41:54.131Z</time>
      </trkpt>
      <trkpt lat="48.36209" lon="2.53608">
        <ele>119.341</ele>
        <time>2015-05-24T12:41:54.231Z</time>
      </trkpt>
      <trkpt lat="48.36214" lon="2.53621">
        <ele>119.264</ele>
        <time>2015-05-24T12:42:21.003Z</time>
      </trkpt>
      <trkpt lat="48.36215" lon="2.53635">
        <ele>118.96</ele>
        <time>2015-05-24T12:42:32.031Z</time>
      </trkpt>
      <trkpt lat="48.36217" lon="2.53649">
        <ele>117.935</ele>
        <time>2015-05-24T12:42:40.784Z</time>
      </trkpt>
      <trkpt lat="48.36218" lon="2.53663">
        <ele>116.39</ele>
        <time>2015-05-24T12:42:49.547Z</time>
      </trkpt>
      <trkpt lat="48.36218" lon="2.53677">
        <ele>115.087</ele>
        <time>2015-05-24T12:42:59.731Z</time>
      </trkpt>
      <trkpt lat="48.36214" lon="2.53689">
        <ele>114.448</ele>
        <time>2015-05-24T12:43:15.128Z</time>
      </trkpt>
      <trkpt lat="48.36214" lon="2.53689">
        <ele>114.302</ele>
        <time>2015-05-24T12:43:23.122Z</time>
      </trkpt>
      <trkpt lat="48.36214" lon="2.53689">
        <ele>114.285</ele>
        <time>2015-05-24T12:43:23.222Z</time>
      </trkpt>
      <trkpt lat="48.36209" lon="2.53701">
        <ele>114.19</ele>
        <time>2015-05-24T12:43:42.209Z</time>
      </trkpt>
      <trkpt lat="48.36206" lon="2.53715">
        <ele>114.364</ele>
        <time>2015-05-24T12:43:51.825Z</time>
      </trkpt>
      <trkpt lat="48.36202" lon="2.53727">
        <ele>114.885</ele>
        <time>2015-05-24T12:43:59.907Z</time>
      </trkpt>
      <trkpt lat="48.36201" lon="2.53741">
        <ele>115.666</ele>
        <time>2015-05-24T12:44:08.352Z</time>
      </trkpt>
      <trkpt lat="48.36198" lon="2.53754">
        <ele>116.727</ele>
        <time>2015-05-24T12:44:17.122Z</time>
      </trkpt>
      <trkpt lat="48.36198" lon="2.53754">
        <ele>117.695</ele>
        <time>2015-05-24T12:44:22.128Z</time>
      </trkpt>
      <trkpt lat="48.36198" lon="2.53754">
        <ele>117.991</ele>
        <time>2015-05-24T12:44:22.228Z</time>
      </trkpt>
      <trkpt lat="48.36197" lon="2.53771">
        <ele>117.785</ele>
        <time>2015-05-24T12:44:48.436Z</time>
      </trkpt>
      <trkpt lat="48.36192" lon="2.53783">
        <ele>117.539</ele>
        <time>2015-05-24T12:44:58.131Z</time>
      </trkpt>
      <trkpt lat="48.36192" lon="2.53783">
        <ele>117.388</ele>
        <time>2015-05-24T12:45:05.132Z</time>
      </trkpt>
      <trkpt lat="48.36192" lon="2.53783">
        <ele>117.327</ele>
        <time>2015-05-24T12:45:05.232Z</time>
      </trkpt>
      <trkpt lat="48.36183" lon="2.53797">
        <ele>117.289</ele>
        <time>2015-05-24T12:45:29.900Z</time>
      </trkpt>
      <trkpt lat="48.36182" lon="2.53811">
        <ele>117.259</ele>
        <time>2015-05-24T12:45:41.165Z</time>
      </trkpt>
      <trkpt lat="48.36177" lon="2.53823">
        <ele>117.122</ele>
        <time>2015-05-24T12:45:52.781Z</time>
      </trkpt>
      <trkpt lat="48.36168" lon="2.53824">
        <ele>117.009</ele>
        <time>2015-05-24T12:46:03.505Z</time>
      </trkpt>
      <trkpt lat="48.36159" lon="2.53825">
        <ele>116.864</ele>
        <time>2015-05-24T12:46:12.139Z</time>
      </trkpt>
      <trkpt lat="48.36159" lon="2.53825">
        <ele>116.524</ele>
        <time>2015-05-24T12:46:28.135Z</time>
      </trkpt>
      <trkpt lat="48.36159" lon="2.53825">
        <ele>116.28</ele>
        <time>2015-05-24T12:46:28.235Z</time>
      </trkpt>
      <trkpt lat="48.3615" lon="2.53845">
        <ele>116.316</ele>
        <time>2015-05-24T12:46:55.232Z</time>
      </trkpt>
      <trkpt lat="48.36143" lon="2.53855">
        <ele>116.048</ele>
        <time>2015-05-24T12:47:05.184Z</time>
      </trkpt>
      <trkpt lat="48.36138" lon="2.53866">
        <ele>115.249</ele>
        <time>2015-05-24T12:47:15.911Z</time>
      </trkpt>
      <trkpt lat="48.36131" lon="2.53875">
        <ele>114.436</ele>
        <time>2015-05-24T12:47:30.135Z</time>
      </trkpt>
      <trkpt lat="48.36131" lon="2.53875">
        <ele>114.107</ele>
        <time>2015-05-24T12:47:43.138Z</time>
      </trkpt>
      <trkpt lat="48.36131" lon="2.53875">
        <ele>114.12</ele>
        <time>2015-05-24T12:47:43.238Z</time>
      </trkpt>
      <trkpt lat="48.36122" lon="2.53886">
        <ele>114.223</ele>
        <time>2015-05-24T12:48:01.495Z</time>
      </trkpt>
      <trkpt lat="48.36119" lon="2.539">
        <ele>114.25</ele>
        <time>2015-05-24T12:48:12.146Z</time>
      </trkpt>
      <trkpt lat="48.36119" lon="2.539">
        <ele>114.177</ele>
        <time>2015-05-24T12:48:29.139Z</time>
      </trkpt>
      <trkpt lat="48.36119" lon="2.539">
        <ele>114.095</ele>
        <time>2015-05-24T12:48:29.239Z</time>
      </trkpt>
      <trkpt lat="48.36119" lon="2.539">
        <ele>114.039</ele>
        <time>2015-05-24T12:50:22.140Z</time>
      </trkpt>
      <trkpt lat="48.36119" lon="2.539">
        <ele>114.021</ele>
        <time>2015-05-24T12:50:22.240Z</time>
      </trkpt>
      <trkpt lat="48.36113" lon="2.53887">
        <ele>113.931</ele>
        <time>2015-05-24T12:50:59.293Z</time>
      </trkpt>
      <trkpt lat="48.36105" lon="2.53863">
        <ele>114.228</ele>
        <time>2015-05-24T12:51:08.208Z</time>
      </trkpt>
      <trkpt lat="48.36107" lon="2.53848">
        <ele>115.062</ele>
        <time>2015-05-24T12:51:13.706Z</time>
      </trkpt>
      <trkpt lat="48.36111" lon="2.53836">
        <ele>115.895</ele>
        <time>2015-05-24T12:51:24.441Z</time>
      </trkpt>
      <trkpt lat="48.36111" lon="2.53822">
        <ele>115.488</ele>
        <time>2015-05-24T12:51:39.332Z</time>
      </trkpt>
      <trkpt lat="48.3611" lon="2.53807">
        <ele>112.412</ele>
        <time>2015-05-24T12:51:57.078Z</time>
      </trkpt>
      <trkpt lat="48.36106" lon="2.53793">
        <ele>106.166</ele>
        <time>2015-05-24T12:52:08.495Z</time>
      </trkpt>
      <trkpt lat="48.36101" lon="2.5378">
        <ele>98.969</ele>
        <time>2015-05-24T12:52:15.864Z</time>
      </trkpt>
      <trkpt lat="48.36102" lon="2.53766">
        <ele>94.807</ele>
        <time>2015-05-24T12:52:23.063Z</time>
      </trkpt>
      <trkpt lat="48.36103" lon="2.53752">
        <ele>95.04</ele>
        <time>2015-05-24T12:52:31.913Z</time>
      </trkpt>
      <trkpt lat="48.36105" lon="2.53739">
        <ele>97.128</ele>
        <time>2015-05-24T12:52:41.111Z</time>
      </trkpt>
      <trkpt lat="48.36108" lon="2.53725">
        <ele>98.553</ele>
        <time>2015-05-24T12:52:51.141Z</time>
      </trkpt>
      <trkpt lat="48.36108" lon="2.53725">
        <ele>98.915</ele>
        <time>2015-05-24T12:53:01.146Z</time>
      </trkpt>
      <trkpt lat="48.36108" lon="2.53725">
        <ele>98.753</ele>
        <time>2015-05-24T12:53:01.246Z</time>
      </trkpt>
      <trkpt lat="48.36117" lon="2.53728">
        <ele>98.603</ele>
        <time>2015-05-24T12:53:23.973Z</time>
      </trkpt>
      <trkpt lat="48.36122" lon="2.5374">
        <ele>98.814</ele>
        <time>2015-05-24T12:53:36.160Z</time>
      </trkpt>
      <trkpt lat="48.36131" lon="2.53733">
        <ele>99.83</ele>
        <time>2015-05-24T12:53:49.229Z</time>
      </trkpt>
      <trkpt lat="48.36138" lon="2.53721">
        <ele>102.458</ele>
        <time>2015-05-24T12:54:02.703Z</time>
      </trkpt>
      <trkpt lat="48.36144" lon="2.53712">
        <ele>106.013</ele>
        <time>2015-05-24T12:54:12.384Z</time>
      </trkpt>
      <trkpt lat="48.36152" lon="2.53705">
        <ele>108.755</ele>
        <time>2015-05-24T12:54:21.842Z</time>
      </trkpt>
      <trkpt lat="48.36158" lon="2.53694">
        <ele>108.915</ele>
        <time>2015-05-24T12:54:32.038Z</time>
      </trkpt>
      <trkpt lat="48.36165" lon="2.53682">
        <ele>106.361</ele>
        <time>2015-05-24T12:54:45.058Z</time>
      </trkpt>
      <trkpt lat="48.36167" lon="2.53668">
        <ele>103.234</ele>
        <time>2015-05-24T12:54:55.931Z</time>
      </trkpt>
      <trkpt lat="48.36172" lon="2.53656">
        <ele>101.046</ele>
        <time>2015-05-24T12:55:07.451Z</time>
      </trkpt>
      <trkpt lat="48.36176" lon="2.53644">
        <ele>99.28</ele>
        <time>2015-05-24T12:55:19.785Z</time>
      </trkpt>
      <trkpt lat="48.36183" lon="2.53635">
        <ele>98.01</ele>
        <time>2015-05-24T12:55:31.722Z</time>
      </trkpt>
      <trkpt lat="48.36185" lon="2.53621">
        <ele>98.027</ele>
        <time>2015-05-24T12:55:45.862Z</time>
      </trkpt>
      <trkpt lat="48.36185" lon="2.53607">
        <ele>99.112</ele>
        <time>2015-05-24T12:55:58.721Z</time>
      </trkpt>
      <trkpt lat="48.3618" lon="2.53595">
        <ele>100.364</ele>
        <time>2015-05-24T12:56:07.663Z</time>
      </trkpt>
      <trkpt lat="48.36176" lon="2.53582">
        <ele>101.384</ele>
        <time>2015-05-24T12:56:16.561Z</time>
      </trkpt>
      <trkpt lat="48.36179" lon="2.53568">
        <ele>102.662</ele>
        <time>2015-05-24T12:56:28.392Z</time>
      </trkpt>
      <trkpt lat="48.36178" lon="2.53554">
        <ele>104.599</ele>
        <time>2015-05-24T12:56:42.129Z</time>
      </trkpt>
      <trkpt lat="48.36172" lon="2.53543">
        <ele>106.416</ele>
        <time>2015-05-24T12:56:52.864Z</time>
      </trkpt>
      <trkpt lat="48.36173" lon="2.53529">
        <ele>107.227</ele>
        <time>2015-05-24T12:57:03.608Z</time>
      </trkpt>
      <trkpt lat="48.36166" lon="2.5352">
        <ele>107.255</ele>
        <time>2015-05-24T12:57:15.133Z</time>
      </trkpt>
      <trkpt lat="48.36166" lon="2.5352">
        <ele>107.059</ele>
        <time>2015-05-24T12:57:21.143Z</time>
      </trkpt>
      <trkpt lat="48.36166" lon="2.5352">
        <ele>106.993</ele>
        <time>2015-05-24T12:57:21.243Z</time>
      </trkpt>
      <trkpt lat="48.36159" lon="2.53511">
        <ele>107.011</ele>
        <time>2015-05-24T12:57:51.128Z</time>
      </trkpt>
      <trkpt lat="48.36159" lon="2.53511">
        <ele>106.968</ele>
        <time>2015-05-24T12:57:56.147Z</time>
      </trkpt>
      <trkpt lat="48.36159" lon="2.53511">
        <ele>106.932</ele>
        <time>2015-05-24T12:57:56.247Z</time>
      </trkpt>
      <trkpt lat="48.36153" lon="2.535">
        <ele>106.866</ele>
        <time>2015-05-24T12:58:15.128Z</time>
      </trkpt>
      <trkpt lat="48.36152" lon="2.53485">
        <ele>107.07</ele>
        <time>2015-05-24T12:58:27.337Z</time>
      </trkpt>
      <trkpt lat="48.36152" lon="2.53471">
        <ele>108.063</ele>
        <time>2015-05-24T12:58:37.718Z</time>
      </trkpt>
      <trkpt lat="48.36152" lon="2.53458">
        <ele>109.889</ele>
        <time>2015-05-24T12:58:46.046Z</time>
      </trkpt>
      <trkpt lat="48.36153" lon="2.53443">
        <ele>111.659</ele>
        <time>2015-05-24T12:58:54.283Z</time>
      </trkpt>
      <trkpt lat="48.36154" lon="2.53429">
        <ele>112.612</ele>
        <time>2015-05-24T12:59:03.000Z</time>
      </trkpt>
      <trkpt lat="48.36157" lon="2.53414">
        <ele>112.772</ele>
        <time>2015-05-24T12:59:13.137Z</time>
      </trkpt>
      <trkpt lat="48.36157" lon="2.53414">
        <ele>112.595</ele>
        <time>2015-05-24T12:59:31.139Z</time>
      </trkpt>
      <trkpt lat="48.36157" lon="2.53414">
        <ele>112.473</ele>
        <time>2015-05-24T13:00:16.316Z</time>
      </trkpt>
      <trkpt lat="48.36167" lon="2.53402">
        <ele>112.458</ele>
        <time>2015-05-24T13:01:35.917Z</time>
      </trkpt>
      <trkpt lat="48.36168" lon="2.53389">
        <ele>111.926</ele>
        <time>2015-05-24T13:01:52.590Z</time>
      </trkpt>
      <trkpt lat="48.36169" lon="2.53375">
        <ele>109.988</ele>
        <time>2015-05-24T13:02:06.141Z</time>
      </trkpt>
      <trkpt lat="48.36169" lon="2.53375">
        <ele>107.12</ele>
        <time>2015-05-24T13:02:11.136Z</time>
      </trkpt>
      <trkpt lat="48.36169" lon="2.53375">
        <ele>105.291</ele>
        <time>2015-05-24T13:02:11.236Z</time>
      </trkpt>
      <trkpt lat="48.36178" lon="2.5337">
        <ele>106.243</ele>
        <time>2015-05-24T13:02:33.382Z</time>
      </trkpt>
      <trkpt lat="48.36187" lon="2.53361">
        <ele>105.955</ele>
        <time>2015-05-24T13:02:45.902Z</time>
      </trkpt>
      <trkpt lat="48.36194" lon="2.53352">
        <ele>103.027</ele>
        <time>2015-05-24T13:02:57.316Z</time>
      </trkpt>
      <trkpt lat="48.36203" lon="2.53348">
        <ele>98.286</ele>
        <time>2015-05-24T13:03:07.184Z</time>
      </trkpt>
      <trkpt lat="48.36212" lon="2.53342">
        <ele>94.163</ele>
        <time>2015-05-24T13:03:16.239Z</time>
      </trkpt>
      <trkpt lat="48.36221" lon="2.53339">
        <ele>92.331</ele>
        <time>2015-05-24T13:03:25.479Z</time>
      </trkpt>
      <trkpt lat="48.3623" lon="2.53335">
        <ele>92.658</ele>
        <time>2015-05-24T13:03:35.361Z</time>
      </trkpt>
      <trkpt lat="48.36239" lon="2.53329">
        <ele>93.714</ele>
        <time>2015-05-24T13:03:43.379Z</time>
      </trkpt>
      <trkpt lat="48.36247" lon="2.53322">
        <ele>94.47</ele>
        <time>2015-05-24T13:03:52.940Z</time>
      </trkpt>
      <trkpt lat="48.36255" lon="2.53316">
        <ele>94.842</ele>
        <time>2015-05-24T13:04:04.268Z</time>
      </trkpt>
      <trkpt lat="48.36256" lon="2.53302">
        <ele>94.392</ele>
        <time>2015-05-24T13:04:16.508Z</time>
      </trkpt>
      <trkpt lat="48.3626" lon="2.53289">
        <ele>92.407</ele>
        <time>2015-05-24T13:04:26.536Z</time>
      </trkpt>
      <trkpt lat="48.36267" lon="2.5328">
        <ele>89.58</ele>
        <time>2015-05-24T13:04:35.789Z</time>
      </trkpt>
      <trkpt lat="48.36275" lon="2.53274">
        <ele>87.926</ele>
        <time>2015-05-24T13:04:44.431Z</time>
      </trkpt>
      <trkpt lat="48.36282" lon="2.53266">
        <ele>88.301</ele>
        <time>2015-05-24T13:04:53.989Z</time>
      </trkpt>
      <trkpt lat="48.36288" lon="2.53255">
        <ele>89.71</ele>
        <time>2015-05-24T13:05:04.970Z</time>
      </trkpt>
      <trkpt lat="48.36294" lon="2.53243">
        <ele>90.929</ele>
        <time>2015-05-24T13:05:16.338Z</time>
      </trkpt>
      <trkpt lat="48.36299" lon="2.53231">
        <ele>90.242</ele>
        <time>2015-05-24T13:05:26.152Z</time>
      </trkpt>
      <trkpt lat="48.36304" lon="2.53219">
        <ele>86.907</ele>
        <time>2015-05-24T13:05:35.223Z</time>
      </trkpt>
      <trkpt lat="48.36307" lon="2.53206">
        <ele>83.137</ele>
        <time>2015-05-24T13:05:45.705Z</time>
      </trkpt>
      <trkpt lat="48.36313" lon="2.53195">
        <ele>81.122</ele>
        <time>2015-05-24T13:05:57.668Z</time>
      </trkpt>
      <trkpt lat="48.36318" lon="2.53182">
        <ele>81.223</ele>
        <time>2015-05-24T13:06:07.288Z</time>
      </trkpt>
      <trkpt lat="48.36322" lon="2.5317">
        <ele>82.94</ele>
        <time>2015-05-24T13:06:15.369Z</time>
      </trkpt>
      <trkpt lat="48.36329" lon="2.5316">
        <ele>84.781</ele>
        <time>2015-05-24T13:06:24.911Z</time>
      </trkpt>
      <trkpt lat="48.36336" lon="2.53149">
        <ele>85.575</ele>
        <time>2015-05-24T13:06:37.062Z</time>
      </trkpt>
      <trkpt lat="48.36346" lon="2.53149">
        <ele>84.891</ele>
        <time>2015-05-24T13:06:46.867Z</time>
      </trkpt>
      <trkpt lat="48.36355" lon="2.5315">
        <ele>82.83</ele>
        <time>2015-05-24T13:06:54.850Z</time>
      </trkpt>
      <trkpt lat="48.36364" lon="2.53145">
        <ele>80.589</ele>
        <time>2015-05-24T13:07:02.832Z</time>
      </trkpt>
      <trkpt lat="48.36373" lon="2.53142">
        <ele>79.456</ele>
        <time>2015-05-24T13:07:11.132Z</time>
      </trkpt>
      <trkpt lat="48.36373" lon="2.53142">
        <ele>79.498</ele>
        <time>2015-05-24T13:07:14.126Z</time>
      </trkpt>
      <trkpt lat="48.36373" lon="2.53142">
        <ele>79.853</ele>
        <time>2015-05-24T13:08:40.344Z</time>
      </trkpt>
      <trkpt lat="48.36383" lon="2.53143">
        <ele>79.853</ele>
        <time>2015-05-24T13:09:33.270Z</time>
      </trkpt>
      <trkpt lat="48.36393" lon="2.53141">
        <ele>79.843</ele>
        <time>2015-05-24T13:09:45.453Z</time>
      </trkpt>
      <trkpt lat="48.36403" lon="2.53145">
        <ele>80.265</ele>
        <time>2015-05-24T13:09:57.610Z</time>
      </trkpt>
      <trkpt lat="48.3641" lon="2.53135">
        <ele>80.83</ele>
        <time>2015-05-24T13:10:11.826Z</time>
      </trkpt>
      <trkpt lat="48.36416" lon="2.53125">
        <ele>81.116</ele>
        <time>2015-05-24T13:10:22.882Z</time>
      </trkpt>
      <trkpt lat="48.36425" lon="2.53117">
        <ele>81.119</ele>
        <time>2015-05-24T13:10:34.483Z</time>
      </trkpt>
      <trkpt lat="48.36431" lon="2.53106">
        <ele>80.457</ele>
        <time>2015-05-24T13:10:47.387Z</time>
      </trkpt>
      <trkpt lat="48.36436" lon="2.53095">
        <ele>79.131</ele>
        <time>2015-05-24T13:10:58.975Z</time>
      </trkpt>
      <trkpt lat="48.36437" lon="2.53081">
        <ele>78.137</ele>
        <time>2015-05-24T13:11:11.040Z</time>
      </trkpt>
      <trkpt lat="48.36445" lon="2.53072">
        <ele>78.057</ele>
        <time>2015-05-24T13:11:20.500Z</time>
      </trkpt>
      <trkpt lat="48.36451" lon="2.5306">
        <ele>78.784</ele>
        <time>2015-05-24T13:11:29.511Z</time>
      </trkpt>
      <trkpt lat="48.36458" lon="2.5305">
        <ele>80.065</ele>
        <time>2015-05-24T13:11:39.525Z</time>
      </trkpt>
      <trkpt lat="48.36466" lon="2.53042">
        <ele>80.825</ele>
        <time>2015-05-24T13:11:55.725Z</time>
      </trkpt>
      <trkpt lat="48.36472" lon="2.53032">
        <ele>79.801</ele>
        <time>2015-05-24T13:12:10.216Z</time>
      </trkpt>
      <trkpt lat="48.3648" lon="2.5302">
        <ele>77.959</ele>
        <time>2015-05-24T13:12:22.572Z</time>
      </trkpt>
      <trkpt lat="48.36488" lon="2.5301">
        <ele>77.774</ele>
        <time>2015-05-24T13:12:31.510Z</time>
      </trkpt>
      <trkpt lat="48.36494" lon="2.53">
        <ele>79.483</ele>
        <time>2015-05-24T13:12:41.167Z</time>
      </trkpt>
      <trkpt lat="48.36502" lon="2.52991">
        <ele>80.498</ele>
        <time>2015-05-24T13:12:50.992Z</time>
      </trkpt>
      <trkpt lat="48.36506" lon="2.52976">
        <ele>79.465</ele>
        <time>2015-05-24T13:13:00.830Z</time>
      </trkpt>
      <trkpt lat="48.36509" lon="2.52961">
        <ele>77.693</ele>
        <time>2015-05-24T13:13:09.732Z</time>
      </trkpt>
      <trkpt lat="48.36512" lon="2.52945">
        <ele>76.175</ele>
        <time>2015-05-24T13:13:18.694Z</time>
      </trkpt>
      <trkpt lat="48.36519" lon="2.5293">
        <ele>74.65</ele>
        <time>2015-05-24T13:13:28.483Z</time>
      </trkpt>
      <trkpt lat="48.36526" lon="2.52919">
        <ele>74.173</ele>
        <time>2015-05-24T13:13:37.174Z</time>
      </trkpt>
      <trkpt lat="48.36532" lon="2.52906">
        <ele>76.447</ele>
        <time>2015-05-24T13:13:46.141Z</time>
      </trkpt>
      <trkpt lat="48.36537" lon="2.52894">
        <ele>79.919</ele>
        <time>2015-05-24T13:13:53.428Z</time>
      </trkpt>
      <trkpt lat="48.36543" lon="2.52882">
        <ele>82.224</ele>
        <time>2015-05-24T13:14:01.120Z</time>
      </trkpt>
      <trkpt lat="48.36548" lon="2.52869">
        <ele>83.089</ele>
        <time>2015-05-24T13:14:08.082Z</time>
      </trkpt>
      <trkpt lat="48.36553" lon="2.52857">
        <ele>82.909</ele>
        <time>2015-05-24T13:14:14.418Z</time>
      </trkpt>
      <trkpt lat="48.36562" lon="2.52849">
        <ele>82.258</ele>
        <time>2015-05-24T13:14:21.154Z</time>
      </trkpt>
      <trkpt lat="48.36568" lon="2.52839">
        <ele>82.005</ele>
        <time>2015-05-24T13:14:28.294Z</time>
      </trkpt>
      <trkpt lat="48.36574" lon="2.52826">
        <ele>81.874</ele>
        <time>2015-05-24T13:14:36.747Z</time>
      </trkpt>
      <trkpt lat="48.36575" lon="2.52812">
        <ele>81.613</ele>
        <time>2015-05-24T13:14:44.553Z</time>
      </trkpt>
      <trkpt lat="48.36576" lon="2.52798">
        <ele>81.328</ele>
        <time>2015-05-24T13:14:53.133Z</time>
      </trkpt>
      <trkpt lat="48.36576" lon="2.52798">
        <ele>81.19</ele>
        <time>2015-05-24T13:14:54.130Z</time>
      </trkpt>
      <trkpt lat="48.36576" lon="2.52798">
        <ele>81.153</ele>
        <time>2015-05-24T13:14:54.230Z</time>
      </trkpt>
      <trkpt lat="48.3657" lon="2.52777">
        <ele>81.132</ele>
        <time>2015-05-24T13:15:40.141Z</time>
      </trkpt>
      <trkpt lat="48.3657" lon="2.52762">
        <ele>79.273</ele>
        <time>2015-05-24T13:15:50.848Z</time>
      </trkpt>
      <trkpt lat="48.36575" lon="2.52748">
        <ele>74.486</ele>
        <time>2015-05-24T13:16:03.091Z</time>
      </trkpt>
      <trkpt lat="48.36581" lon="2.52737">
        <ele>69.857</ele>
        <time>2015-05-24T13:16:14.252Z</time>
      </trkpt>
      <trkpt lat="48.36578" lon="2.52724">
        <ele>69.142</ele>
        <time>2015-05-24T13:16:24.235Z</time>
      </trkpt>
      <trkpt lat="48.36577" lon="2.52709">
        <ele>72.677</ele>
        <time>2015-05-24T13:16:33.631Z</time>
      </trkpt>
      <trkpt lat="48.36583" lon="2.5269">
        <ele>78.197</ele>
        <time>2015-05-24T13:16:47.790Z</time>
      </trkpt>
      <trkpt lat="48.36587" lon="2.52669">
        <ele>82.775</ele>
        <time>2015-05-24T13:17:00.269Z</time>
      </trkpt>
      <trkpt lat="48.36595" lon="2.52657">
        <ele>85.496</ele>
        <time>2015-05-24T13:17:07.945Z</time>
      </trkpt>
      <trkpt lat="48.36603" lon="2.52651">
        <ele>87.618</ele>
        <time>2015-05-24T13:17:13.914Z</time>
      </trkpt>
      <trkpt lat="48.36612" lon="2.52646">
        <ele>90.671</ele>
        <time>2015-05-24T13:17:20.628Z</time>
      </trkpt>
      <trkpt lat="48.36622" lon="2.52645">
        <ele>94.342</ele>
        <time>2015-05-24T13:17:27.253Z</time>
      </trkpt>
      <trkpt lat="48.36632" lon="2.52641">
        <ele>96.478</ele>
        <time>2015-05-24T13:17:34.315Z</time>
      </trkpt>
      <trkpt lat="48.36643" lon="2.5264">
        <ele>95.981</ele>
        <time>2015-05-24T13:17:42.718Z</time>
      </trkpt>
      <trkpt lat="48.36652" lon="2.52639">
        <ele>93.889</ele>
        <time>2015-05-24T13:17:51.004Z</time>
      </trkpt>
      <trkpt lat="48.36661" lon="2.52642">
        <ele>91.744</ele>
        <time>2015-05-24T13:17:59.880Z</time>
      </trkpt>
      <trkpt lat="48.36671" lon="2.5264">
        <ele>91.513</ele>
        <time>2015-05-24T13:18:07.521Z</time>
      </trkpt>
      <trkpt lat="48.3668" lon="2.5264">
        <ele>94.193</ele>
        <time>2015-05-24T13:18:14.884Z</time>
      </trkpt>
      <trkpt lat="48.36689" lon="2.52642">
        <ele>97.568</ele>
        <time>2015-05-24T13:18:22.290Z</time>
      </trkpt>
      <trkpt lat="48.36699" lon="2.52646">
        <ele>98.808</ele>
        <time>2015-05-24T13:18:31.089Z</time>
      </trkpt>
      <trkpt lat="48.36707" lon="2.52652">
        <ele>97.367</ele>
        <time>2015-05-24T13:18:39.319Z</time>
      </trkpt>
      <trkpt lat="48.36717" lon="2.52652">
        <ele>94.553</ele>
        <time>2015-05-24T13:18:47.028Z</time>
      </trkpt>
      <trkpt lat="48.36725" lon="2.52646">
        <ele>91.844</ele>
        <time>2015-05-24T13:18:54.160Z</time>
      </trkpt>
      <trkpt lat="48.36733" lon="2.5264">
        <ele>88.825</ele>
        <time>2015-05-24T13:19:01.494Z</time>
      </trkpt>
      <trkpt lat="48.36741" lon="2.52632">
        <ele>85.055</ele>
        <time>2015-05-24T13:19:09.028Z</time>
      </trkpt>
      <trkpt lat="48.36748" lon="2.52623">
        <ele>82.245</ele>
        <time>2015-05-24T13:19:16.925Z</time>
      </trkpt>
      <trkpt lat="48.36754" lon="2.52612">
        <ele>81.51</ele>
        <time>2015-05-24T13:19:26.285Z</time>
      </trkpt>
      <trkpt lat="48.36761" lon="2.52602">
        <ele>82.4</ele>
        <time>2015-05-24T13:19:34.386Z</time>
      </trkpt>
      <trkpt lat="48.36768" lon="2.52594">
        <ele>84.546</ele>
        <time>2015-05-24T13:19:41.728Z</time>
      </trkpt>
      <trkpt lat="48.36776" lon="2.52585">
        <ele>87.104</ele>
        <time>2015-05-24T13:19:50.342Z</time>
      </trkpt>
      <trkpt lat="48.36784" lon="2.52576">
        <ele>88.809</ele>
        <time>2015-05-24T13:20:00.104Z</time>
      </trkpt>
      <trkpt lat="48.36793" lon="2.52571">
        <ele>89.18</ele>
        <time>2015-05-24T13:20:13.181Z</time>
      </trkpt>
      <trkpt lat="48.36793" lon="2.52557">
        <ele>87.495</ele>
        <time>2015-05-24T13:20:26.793Z</time>
      </trkpt>
      <trkpt lat="48.36788" lon="2.52547">
        <ele>83.514</ele>
        <time>2015-05-24T13:20:38.325Z</time>
      </trkpt>
      <trkpt lat="48.36779" lon="2.52539">
        <ele>79.074</ele>
        <time>2015-05-24T13:20:49.057Z</time>
      </trkpt>
      <trkpt lat="48.36771" lon="2.52533">
        <ele>76.187</ele>
        <time>2015-05-24T13:20:57.104Z</time>
      </trkpt>
      <trkpt lat="48.36764" lon="2.52524">
        <ele>75.085</ele>
        <time>2015-05-24T13:21:05.548Z</time>
      </trkpt>
      <trkpt lat="48.36755" lon="2.5252">
        <ele>75.329</ele>
        <time>2015-05-24T13:21:15.452Z</time>
      </trkpt>
      <trkpt lat="48.36748" lon="2.52509">
        <ele>76.981</ele>
        <time>2015-05-24T13:21:27.297Z</time>
      </trkpt>
      <trkpt lat="48.36742" lon="2.52499">
        <ele>79.699</ele>
        <time>2015-05-24T13:21:36.810Z</time>
      </trkpt>
      <trkpt lat="48.36737" lon="2.52486">
        <ele>82.288</ele>
        <time>2015-05-24T13:21:48.003Z</time>
      </trkpt>
      <trkpt lat="48.3673" lon="2.52475">
        <ele>84.027</ele>
        <time>2015-05-24T13:21:59.965Z</time>
      </trkpt>
      <trkpt lat="48.36721" lon="2.52477">
        <ele>84.554</ele>
        <time>2015-05-24T13:22:13.720Z</time>
      </trkpt>
      <trkpt lat="48.36711" lon="2.52475">
        <ele>83.826</ele>
        <time>2015-05-24T13:22:28.348Z</time>
      </trkpt>
      <trkpt lat="48.36701" lon="2.52475">
        <ele>83.47</ele>
        <time>2015-05-24T13:22:40.968Z</time>
      </trkpt>
      <trkpt lat="48.36692" lon="2.52472">
        <ele>84.676</ele>
        <time>2015-05-24T13:22:51.017Z</time>
      </trkpt>
      <trkpt lat="48.36682" lon="2.52467">
        <ele>86.429</ele>
        <time>2015-05-24T13:23:02.135Z</time>
      </trkpt>
      <trkpt lat="48.36682" lon="2.52467">
        <ele>87.334</ele>
        <time>2015-05-24T13:23:06.133Z</time>
      </trkpt>
      <trkpt lat="48.36682" lon="2.52467">
        <ele>87.364</ele>
        <time>2015-05-24T13:23:06.233Z</time>
      </trkpt>
      <trkpt lat="48.36676" lon="2.52454">
        <ele>87.178</ele>
        <time>2015-05-24T13:23:17.136Z</time>
      </trkpt>
      <trkpt lat="48.36676" lon="2.52454">
        <ele>87.154</ele>
        <time>2015-05-24T13:23:24.136Z</time>
      </trkpt>
      <trkpt lat="48.36676" lon="2.52454">
        <ele>87.168</ele>
        <time>2015-05-24T13:23:24.236Z</time>
      </trkpt>
      <trkpt lat="48.36672" lon="2.52441">
        <ele>87.145</ele>
        <time>2015-05-24T13:23:55.669Z</time>
      </trkpt>
      <trkpt lat="48.36672" lon="2.52427">
        <ele>88.868</ele>
        <time>2015-05-24T13:24:09.007Z</time>
      </trkpt>
      <trkpt lat="48.36672" lon="2.52413">
        <ele>93.894</ele>
        <time>2015-05-24T13:24:27.316Z</time>
      </trkpt>
      <trkpt lat="48.36666" lon="2.52402">
        <ele>100.336</ele>
        <time>2015-05-24T13:24:43.623Z</time>
      </trkpt>
      <trkpt lat="48.36661" lon="2.5239">
        <ele>105.217</ele>
        <time>2015-05-24T13:24:55.098Z</time>
      </trkpt>
      <trkpt lat="48.36655" lon="2.5238">
        <ele>107.38</ele>
        <time>2015-05-24T13:25:05.342Z</time>
      </trkpt>
      <trkpt lat="48.36647" lon="2.52371">
        <ele>107.208</ele>
        <time>2015-05-24T13:25:16.135Z</time>
      </trkpt>
      <trkpt lat="48.36647" lon="2.52371">
        <ele>106.463</ele>
        <time>2015-05-24T13:25:25.137Z</time>
      </trkpt>
      <trkpt lat="48.36647" lon="2.52371">
        <ele>106.361</ele>
        <time>2015-05-24T13:25:25.237Z</time>
      </trkpt>
      <trkpt lat="48.36637" lon="2.52363">
        <ele>106.615</ele>
        <time>2015-05-24T13:26:04.165Z</time>
      </trkpt>
      <trkpt lat="48.36636" lon="2.52349">
        <ele>106.553</ele>
        <time>2015-05-24T13:26:23.254Z</time>
      </trkpt>
      <trkpt lat="48.36642" lon="2.52339">
        <ele>105.942</ele>
        <time>2015-05-24T13:26:40.317Z</time>
      </trkpt>
      <trkpt lat="48.36652" lon="2.52337">
        <ele>105.002</ele>
        <time>2015-05-24T13:26:55.636Z</time>
      </trkpt>
      <trkpt lat="48.36661" lon="2.52335">
        <ele>104.186</ele>
        <time>2015-05-24T13:27:10.515Z</time>
      </trkpt>
      <trkpt lat="48.36665" lon="2.52322">
        <ele>102.503</ele>
        <time>2015-05-24T13:27:27.018Z</time>
      </trkpt>
      <trkpt lat="48.36664" lon="2.52309">
        <ele>98.872</ele>
        <time>2015-05-24T13:27:44.430Z</time>
      </trkpt>
      <trkpt lat="48.36662" lon="2.52295">
        <ele>93.649</ele>
        <time>2015-05-24T13:28:01.578Z</time>
      </trkpt>
      <trkpt lat="48.36663" lon="2.52281">
        <ele>87.565</ele>
        <time>2015-05-24T13:28:16.257Z</time>
      </trkpt>
      <trkpt lat="48.36669" lon="2.52269">
        <ele>82.098</ele>
        <time>2015-05-24T13:28:27.255Z</time>
      </trkpt>
      <trkpt lat="48.36674" lon="2.52258">
        <ele>79.282</ele>
        <time>2015-05-24T13:28:37.493Z</time>
      </trkpt>
      <trkpt lat="48.36682" lon="2.52248">
        <ele>79.95</ele>
        <time>2015-05-24T13:28:50.191Z</time>
      </trkpt>
      <trkpt lat="48.36688" lon="2.52238">
        <ele>83.099</ele>
        <time>2015-05-24T13:29:01.496Z</time>
      </trkpt>
      <trkpt lat="48.36694" lon="2.52228">
        <ele>85.985</ele>
        <time>2015-05-24T13:29:09.368Z</time>
      </trkpt>
      <trkpt lat="48.36701" lon="2.52216">
        <ele>86.9</ele>
        <time>2015-05-24T13:29:16.878Z</time>
      </trkpt>
      <trkpt lat="48.36707" lon="2.52206">
        <ele>86.405</ele>
        <time>2015-05-24T13:29:24.283Z</time>
      </trkpt>
      <trkpt lat="48.36712" lon="2.52195">
        <ele>85.641</ele>
        <time>2015-05-24T13:29:32.429Z</time>
      </trkpt>
      <trkpt lat="48.36717" lon="2.52182">
        <ele>85.01</ele>
        <time>2015-05-24T13:29:41.994Z</time>
      </trkpt>
      <trkpt lat="48.36724" lon="2.52172">
        <ele>84.09</ele>
        <time>2015-05-24T13:29:53.256Z</time>
      </trkpt>
      <trkpt lat="48.36732" lon="2.52163">
        <ele>82.794</ele>
        <time>2015-05-24T13:30:06.578Z</time>
      </trkpt>
      <trkpt lat="48.3674" lon="2.52155">
        <ele>81.721</ele>
        <time>2015-05-24T13:30:17.683Z</time>
      </trkpt>
      <trkpt lat="48.36749" lon="2.5215">
        <ele>81.131</ele>
        <time>2015-05-24T13:30:24.232Z</time>
      </trkpt>
      <trkpt lat="48.36758" lon="2.52147">
        <ele>80.894</ele>
        <time>2015-05-24T13:30:30.399Z</time>
      </trkpt>
      <trkpt lat="48.36768" lon="2.52153">
        <ele>80.784</ele>
        <time>2015-05-24T13:30:38.305Z</time>
      </trkpt>
      <trkpt lat="48.36777" lon="2.52155">
        <ele>80.684</ele>
        <time>2015-05-24T13:30:46.807Z</time>
      </trkpt>
      <trkpt lat="48.36786" lon="2.52156">
        <ele>80.869</ele>
        <time>2015-05-24T13:30:55.685Z</time>
      </trkpt>
      <trkpt lat="48.36796" lon="2.52155">
        <ele>81.544</ele>
        <time>2015-05-24T13:31:05.112Z</time>
      </trkpt>
      <trkpt lat="48.36807" lon="2.52154">
        <ele>81.096</ele>
        <time>2015-05-24T13:31:16.059Z</time>
      </trkpt>
      <trkpt lat="48.36816" lon="2.52149">
        <ele>77.406</ele>
        <time>2015-05-24T13:31:24.236Z</time>
      </trkpt>
      <trkpt lat="48.36825" lon="2.52148">
        <ele>71.765</ele>
        <time>2015-05-24T13:31:35.077Z</time>
      </trkpt>
      <trkpt lat="48.36835" lon="2.52145">
        <ele>68.84</ele>
        <time>2015-05-24T13:31:47.008Z</time>
      </trkpt>
      <trkpt lat="48.36845" lon="2.52147">
        <ele>70.679</ele>
        <time>2015-05-24T13:31:56.660Z</time>
      </trkpt>
      <trkpt lat="48.36854" lon="2.52152">
        <ele>74.441</ele>
        <time>2015-05-24T13:32:05.503Z</time>
      </trkpt>
      <trkpt lat="48.36863" lon="2.52155">
        <ele>77.04</ele>
        <time>2015-05-24T13:32:14.136Z</time>
      </trkpt>
      <trkpt lat="48.36863" lon="2.52155">
        <ele>78.027</ele>
        <time>2015-05-24T13:32:23.141Z</time>
      </trkpt>
      <trkpt lat="48.36863" lon="2.52155">
        <ele>78.033</ele>
        <time>2015-05-24T13:32:23.241Z</time>
      </trkpt>
      <trkpt lat="48.36874" lon="2.5217">
        <ele>77.826</ele>
        <time>2015-05-24T13:32:45.156Z</time>
      </trkpt>
      <trkpt lat="48.36884" lon="2.52173">
        <ele>77.954</ele>
        <time>2015-05-24T13:32:55.451Z</time>
      </trkpt>
      <trkpt lat="48.3689" lon="2.52184">
        <ele>78.474</ele>
        <time>2015-05-24T13:33:04.504Z</time>
      </trkpt>
      <trkpt lat="48.36896" lon="2.52195">
        <ele>78.401</ele>
        <time>2015-05-24T13:33:13.658Z</time>
      </trkpt>
      <trkpt lat="48.369" lon="2.52207">
        <ele>76.574</ele>
        <time>2015-05-24T13:33:23.381Z</time>
      </trkpt>
      <trkpt lat="48.36905" lon="2.5222">
        <ele>73.672</ele>
        <time>2015-05-24T13:33:32.925Z</time>
      </trkpt>
      <trkpt lat="48.36908" lon="2.52234">
        <ele>71.865</ele>
        <time>2015-05-24T13:33:42.930Z</time>
      </trkpt>
      <trkpt lat="48.36915" lon="2.52245">
        <ele>72.226</ele>
        <time>2015-05-24T13:33:51.567Z</time>
      </trkpt>
      <trkpt lat="48.3692" lon="2.52257">
        <ele>73.561</ele>
        <time>2015-05-24T13:33:59.304Z</time>
      </trkpt>
      <trkpt lat="48.36926" lon="2.52268">
        <ele>73.755</ele>
        <time>2015-05-24T13:34:08.525Z</time>
      </trkpt>
      <trkpt lat="48.3693" lon="2.5228">
        <ele>72.332</ele>
        <time>2015-05-24T13:34:18.414Z</time>
      </trkpt>
      <trkpt lat="48.36935" lon="2.52292">
        <ele>71.117</ele>
        <time>2015-05-24T13:34:26.774Z</time>
      </trkpt>
      <trkpt lat="48.36943" lon="2.52302">
        <ele>72.382</ele>
        <time>2015-05-24T13:34:35.047Z</time>
      </trkpt>
      <trkpt lat="48.36949" lon="2.52314">
        <ele>75.908</ele>
        <time>2015-05-24T13:34:44.861Z</time>
      </trkpt>
      <trkpt lat="48.36957" lon="2.52322">
        <ele>79.614</ele>
        <time>2015-05-24T13:34:55.741Z</time>
      </trkpt>
      <trkpt lat="48.36966" lon="2.52318">
        <ele>81.775</ele>
        <time>2015-05-24T13:35:04.868Z</time>
      </trkpt>
      <trkpt lat="48.36974" lon="2.52314">
        <ele>81.966</ele>
        <time>2015-05-24T13:35:13.642Z</time>
      </trkpt>
      <trkpt lat="48.36984" lon="2.52308">
        <ele>80.448</ele>
        <time>2015-05-24T13:35:22.666Z</time>
      </trkpt>
      <trkpt lat="48.36989" lon="2.52298">
        <ele>78.137</ele>
        <time>2015-05-24T13:35:31.070Z</time>
      </trkpt>
      <trkpt lat="48.36998" lon="2.52292">
        <ele>76.184</ele>
        <time>2015-05-24T13:35:40.345Z</time>
      </trkpt>
      <trkpt lat="48.37006" lon="2.52286">
        <ele>75.642</ele>
        <time>2015-05-24T13:35:49.348Z</time>
      </trkpt>
      <trkpt lat="48.37014" lon="2.52277">
        <ele>76.991</ele>
        <time>2015-05-24T13:35:58.587Z</time>
      </trkpt>
      <trkpt lat="48.37024" lon="2.52274">
        <ele>79.611</ele>
        <time>2015-05-24T13:36:07.688Z</time>
      </trkpt>
      <trkpt lat="48.37033" lon="2.52269">
        <ele>82.09</ele>
        <time>2015-05-24T13:36:17.356Z</time>
      </trkpt>
      <trkpt lat="48.37042" lon="2.52264">
        <ele>83.146</ele>
        <time>2015-05-24T13:36:26.516Z</time>
      </trkpt>
      <trkpt lat="48.37051" lon="2.52258">
        <ele>82.388</ele>
        <time>2015-05-24T13:36:34.662Z</time>
      </trkpt>
      <trkpt lat="48.37059" lon="2.52251">
        <ele>80.899</ele>
        <time>2015-05-24T13:36:44.119Z</time>
      </trkpt>
      <trkpt lat="48.37068" lon="2.52245">
        <ele>79.994</ele>
        <time>2015-05-24T13:36:54.078Z</time>
      </trkpt>
      <trkpt lat="48.37075" lon="2.52237">
        <ele>79.213</ele>
        <time>2015-05-24T13:37:03.087Z</time>
      </trkpt>
      <trkpt lat="48.37083" lon="2.52229">
        <ele>77.909</ele>
        <time>2015-05-24T13:37:12.281Z</time>
      </trkpt>
      <trkpt lat="48.37092" lon="2.52222">
        <ele>76.641</ele>
        <time>2015-05-24T13:37:22.750Z</time>
      </trkpt>
      <trkpt lat="48.371" lon="2.52215">
        <ele>76.821</ele>
        <time>2015-05-24T13:37:33.054Z</time>
      </trkpt>
      <trkpt lat="48.37109" lon="2.52209">
        <ele>78.692</ele>
        <time>2015-05-24T13:37:43.002Z</time>
      </trkpt>
      <trkpt lat="48.37117" lon="2.52203">
        <ele>80.831</ele>
        <time>2015-05-24T13:37:51.428Z</time>
      </trkpt>
      <trkpt lat="48.37127" lon="2.52199">
        <ele>81.998</ele>
        <time>2015-05-24T13:38:00.938Z</time>
      </trkpt>
      <trkpt lat="48.37135" lon="2.52193">
        <ele>82.308</ele>
        <time>2015-05-24T13:38:09.519Z</time>
      </trkpt>
      <trkpt lat="48.37143" lon="2.52186">
        <ele>81.76</ele>
        <time>2015-05-24T13:38:17.967Z</time>
      </trkpt>
      <trkpt lat="48.37151" lon="2.52179">
        <ele>80.262</ele>
        <time>2015-05-24T13:38:27.969Z</time>
      </trkpt>
      <trkpt lat="48.3716" lon="2.52173">
        <ele>78.699</ele>
        <time>2015-05-24T13:38:39.310Z</time>
      </trkpt>
      <trkpt lat="48.37166" lon="2.52163">
        <ele>78.378</ele>
        <time>2015-05-24T13:38:49.729Z</time>
      </trkpt>
      <trkpt lat="48.37166" lon="2.5215">
        <ele>79.423</ele>
        <time>2015-05-24T13:38:59.200Z</time>
      </trkpt>
      <trkpt lat="48.37165" lon="2.52134">
        <ele>80.701</ele>
        <time>2015-05-24T13:39:08.895Z</time>
      </trkpt>
      <trkpt lat="48.37167" lon="2.5212">
        <ele>81.003</ele>
        <time>2015-05-24T13:39:16.586Z</time>
      </trkpt>
      <trkpt lat="48.37163" lon="2.52108">
        <ele>80.184</ele>
        <time>2015-05-24T13:39:23.487Z</time>
      </trkpt>
      <trkpt lat="48.37161" lon="2.52094">
        <ele>79.067</ele>
        <time>2015-05-24T13:39:30.508Z</time>
      </trkpt>
      <trkpt lat="48.37158" lon="2.52081">
        <ele>78.371</ele>
        <time>2015-05-24T13:39:38.588Z</time>
      </trkpt>
      <trkpt lat="48.37159" lon="2.52066">
        <ele>78.191</ele>
        <time>2015-05-24T13:39:47.118Z</time>
      </trkpt>
      <trkpt lat="48.37157" lon="2.52052">
        <ele>78.256</ele>
        <time>2015-05-24T13:39:53.495Z</time>
      </trkpt>
      <trkpt lat="48.37154" lon="2.52038">
        <ele>77.652</ele>
        <time>2015-05-24T13:40:01.760Z</time>
      </trkpt>
      <trkpt lat="48.37163" lon="2.52031">
        <ele>75.748</ele>
        <time>2015-05-24T13:40:10.144Z</time>
      </trkpt>
      <trkpt lat="48.37163" lon="2.52031">
        <ele>73.525</ele>
        <time>2015-05-24T13:40:14.141Z</time>
      </trkpt>
      <trkpt lat="48.37163" lon="2.52031">
        <ele>72.403</ele>
        <time>2015-05-24T13:40:53.899Z</time>
      </trkpt>
      <trkpt lat="48.37174" lon="2.52016">
        <ele>72.788</ele>
        <time>2015-05-24T13:41:44.809Z</time>
      </trkpt>
      <trkpt lat="48.37183" lon="2.52012">
        <ele>73.814</ele>
        <time>2015-05-24T13:41:54.255Z</time>
      </trkpt>
      <trkpt lat="48.37192" lon="2.52006">
        <ele>74.606</ele>
        <time>2015-05-24T13:42:03.174Z</time>
      </trkpt>
      <trkpt lat="48.37201" lon="2.51999">
        <ele>76.069</ele>
        <time>2015-05-24T13:42:11.370Z</time>
      </trkpt>
      <trkpt lat="48.37209" lon="2.51993">
        <ele>78.707</ele>
        <time>2015-05-24T13:42:18.103Z</time>
      </trkpt>
      <trkpt lat="48.37217" lon="2.51986">
        <ele>81.481</ele>
        <time>2015-05-24T13:42:25.475Z</time>
      </trkpt>
      <trkpt lat="48.37225" lon="2.5198">
        <ele>83.83</ele>
        <time>2015-05-24T13:42:33.296Z</time>
      </trkpt>
      <trkpt lat="48.37233" lon="2.51973">
        <ele>85.547</ele>
        <time>2015-05-24T13:42:43.221Z</time>
      </trkpt>
      <trkpt lat="48.37242" lon="2.51972">
        <ele>85.409</ele>
        <time>2015-05-24T13:42:52.142Z</time>
      </trkpt>
      <trkpt lat="48.37242" lon="2.51972">
        <ele>83.134</ele>
        <time>2015-05-24T13:42:58.146Z</time>
      </trkpt>
      <trkpt lat="48.37242" lon="2.51972">
        <ele>81.043</ele>
        <time>2015-05-24T13:42:58.246Z</time>
      </trkpt>
      <trkpt lat="48.37255" lon="2.51957">
        <ele>81.023</ele>
        <time>2015-05-24T13:43:21.640Z</time>
      </trkpt>
      <trkpt lat="48.37264" lon="2.5195">
        <ele>79.895</ele>
        <time>2015-05-24T13:43:32.322Z</time>
      </trkpt>
      <trkpt lat="48.37272" lon="2.51945">
        <ele>74.985</ele>
        <time>2015-05-24T13:43:41.228Z</time>
      </trkpt>
      <trkpt lat="48.37281" lon="2.51939">
        <ele>72.003</ele>
        <time>2015-05-24T13:43:49.847Z</time>
      </trkpt>
      <trkpt lat="48.3729" lon="2.51934">
        <ele>76.109</ele>
        <time>2015-05-24T13:43:59.276Z</time>
      </trkpt>
      <trkpt lat="48.37298" lon="2.51928">
        <ele>82.926</ele>
        <time>2015-05-24T13:44:07.524Z</time>
      </trkpt>
      <trkpt lat="48.37307" lon="2.51921">
        <ele>86.716</ele>
        <time>2015-05-24T13:44:15.409Z</time>
      </trkpt>
      <trkpt lat="48.37316" lon="2.51914">
        <ele>86.433</ele>
        <time>2015-05-24T13:44:23.330Z</time>
      </trkpt>
      <trkpt lat="48.37325" lon="2.51911">
        <ele>83.724</ele>
        <time>2015-05-24T13:44:32.914Z</time>
      </trkpt>
      <trkpt lat="48.37332" lon="2.51902">
        <ele>81.213</ele>
        <time>2015-05-24T13:44:43.577Z</time>
      </trkpt>
      <trkpt lat="48.37334" lon="2.51887">
        <ele>80.161</ele>
        <time>2015-05-24T13:44:54.909Z</time>
      </trkpt>
      <trkpt lat="48.37333" lon="2.51874">
        <ele>80.12</ele>
        <time>2015-05-24T13:45:05.017Z</time>
      </trkpt>
      <trkpt lat="48.37333" lon="2.51859">
        <ele>81.204</ele>
        <time>2015-05-24T13:45:13.975Z</time>
      </trkpt>
      <trkpt lat="48.37337" lon="2.51846">
        <ele>83.716</ele>
        <time>2015-05-24T13:45:22.868Z</time>
      </trkpt>
      <trkpt lat="48.37339" lon="2.51831">
        <ele>86.813</ele>
        <time>2015-05-24T13:45:33.012Z</time>
      </trkpt>
      <trkpt lat="48.37343" lon="2.51819">
        <ele>88.924</ele>
        <time>2015-05-24T13:45:44.412Z</time>
      </trkpt>
      <trkpt lat="48.37352" lon="2.51813">
        <ele>89.654</ele>
        <time>2015-05-24T13:45:57.713Z</time>
      </trkpt>
      <trkpt lat="48.37361" lon="2.51811">
        <ele>89.867</ele>
        <time>2015-05-24T13:46:13.340Z</time>
      </trkpt>
      <trkpt lat="48.37367" lon="2.51801">
        <ele>91.594</ele>
        <time>2015-05-24T13:46:29.144Z</time>
      </trkpt>
      <trkpt lat="48.37367" lon="2.51801">
        <ele>95.476</ele>
        <time>2015-05-24T13:46:34.143Z</time>
      </trkpt>
      <trkpt lat="48.37367" lon="2.51801">
        <ele>98.602</ele>
        <time>2015-05-24T13:49:27.105Z</time>
      </trkpt>
      <trkpt lat="48.37377" lon="2.51794">
        <ele>98.496</ele>
        <time>2015-05-24T13:50:20.088Z</time>
      </trkpt>
      <trkpt lat="48.37382" lon="2.51781">
        <ele>98.644</ele>
        <time>2015-05-24T13:50:33.295Z</time>
      </trkpt>
      <trkpt lat="48.37391" lon="2.51776">
        <ele>102.206</ele>
        <time>2015-05-24T13:50:43.148Z</time>
      </trkpt>
      <trkpt lat="48.37391" lon="2.51776">
        <ele>106.603</ele>
        <time>2015-05-24T13:50:45.147Z</time>
      </trkpt>
      <trkpt lat="48.37391" lon="2.51776">
        <ele>108.515</ele>
        <time>2015-05-24T13:50:45.247Z</time>
      </trkpt>
      <trkpt lat="48.37401" lon="2.51769">
        <ele>108.199</ele>
        <time>2015-05-24T13:50:59.994Z</time>
      </trkpt>
      <trkpt lat="48.37409" lon="2.51762">
        <ele>107.405</ele>
        <time>2015-05-24T13:51:08.598Z</time>
      </trkpt>
      <trkpt lat="48.37418" lon="2.51759">
        <ele>107.635</ele>
        <time>2015-05-24T13:51:17.569Z</time>
      </trkpt>
      <trkpt lat="48.37428" lon="2.51762">
        <ele>108.884</ele>
        <time>2015-05-24T13:51:26.181Z</time>
      </trkpt>
      <trkpt lat="48.37436" lon="2.51771">
        <ele>110.09</ele>
        <time>2015-05-24T13:51:34.773Z</time>
      </trkpt>
      <trkpt lat="48.37443" lon="2.51778">
        <ele>110.399</ele>
        <time>2015-05-24T13:51:42.928Z</time>
      </trkpt>
      <trkpt lat="48.37448" lon="2.51791">
        <ele>109.714</ele>
        <time>2015-05-24T13:51:53.094Z</time>
      </trkpt>
      <trkpt lat="48.37451" lon="2.51804">
        <ele>108.56</ele>
        <time>2015-05-24T13:52:01.398Z</time>
      </trkpt>
      <trkpt lat="48.37457" lon="2.51815">
        <ele>107.649</ele>
        <time>2015-05-24T13:52:08.329Z</time>
      </trkpt>
      <trkpt lat="48.37466" lon="2.5182">
        <ele>107.134</ele>
        <time>2015-05-24T13:52:15.144Z</time>
      </trkpt>
      <trkpt lat="48.37466" lon="2.5182">
        <ele>106.793</ele>
        <time>2015-05-24T13:52:21.149Z</time>
      </trkpt>
      <trkpt lat="48.37466" lon="2.5182">
        <ele>106.583</ele>
        <time>2015-05-24T13:52:21.249Z</time>
      </trkpt>
      <trkpt lat="48.37475" lon="2.51816">
        <ele>106.607</ele>
        <time>2015-05-24T13:52:46.224Z</time>
      </trkpt>
      <trkpt lat="48.37484" lon="2.51809">
        <ele>106.839</ele>
        <time>2015-05-24T13:52:57.134Z</time>
      </trkpt>
      <trkpt lat="48.37489" lon="2.51797">
        <ele>107.431</ele>
        <time>2015-05-24T13:53:07.458Z</time>
      </trkpt>
      <trkpt lat="48.37492" lon="2.51784">
        <ele>108.536</ele>
        <time>2015-05-24T13:53:16.270Z</time>
      </trkpt>
      <trkpt lat="48.37493" lon="2.51769">
        <ele>110.104</ele>
        <time>2015-05-24T13:53:24.087Z</time>
      </trkpt>
      <trkpt lat="48.37498" lon="2.51756">
        <ele>111.769</ele>
        <time>2015-05-24T13:53:32.433Z</time>
      </trkpt>
      <trkpt lat="48.37504" lon="2.51743">
        <ele>113.061</ele>
        <time>2015-05-24T13:53:41.115Z</time>
      </trkpt>
      <trkpt lat="48.37506" lon="2.51729">
        <ele>113.752</ele>
        <time>2015-05-24T13:53:49.528Z</time>
      </trkpt>
      <trkpt lat="48.37504" lon="2.51716">
        <ele>112.811</ele>
        <time>2015-05-24T13:53:58.423Z</time>
      </trkpt>
      <trkpt lat="48.375" lon="2.51701">
        <ele>109.113</ele>
        <time>2015-05-24T13:54:09.832Z</time>
      </trkpt>
      <trkpt lat="48.37497" lon="2.51687">
        <ele>103.635</ele>
        <time>2015-05-24T13:54:20.571Z</time>
      </trkpt>
      <trkpt lat="48.3749" lon="2.51677">
        <ele>98.603</ele>
        <time>2015-05-24T13:54:30.367Z</time>
      </trkpt>
      <trkpt lat="48.37484" lon="2.51667">
        <ele>95.249</ele>
        <time>2015-05-24T13:54:40.701Z</time>
      </trkpt>
      <trkpt lat="48.37479" lon="2.51655">
        <ele>93.735</ele>
        <time>2015-05-24T13:54:51.962Z</time>
      </trkpt>
      <trkpt lat="48.37474" lon="2.51643">
        <ele>93.567</ele>
        <time>2015-05-24T13:55:02.587Z</time>
      </trkpt>
      <trkpt lat="48.37468" lon="2.51633">
        <ele>93.919</ele>
        <time>2015-05-24T13:55:11.741Z</time>
      </trkpt>
      <trkpt lat="48.37462" lon="2.51622">
        <ele>93.777</ele>
        <time>2015-05-24T13:55:20.160Z</time>
      </trkpt>
      <trkpt lat="48.37457" lon="2.51611">
        <ele>92.799</ele>
        <time>2015-05-24T13:55:27.808Z</time>
      </trkpt>
      <trkpt lat="48.37452" lon="2.51599">
        <ele>91.862</ele>
        <time>2015-05-24T13:55:34.802Z</time>
      </trkpt>
      <trkpt lat="48.37449" lon="2.51586">
        <ele>91.636</ele>
        <time>2015-05-24T13:55:42.201Z</time>
      </trkpt>
      <trkpt lat="48.37442" lon="2.51575">
        <ele>91.842</ele>
        <time>2015-05-24T13:55:51.484Z</time>
      </trkpt>
      <trkpt lat="48.37436" lon="2.51563">
        <ele>92.11</ele>
        <time>2015-05-24T13:56:00.084Z</time>
      </trkpt>
      <trkpt lat="48.3743" lon="2.51552">
        <ele>92.354</ele>
        <time>2015-05-24T13:56:08.294Z</time>
      </trkpt>
      <trkpt lat="48.37424" lon="2.5154">
        <ele>92.53</ele>
        <time>2015-05-24T13:56:17.484Z</time>
      </trkpt>
      <trkpt lat="48.37421" lon="2.51527">
        <ele>92.456</ele>
        <time>2015-05-24T13:56:24.756Z</time>
      </trkpt>
      <trkpt lat="48.37414" lon="2.51517">
        <ele>91.72</ele>
        <time>2015-05-24T13:56:32.545Z</time>
      </trkpt>
      <trkpt lat="48.37406" lon="2.51503">
        <ele>90.231</ele>
        <time>2015-05-24T13:56:43.148Z</time>
      </trkpt>
      <trkpt lat="48.37406" lon="2.51503">
        <ele>88.685</ele>
        <time>2015-05-24T13:56:49.152Z</time>
      </trkpt>
      <trkpt lat="48.37406" lon="2.51503">
        <ele>87.897</ele>
        <time>2015-05-24T13:56:53.547Z</time>
      </trkpt>
      <trkpt lat="48.37411" lon="2.51492">
        <ele>88.291</ele>
        <time>2015-05-24T13:57:43.357Z</time>
      </trkpt>
      <trkpt lat="48.37416" lon="2.51481">
        <ele>88.703</ele>
        <time>2015-05-24T13:57:52.389Z</time>
      </trkpt>
      <trkpt lat="48.37423" lon="2.51471">
        <ele>89.344</ele>
        <time>2015-05-24T13:57:59.471Z</time>
      </trkpt>
      <trkpt lat="48.37429" lon="2.5146">
        <ele>90.884</ele>
        <time>2015-05-24T13:58:05.960Z</time>
      </trkpt>
      <trkpt lat="48.37436" lon="2.5145">
        <ele>93.393</ele>
        <time>2015-05-24T13:58:11.969Z</time>
      </trkpt>
      <trkpt lat="48.37444" lon="2.51444">
        <ele>94.381</ele>
        <time>2015-05-24T13:58:17.087Z</time>
      </trkpt>
      <trkpt lat="48.37453" lon="2.51439">
        <ele>90.353</ele>
        <time>2015-05-24T13:58:22.376Z</time>
      </trkpt>
      <trkpt lat="48.37463" lon="2.51439">
        <ele>82.322</ele>
        <time>2015-05-24T13:58:28.606Z</time>
      </trkpt>
      <trkpt lat="48.37473" lon="2.51436">
        <ele>75.347</ele>
        <time>2015-05-24T13:58:35.519Z</time>
      </trkpt>
      <trkpt lat="48.37482" lon="2.51432">
        <ele>72.002</ele>
        <time>2015-05-24T13:58:42.816Z</time>
      </trkpt>
      <trkpt lat="48.37491" lon="2.51427">
        <ele>72.032</ele>
        <time>2015-05-24T13:58:50.961Z</time>
      </trkpt>
      <trkpt lat="48.37501" lon="2.51423">
        <ele>74.891</ele>
        <time>2015-05-24T13:59:00.375Z</time>
      </trkpt>
      <trkpt lat="48.37509" lon="2.51415">
        <ele>78.582</ele>
        <time>2015-05-24T13:59:10.025Z</time>
      </trkpt>
      <trkpt lat="48.37518" lon="2.5141">
        <ele>80.921</ele>
        <time>2015-05-24T13:59:21.416Z</time>
      </trkpt>
      <trkpt lat="48.37525" lon="2.514">
        <ele>81.659</ele>
        <time>2015-05-24T13:59:32.831Z</time>
      </trkpt>
      <trkpt lat="48.37528" lon="2.51387">
        <ele>81.483</ele>
        <time>2015-05-24T13:59:44.829Z</time>
      </trkpt>
      <trkpt lat="48.37535" lon="2.51377">
        <ele>81.105</ele>
        <time>2015-05-24T13:59:55.884Z</time>
      </trkpt>
      <trkpt lat="48.37544" lon="2.51374">
        <ele>80.213</ele>
        <time>2015-05-24T14:00:05.848Z</time>
      </trkpt>
      <trkpt lat="48.37553" lon="2.51374">
        <ele>78.432</ele>
        <time>2015-05-24T14:00:16.790Z</time>
      </trkpt>
      <trkpt lat="48.37559" lon="2.51363">
        <ele>77.007</ele>
        <time>2015-05-24T14:00:27.824Z</time>
      </trkpt>
      <trkpt lat="48.37566" lon="2.51354">
        <ele>77.031</ele>
        <time>2015-05-24T14:00:37.428Z</time>
      </trkpt>
      <trkpt lat="48.37571" lon="2.51343">
        <ele>77.732</ele>
        <time>2015-05-24T14:00:45.694Z</time>
      </trkpt>
      <trkpt lat="48.37576" lon="2.51329">
        <ele>77.267</ele>
        <time>2015-05-24T14:00:53.820Z</time>
      </trkpt>
      <trkpt lat="48.37578" lon="2.51316">
        <ele>74.914</ele>
        <time>2015-05-24T14:01:00.857Z</time>
      </trkpt>
      <trkpt lat="48.37579" lon="2.51302">
        <ele>72.099</ele>
        <time>2015-05-24T14:01:08.271Z</time>
      </trkpt>
      <trkpt lat="48.37575" lon="2.51288">
        <ele>70.345</ele>
        <time>2015-05-24T14:01:17.879Z</time>
      </trkpt>
      <trkpt lat="48.37566" lon="2.51281">
        <ele>70.068</ele>
        <time>2015-05-24T14:01:28.134Z</time>
      </trkpt>
      <trkpt lat="48.37559" lon="2.51271">
        <ele>71.03</ele>
        <time>2015-05-24T14:01:37.000Z</time>
      </trkpt>
      <trkpt lat="48.37553" lon="2.51259">
        <ele>71.972</ele>
        <time>2015-05-24T14:01:45.287Z</time>
      </trkpt>
      <trkpt lat="48.37546" lon="2.51247">
        <ele>71.971</ele>
        <time>2015-05-24T14:01:54.138Z</time>
      </trkpt>
      <trkpt lat="48.37539" lon="2.51236">
        <ele>71.461</ele>
        <time>2015-05-24T14:02:02.780Z</time>
      </trkpt>
      <trkpt lat="48.37532" lon="2.51225">
        <ele>71.232</ele>
        <time>2015-05-24T14:02:11.136Z</time>
      </trkpt>
      <trkpt lat="48.37525" lon="2.51216">
        <ele>71.478</ele>
        <time>2015-05-24T14:02:18.736Z</time>
      </trkpt>
      <trkpt lat="48.37515" lon="2.51213">
        <ele>71.688</ele>
        <time>2015-05-24T14:02:26.972Z</time>
      </trkpt>
      <trkpt lat="48.37507" lon="2.51208">
        <ele>71.45</ele>
        <time>2015-05-24T14:02:35.835Z</time>
      </trkpt>
      <trkpt lat="48.37498" lon="2.51203">
        <ele>71.687</ele>
        <time>2015-05-24T14:02:43.795Z</time>
      </trkpt>
      <trkpt lat="48.3749" lon="2.51197">
        <ele>73.141</ele>
        <time>2015-05-24T14:02:51.518Z</time>
      </trkpt>
      <trkpt lat="48.37482" lon="2.5119">
        <ele>74.312</ele>
        <time>2015-05-24T14:03:00.644Z</time>
      </trkpt>
      <trkpt lat="48.37472" lon="2.51188">
        <ele>73.839</ele>
        <time>2015-05-24T14:03:10.169Z</time>
      </trkpt>
      <trkpt lat="48.37463" lon="2.51182">
        <ele>74.108</ele>
        <time>2015-05-24T14:03:16.472Z</time>
      </trkpt>
      <trkpt lat="48.37454" lon="2.51181">
        <ele>77.33</ele>
        <time>2015-05-24T14:03:23.624Z</time>
      </trkpt>
      <trkpt lat="48.37446" lon="2.51175">
        <ele>81.455</ele>
        <time>2015-05-24T14:03:31.107Z</time>
      </trkpt>
      <trkpt lat="48.37436" lon="2.51172">
        <ele>83.461</ele>
        <time>2015-05-24T14:03:39.554Z</time>
      </trkpt>
      <trkpt lat="48.37427" lon="2.51166">
        <ele>83.152</ele>
        <time>2015-05-24T14:03:48.367Z</time>
      </trkpt>
      <trkpt lat="48.3742" lon="2.51157">
        <ele>82.375</ele>
        <time>2015-05-24T14:03:57.000Z</time>
      </trkpt>
      <trkpt lat="48.37411" lon="2.51156">
        <ele>82.57</ele>
        <time>2015-05-24T14:04:05.657Z</time>
      </trkpt>
      <trkpt lat="48.37402" lon="2.51152">
        <ele>82.981</ele>
        <time>2015-05-24T14:04:14.471Z</time>
      </trkpt>
      <trkpt lat="48.37393" lon="2.51147">
        <ele>82.237</ele>
        <time>2015-05-24T14:04:22.571Z</time>
      </trkpt>
      <trkpt lat="48.37383" lon="2.51144">
        <ele>80.034</ele>
        <time>2015-05-24T14:04:30.739Z</time>
      </trkpt>
      <trkpt lat="48.37374" lon="2.51142">
        <ele>77.31</ele>
        <time>2015-05-24T14:04:38.113Z</time>
      </trkpt>
      <trkpt lat="48.37364" lon="2.5114">
        <ele>75.958</ele>
        <time>2015-05-24T14:04:45.461Z</time>
      </trkpt>
      <trkpt lat="48.37352" lon="2.51137">
        <ele>77.259</ele>
        <time>2015-05-24T14:04:52.677Z</time>
      </trkpt>
      <trkpt lat="48.37342" lon="2.51134">
        <ele>80.137</ele>
        <time>2015-05-24T14:04:59.349Z</time>
      </trkpt>
      <trkpt lat="48.37334" lon="2.51126">
        <ele>81.739</ele>
        <time>2015-05-24T14:05:05.871Z</time>
      </trkpt>
      <trkpt lat="48.37326" lon="2.51117">
        <ele>80.698</ele>
        <time>2015-05-24T14:05:18.184Z</time>
      </trkpt>
      <trkpt lat="48.37317" lon="2.51108">
        <ele>78.542</ele>
        <time>2015-05-24T14:05:31.159Z</time>
      </trkpt>
      <trkpt lat="48.37317" lon="2.51108">
        <ele>77.283</ele>
        <time>2015-05-24T14:05:43.165Z</time>
      </trkpt>
      <trkpt lat="48.37317" lon="2.51108">
        <ele>77.279</ele>
        <time>2015-05-24T14:05:43.265Z</time>
      </trkpt>
      <trkpt lat="48.37306" lon="2.51094">
        <ele>77.662</ele>
        <time>2015-05-24T14:06:44.019Z</time>
      </trkpt>
      <trkpt lat="48.37305" lon="2.5108">
        <ele>77.672</ele>
        <time>2015-05-24T14:06:51.125Z</time>
      </trkpt>
      <trkpt lat="48.37308" lon="2.51062">
        <ele>77.149</ele>
        <time>2015-05-24T14:06:55.884Z</time>
      </trkpt>
      <trkpt lat="48.37313" lon="2.51049">
        <ele>75.347</ele>
        <time>2015-05-24T14:06:59.204Z</time>
      </trkpt>
      <trkpt lat="48.37313" lon="2.51049">
        <ele>72.195</ele>
        <time>2015-05-24T14:07:04.157Z</time>
      </trkpt>
      <trkpt lat="48.37315" lon="2.51056">
        <ele>69.532</ele>
        <time>2015-05-24T14:12:07.195Z</time>
      </trkpt>
      <trkpt lat="48.37315" lon="2.51056">
        <ele>68.609</ele>
        <time>2015-05-24T14:12:14.911Z</time>
      </trkpt>
      <trkpt lat="48.37322" lon="2.51052">
        <ele>68.772</ele>
        <time>2015-05-24T14:16:36.740Z</time>
      </trkpt>
    </trkseg>
  </trk>
</gpx>